[[{"header":{"parameterUnit":"m.s-1","parameterCategory":1,"la1":30.6,"la2":28.766,"lo1":-90.7593,"lo2":-88.6598,"dy":0.0162,"dx":0.0183,"nx":116,"ny":114,"refTime":"2024-04-05T00:00:00:Z","depth":0,"parameterNumber":2,"parameterNumberName":"U-component_of_WINDS"},"data":[0.0,0.0,0.0,0.0,0.0,0.0,0.0,0.0,0.0,0.0,0.0,0.0,0.0,0.0,0.0,0.0,0.0,0.0,0.0,0.0,0.0,0.0,0.0,0.0,0.0,0.0,0.0,0.0,0.0,0.0,0.0,0.0,0.0,0.0,0.0,0.0,0.0,0.0,0.0,0.0,0.0,0.0,0.0,0.0,0.0,0.0,0.0,0.0,0.0,0.0,0.0,0.0,0.0,0.0,0.0,0.0,0.0,0.0,0.0,0.0,0.0,0.0,0.0,0.0,0.0,0.0,0.0,0.0,0.0,0.0,0.0,0.0,0.0,0.0,0.0,0.0,0.0,0.0,0.0,0.0,0.0,0.0,0.0,0.0,0.0,0.0,0.0,0.0,0.0,0.0,0.0,0.0,0.0,0.0,0.0,0.0,0.0,0.0,0.0,0.0,0.0,0.0,0.0,0.0,0.0,0.0,0.0,0.0,0.0,0.0,0.0,0.0,0.0,0.0,0.0,0.0,0.0,0.0,0.0,0.0,0.0,0.0,0.0,0.0,0.0,0.0,0.0,0.0,0.0,0.0,0.0,0.0,0.0,0.0,0.0,0.0,0.0,0.0,0.0,0.0,0.0,0.0,0.0,0.0,0.0,0.0,0.0,0.0,0.0,0.0,0.0,0.0,0.0,0.0,0.0,0.0,0.0,0.0,0.0,0.0,0.0,0.0,0.0,0.0,0.0,0.0,0.0,0.0,0.0,0.0,0.0,0.0,0.0,0.0,0.0,0.0,0.0,0.0,0.0,0.0,0.0,0.0,0.0,0.0,0.0,0.0,0.0,0.0,0.0,0.0,0.0,0.0,0.0,0.0,0.0,0.0,0.0,0.0,0.0,0.0,0.0,0.0,0.0,0.0,0.0,0.0,0.0,0.0,0.0,0.0,0.0,0.0,0.0,0.0,0.0,0.0,0.0,0.0,0.0,0.0,0.0,0.0,0.0,0.0,0.0,0.0,0.0,0.0,0.0,0.0,0.0,0.0,0.0,0.0,0.0,0.0,0.0,0.0,0.0,0.0,0.0,0.0,0.0,0.0,0.0,0.0,0.0,0.0,0.0,0.0,0.0,0.0,0.0,0.0,0.0,0.0,0.0,0.0,0.0,0.0,0.0,0.0,0.0,0.0,0.0,0.0,0.0,0.0,0.0,0.0,0.0,0.0,0.0,0.0,0.0,0.0,0.0,0.0,0.0,0.0,0.0,0.0,0.0,0.0,0.0,0.0,0.0,0.0,0.0,0.0,0.0,0.0,0.0,0.0,0.0,0.0,0.0,0.0,0.0,0.0,0.0,0.0,0.0,0.0,0.0,0.0,0.0,0.0,0.0,0.0,0.0,0.0,0.0,0.0,0.0,0.0,0.0,0.0,0.0,0.0,0.0,0.0,0.0,0.0,0.0,0.0,0.0,0.0,0.0,0.0,0.0,0.0,0.0,0.0,0.0,0.0,0.0,0.0,0.0,0.0,0.0,0.0,0.0,0.0,0.0,0.0,0.0,0.0,0.0,0.0,0.0,0.0,0.0,0.0,0.0,0.0,0.0,0.0,0.0,0.0,0.0,0.0,0.0,0.0,0.0,0.0,0.0,0.0,0.0,0.0,0.0,0.0,0.0,0.0,0.0,0.0,0.0,0.0,0.0,0.0,0.0,0.0,0.0,0.0,0.0,0.0,0.0,0.0,0.0,0.0,0.0,0.0,0.0,0.0,0.0,0.0,0.0,0.0,0.0,0.0,0.0,0.0,0.0,0.0,0.0,0.0,0.0,0.0,0.0,0.0,0.0,0.0,0.0,0.0,0.0,0.0,0.0,0.0,0.0,0.0,0.0,0.0,0.0,0.0,0.0,0.0,0.0,0.0,0.0,0.0,0.0,0.0,0.0,0.0,0.0,0.0,0.0,0.0,0.0,0.0,0.0,0.0,0.0,0.0,0.0,0.0,0.0,0.0,0.0,0.0,0.0,0.0,0.0,0.0,0.0,0.0,0.0,0.0,0.0,0.0,0.0,0.0,0.0,0.0,0.0,0.0,0.0,0.0,0.0,0.0,0.0,0.0,0.0,0.0,0.0,0.0,0.0,0.0,0.0,0.0,0.0,0.0,0.0,0.0,0.0,0.0,0.0,0.0,0.0,0.0,0.0,0.0,0.0,0.0,0.0,0.0,0.0,0.0,0.0,0.0,0.0,0.0,0.0,0.0,0.0,0.0,0.0,0.0,0.0,0.0,0.0,0.0,0.0,0.0,0.0,0.0,0.0,0.0,0.0,0.0,0.0,0.0,0.0,0.0,0.0,0.0,0.0,0.0,0.0,0.0,0.0,0.0,0.0,0.0,0.0,0.0,0.0,0.0,0.0,0.0,0.0,0.0,0.0,0.0,0.0,0.0,0.0,0.0,0.0,0.0,0.0,0.0,0.0,0.0,0.0,0.0,0.0,0.0,0.0,0.0,0.0,0.0,0.0,0.0,0.0,0.0,0.0,0.0,0.0,0.0,0.0,0.0,0.0,0.0,0.0,0.0,0.0,0.0,0.0,0.0,0.0,0.0,0.0,0.0,0.0,0.0,0.0,0.0,0.0,0.0,0.0,0.0,0.0,0.0,0.0,0.0,0.0,0.0,0.0,0.0,0.0,0.0,0.0,0.0,0.0,0.0,0.0,0.0,0.0,0.0,0.0,0.0,0.0,0.0,0.0,0.0,0.0,0.0,0.0,0.0,0.0,0.0,0.0,0.0,0.0,0.0,0.0,0.0,0.0,0.0,0.0,0.0,0.0,0.0,0.0,0.0,0.0,0.0,0.0,0.0,0.0,0.0,0.0,0.0,0.0,0.0,0.0,0.0,0.0,0.0,0.0,0.0,0.0,0.0,0.0,0.0,0.0,0.0,0.0,0.0,0.0,0.0,0.0,0.0,0.0,0.0,0.0,0.0,0.0,0.0,0.0,0.0,0.0,0.0,0.0,0.0,0.0,0.0,0.0,0.0,0.0,0.0,0.0,0.0,0.0,0.0,0.0,0.0,0.0,0.0,0.0,0.0,0.0,0.0,0.0,0.0,0.0,0.0,0.0,0.0,0.0,0.0,0.0,0.0,0.0,0.0,0.0,0.0,0.0,0.0,0.0,0.0,0.0,0.0,0.0,0.0,0.0,0.0,0.0,0.0,0.0,0.0,0.0,0.0,0.0,0.0,0.0,0.0,0.0,0.0,0.0,0.0,0.0,0.0,0.0,0.0,0.0,0.0,0.0,0.0,0.0,0.0,0.0,0.0,0.0,0.0,0.0,0.0,0.0,0.0,0.0,0.0,0.0,0.0,0.0,0.0,0.0,0.0,0.0,0.0,0.0,0.0,0.0,0.0,0.0,0.0,0.0,0.0,0.0,0.0,0.0,0.0,0.0,0.0,0.0,0.0,0.0,0.0,0.0,0.0,0.0,0.0,0.0,0.0,0.0,0.0,0.0,0.0,0.0,0.0,0.0,0.0,0.0,0.0,0.0,0.0,0.0,0.0,0.0,0.0,0.0,0.0,0.0,0.0,0.0,0.0,0.0,0.0,0.0,0.0,0.0,0.0,0.0,0.0,0.0,0.0,0.0,0.0,0.0,0.0,0.0,0.0,0.0,0.0,0.0,0.0,0.0,0.0,0.0,0.0,0.0,0.0,0.0,0.0,0.0,0.0,0.0,0.0,0.0,0.0,0.0,0.0,0.0,0.0,0.0,0.0,0.0,0.0,0.0,0.0,0.0,0.0,0.0,0.0,0.0,0.0,0.0,0.0,0.0,0.0,0.0,0.0,0.0,0.0,0.0,0.0,0.0,0.0,0.0,0.0,0.0,0.0,0.0,0.0,0.0,0.0,0.0,0.0,0.0,0.0,0.0,0.0,0.0,0.0,0.0,0.0,0.0,0.0,0.0,0.0,0.0,0.0,0.0,0.0,0.0,0.0,0.0,0.0,0.0,0.0,0.0,0.0,0.0,0.0,0.0,0.0,0.0,0.0,0.0,0.0,0.0,0.0,0.0,0.0,0.0,0.0,0.0,0.0,0.0,0.0,0.0,0.0,0.0,0.0,0.0,0.0,0.0,0.0,0.0,0.0,0.0,0.0,0.0,0.0,0.0,0.0,0.0,0.0,0.0,0.0,0.0,0.0,0.0,0.0,0.0,0.0,0.0,0.0,0.0,0.0,0.0,0.0,0.0,0.0,0.0,0.0,0.0,0.0,0.0,0.0,0.0,0.0,0.0,0.0,0.0,0.0,0.0,0.0,0.0,0.0,0.0,0.0,0.0,0.0,0.0,0.0,0.0,0.0,0.0,0.0,0.0,0.0,0.0,0.0,0.0,0.0,0.0,0.0,0.0,0.0,0.0,0.0,0.0,0.0,0.0,0.0,0.0,0.0,0.0,0.0,0.0,0.0,0.0,0.0,0.0,0.0,0.0,0.0,0.0,0.0,0.0,0.0,0.0,0.0,0.0,0.0,0.0,0.0,0.0,0.0,0.0,0.0,0.0,0.0,0.0,0.0,0.0,0.0,0.0,0.0,0.0,0.0,0.0,0.0,0.0,0.0,0.0,0.0,0.0,0.0,0.0,0.0,0.0,0.0,0.0,0.0,0.0,0.0,0.0,0.0,0.0,0.0,0.0,0.0,0.0,0.0,0.0,0.0,0.0,0.0,0.0,0.0,0.0,0.0,0.0,0.0,0.0,0.0,0.0,0.0,0.0,0.0,0.0,0.0,0.0,0.0,0.0,0.0,0.0,0.0,0.0,0.0,0.0,0.0,0.0,0.0,0.0,0.0,0.0,0.0,0.0,0.0,0.0,0.0,0.0,0.0,0.0,0.0,0.0,0.0,0.0,0.0,0.0,0.0,0.0,0.0,0.0,0.0,0.0,0.0,0.0,0.0,0.0,0.0,0.0,0.0,0.0,0.0,0.0,0.0,0.0,0.0,0.0,0.0,0.0,0.0,0.0,0.0,0.0,0.0,0.0,0.0,0.0,0.0,0.0,0.0,0.0,0.0,0.0,0.0,0.0,0.0,0.0,0.0,0.0,0.0,0.0,0.0,0.0,0.0,0.0,0.0,0.0,0.0,0.0,0.0,0.0,0.0,0.0,0.0,0.0,0.0,0.0,0.0,0.0,0.0,0.0,0.0,0.0,0.0,0.0,0.0,0.0,0.0,0.0,0.0,0.0,0.0,0.0,0.0,0.0,0.0,0.0,0.0,0.0,0.0,0.0,0.0,0.0,0.0,0.0,0.0,0.0,0.0,0.0,0.0,0.0,0.0,0.0,0.0,0.0,0.0,0.0,0.0,0.0,0.0,0.0,0.0,0.0,0.0,0.0,0.0,0.0,0.0,0.0,0.0,0.0,0.0,0.0,0.0,0.0,0.0,0.0,0.0,0.0,0.0,0.0,0.0,0.0,0.0,0.0,0.0,0.0,0.0,0.0,0.0,0.0,0.0,0.0,0.0,0.0,0.0,0.0,0.0,0.0,0.0,0.0,0.0,0.0,0.0,0.0,0.0,0.0,0.0,0.0,0.0,0.0,0.0,0.0,0.0,0.0,0.0,0.0,0.0,0.0,0.0,0.0,0.0,0.0,0.0,0.0,0.0,0.0,0.0,0.0,0.0,0.0,0.0,0.0,0.0,0.0,0.0,0.0,0.0,0.0,0.0,0.0,0.0,0.0,0.0,0.0,0.0,0.0,0.0,0.0,0.0,0.0,0.0,0.0,0.0,0.0,0.0,0.0,0.0,0.0,0.0,0.0,0.0,0.0,0.0,0.0,0.0,0.0,0.0,0.0,0.0,0.0,0.0,0.0,0.0,0.0,0.0,0.0,0.0,0.0,0.0,0.0,0.0,0.0,0.0,0.0,0.0,0.0,0.0,0.0,0.0,0.0,0.0,0.0,0.0,0.0,0.0,0.0,0.0,0.0,0.0,0.0,0.0,0.0,0.0,0.0,0.0,0.0,0.0,0.0,0.0,0.0,0.0,0.0,0.0,0.0,0.0,0.0,0.0,0.0,0.0,0.0,0.0,0.0,0.0,0.0,0.0,0.0,0.0,0.0,0.0,0.0,0.0,0.0,0.0,-4.7495,-4.7138,0.0,0.0,0.0,0.0,0.0,0.0,0.0,0.0,0.0,0.0,0.0,0.0,0.0,0.0,0.0,0.0,0.0,0.0,0.0,0.0,0.0,0.0,0.0,-5.8972,-5.8772,-5.8863,-5.8852,-5.8381,-5.7318,-5.7286,0.0,0.0,0.0,0.0,-5.6805,-5.6426,-5.6771,-5.7909,-5.7909,-5.8288,-5.9012,-5.9012,-5.9012,-5.9012,0.0,0.0,0.0,0.0,0.0,0.0,0.0,0.0,0.0,0.0,0.0,0.0,0.0,0.0,0.0,0.0,0.0,0.0,0.0,0.0,0.0,0.0,0.0,0.0,0.0,0.0,0.0,0.0,0.0,0.0,0.0,0.0,0.0,0.0,0.0,0.0,0.0,0.0,0.0,0.0,0.0,0.0,0.0,0.0,0.0,0.0,0.0,0.0,0.0,0.0,0.0,0.0,0.0,0.0,0.0,0.0,0.0,0.0,0.0,0.0,0.0,0.0,0.0,0.0,0.0,0.0,0.0,0.0,0.0,0.0,-4.8643,-4.7654,0.0,0.0,0.0,0.0,0.0,0.0,0.0,0.0,0.0,0.0,0.0,0.0,0.0,0.0,0.0,0.0,0.0,0.0,0.0,0.0,0.0,-5.8189,-5.9034,-5.8799,-5.8523,-5.8328,-5.844,-5.7977,-5.6665,-5.6598,-5.6529,-5.6391,-5.577,-5.5736,-5.6391,-5.5874,-5.6288,-5.7702,-5.7978,-5.8392,-5.9012,-5.9012,-5.9012,-5.9012,-5.9012,0.0,0.0,0.0,0.0,0.0,0.0,0.0,0.0,0.0,0.0,0.0,0.0,0.0,0.0,0.0,0.0,0.0,0.0,0.0,0.0,0.0,0.0,0.0,0.0,0.0,0.0,0.0,0.0,0.0,0.0,0.0,0.0,0.0,0.0,0.0,0.0,0.0,0.0,0.0,0.0,0.0,0.0,0.0,0.0,0.0,0.0,0.0,0.0,0.0,0.0,0.0,0.0,0.0,0.0,0.0,0.0,0.0,0.0,0.0,0.0,0.0,0.0,0.0,-5.2916,-5.3073,-5.3457,-5.2982,-5.2705,-5.249,-5.0857,-4.9219,-4.7796,-4.8006,0.0,0.0,0.0,0.0,0.0,0.0,0.0,0.0,0.0,0.0,0.0,0.0,0.0,0.0,0.0,0.0,0.0,0.0,0.0,-5.7914,-5.6653,-5.7243,-5.7284,-5.6131,-5.666,-5.6696,-5.5839,-5.577,-5.5495,-5.4839,-5.4701,-5.4701,-5.4805,-5.5357,-5.6046,-5.6943,-5.8254,-5.8909,-5.9012,-5.9012,-5.9012,-5.9012,-5.9012,-5.9012,-5.8944,0.0,0.0,0.0,0.0,0.0,0.0,0.0,0.0,0.0,0.0,0.0,0.0,0.0,0.0,0.0,0.0,0.0,0.0,0.0,0.0,0.0,0.0,0.0,0.0,0.0,0.0,0.0,0.0,0.0,0.0,0.0,0.0,0.0,0.0,0.0,0.0,0.0,0.0,0.0,0.0,0.0,-5.0011,-5.0011,0.0,0.0,0.0,0.0,0.0,0.0,0.0,0.0,0.0,0.0,0.0,0.0,0.0,-5.2325,-5.3121,-5.4402,-5.4783,-5.4264,-5.6176,-5.6455,-5.5245,-5.5182,-5.4805,-5.4184,-5.3925,0.0,-4.9567,-4.8715,0.0,0.0,0.0,0.0,0.0,0.0,0.0,0.0,0.0,0.0,0.0,0.0,0.0,0.0,0.0,0.0,0.0,0.0,0.0,0.0,0.0,-5.751,-5.7276,-5.6905,-5.7219,-5.6909,-5.5701,-5.5598,-5.5288,-5.4529,-5.4494,-5.4494,-5.4494,-5.5219,-5.6219,-5.7426,-5.8495,-5.9254,-5.9668,-5.9219,-5.9254,-5.9668,-5.9219,-5.9012,-5.8944,-5.8219,0.0,0.0,0.0,0.0,0.0,0.0,0.0,0.0,0.0,0.0,0.0,0.0,0.0,0.0,0.0,0.0,0.0,0.0,0.0,0.0,0.0,0.0,0.0,0.0,0.0,0.0,0.0,0.0,0.0,0.0,0.0,0.0,0.0,0.0,0.0,0.0,0.0,0.0,0.0,-5.0735,-5.0942,-5.0114,-5.0735,-5.0907,0.0,0.0,0.0,0.0,0.0,0.0,0.0,0.0,0.0,-5.5874,-5.5598,-5.577,-5.6564,-5.7633,-5.8012,-5.7736,-5.8702,-5.9047,-5.8806,-5.8806,-5.8633,-5.8254,-5.6978,-5.5426,-5.3632,-5.1448,-4.9618,-4.8151,0.0,0.0,0.0,0.0,-4.7465,-4.7672,0.0,0.0,0.0,0.0,0.0,0.0,0.0,0.0,0.0,0.0,0.0,0.0,-5.8216,-5.7938,-5.7746,-5.7873,-5.8081,-5.7529,-5.6012,-5.5908,-5.5495,-5.4563,-5.4494,-5.4494,-5.4494,-5.5426,-5.6771,-5.8495,-5.9047,-5.9702,-6.0461,-5.9875,-5.9909,-6.0461,-5.9875,-5.9392,-5.8978,-5.8426,-5.7771,-5.7012,0.0,0.0,0.0,0.0,0.0,0.0,0.0,0.0,0.0,0.0,0.0,0.0,0.0,0.0,0.0,0.0,0.0,0.0,0.0,0.0,0.0,0.0,0.0,0.0,0.0,0.0,0.0,0.0,0.0,0.0,0.0,0.0,0.0,0.0,0.0,0.0,0.0,-5.1369,-5.1813,-5.0125,-5.1778,-5.2333,0.0,0.0,0.0,0.0,0.0,0.0,-5.5171,-5.5479,-5.6609,-5.884,-5.8909,-5.9253,-5.9975,-6.0801,-6.1112,-6.094,-6.1112,-6.1284,-6.1528,-6.1528,-6.146,-6.1185,-5.9116,-5.7771,-5.684,-5.3563,-5.1085,-4.9327,-4.8947,-4.8465,-4.7948,-4.7775,-4.8051,-4.8499,0.0,0.0,0.0,0.0,0.0,0.0,0.0,0.0,0.0,0.0,0.0,-5.8057,-5.687,-5.793,-5.8526,-5.7976,-5.8564,-5.8323,-5.684,-5.6736,-5.6081,-5.4563,-5.4494,-5.4494,-5.4494,-5.5977,-5.784,-6.0082,-6.0116,-6.053,-6.1254,-6.122,-6.122,-6.1254,-6.122,-6.0392,-5.9012,-5.8978,-5.853,-5.7771,-5.7047,0.0,0.0,0.0,0.0,0.0,0.0,0.0,0.0,0.0,0.0,0.0,0.0,0.0,0.0,0.0,0.0,0.0,0.0,0.0,0.0,0.0,0.0,0.0,0.0,0.0,0.0,0.0,0.0,0.0,0.0,0.0,0.0,0.0,0.0,0.0,0.0,0.0,0.0,-4.9983,-5.2969,0.0,0.0,0.0,0.0,-5.4834,-5.5518,-5.6611,-5.8113,-5.8829,-5.9955,-6.1528,-6.1596,-6.1937,-6.2689,-6.3512,-6.3546,-6.2863,-6.3581,-6.3285,-6.2135,-6.2135,-6.1832,-6.122,-5.9702,-5.8599,-5.7564,-5.377,-5.1705,-5.0838,-4.9361,-4.8775,-4.8637,-4.7948,-4.7707,-4.7741,0.0,0.0,0.0,0.0,0.0,-5.8363,-5.8449,-5.8006,-5.7618,-5.769,-5.7686,-5.7639,-5.7671,-5.8215,-5.8544,-5.8598,-5.8875,-5.8392,-5.6909,-5.6805,-5.6115,-5.4563,-5.4494,-5.4977,-5.5977,-5.6529,-5.7909,-6.0185,-6.0668,-6.153,-6.2772,-6.2772,-6.3013,-6.3462,-6.2979,-6.222,-6.1185,-6.0185,-5.9047,-5.7874,-5.7598,-5.6736,0.0,0.0,0.0,0.0,0.0,0.0,0.0,0.0,0.0,0.0,0.0,0.0,0.0,0.0,0.0,0.0,0.0,0.0,0.0,0.0,0.0,0.0,0.0,0.0,0.0,0.0,0.0,0.0,0.0,0.0,0.0,0.0,0.0,0.0,0.0,0.0,0.0,-5.4628,-5.709,0.0,-5.6987,-5.6816,-5.7088,-5.7732,-5.8957,-6.0248,-6.1783,-6.3042,-6.4443,-6.6137,-6.6171,-6.6069,-6.587,-6.6143,-6.5665,-6.4396,-6.4191,-6.3854,-6.3384,-6.2463,-6.2158,-6.2233,-5.9284,-5.8118,-5.805,-5.4821,-5.3404,-5.3253,-5.2701,-5.1873,-5.0878,-5.0154,-4.9907,-4.9907,0.0,0.0,0.0,0.0,-5.8363,-5.8127,-5.8297,-5.7703,-5.7289,-5.7498,-5.7505,-5.7665,-5.8036,-5.838,-5.8696,-5.8978,-5.9012,-5.8392,-5.6909,-5.6805,-5.6115,-5.4563,-5.4494,-5.5357,-5.7116,-5.7185,-5.853,-6.1358,-6.1599,-6.2461,-6.3979,-6.3979,-6.4083,-6.4324,-6.4358,-6.3807,-6.2806,-6.1772,-6.0323,-5.8633,-5.8116,-5.7288,-5.6357,0.0,0.0,0.0,0.0,0.0,0.0,0.0,0.0,0.0,0.0,0.0,0.0,0.0,0.0,0.0,0.0,0.0,0.0,0.0,0.0,0.0,0.0,0.0,0.0,0.0,0.0,0.0,0.0,0.0,0.0,0.0,0.0,0.0,0.0,-5.5383,-5.77,-5.7973,-6.0666,-6.1995,-6.0663,-6.0486,-6.0751,-6.1422,-6.261,-6.3866,-6.5121,-6.6377,-6.7437,-6.8352,-6.8352,-6.7876,-6.6896,-6.6896,-6.6146,-6.4608,-6.3859,-6.3422,-6.3226,-6.2237,-6.1835,-6.1702,-5.8934,-5.7773,-5.7602,-5.5412,-5.4585,-5.4679,-5.4259,-5.3356,-5.2084,-5.136,-5.0942,-5.0769,0.0,0.0,0.0,-5.8698,-5.8363,-5.7969,-5.7655,-5.7583,-5.7325,-5.6555,-5.7498,-5.8137,-5.779,-5.8515,-5.9012,-5.9012,-5.8978,-5.8357,-5.6909,-5.6771,-5.6081,-5.4563,-5.4563,-5.5632,-5.784,-5.7943,-5.9806,-6.3565,-6.2841,-6.3289,-6.4738,-6.4772,-6.4393,-6.3807,-6.529,-6.5117,-6.3738,-6.3669,-6.2393,-6.022,-5.8633,-5.7978,-5.7874,0.0,0.0,0.0,0.0,0.0,0.0,0.0,0.0,0.0,0.0,0.0,0.0,0.0,0.0,0.0,0.0,0.0,0.0,0.0,0.0,0.0,0.0,0.0,0.0,0.0,0.0,0.0,0.0,0.0,0.0,0.0,0.0,0.0,-5.3687,-5.769,-6.0347,-5.9627,-6.3435,-6.5236,-6.3057,-6.3983,-6.5019,-6.573,-6.6508,-6.7218,-6.7929,-6.8741,-6.8808,-6.803,-6.7996,-6.7252,-6.5797,-6.5764,-6.5019,-6.3565,-6.2787,-6.2159,-6.1605,-6.1537,-6.0799,-5.9549,-5.8763,-5.7602,-5.6235,-5.5381,-5.5039,-5.4936,-5.3854,-5.2946,-5.2153,-5.1429,-5.07,-5.0149,0.0,0.0,-5.8698,-5.8698,-5.8164,-5.7797,-5.7923,-5.7252,-5.6939,-5.7558,-5.7768,-5.8022,-5.8496,-5.8828,-5.9012,-5.9012,-5.853,-5.7805,-5.6874,-5.6253,-5.5529,-5.4563,-5.5563,-5.6702,-5.7874,-5.9012,-6.0634,-6.2772,-6.3117,-6.4083,-6.5566,-6.6117,-6.6531,-6.6876,-6.729,-6.7256,-6.6773,-6.5704,-6.491,-6.4048,-6.084,-5.9254,-5.8668,0.0,0.0,0.0,0.0,0.0,0.0,0.0,0.0,0.0,0.0,0.0,0.0,0.0,0.0,0.0,0.0,0.0,0.0,0.0,0.0,0.0,0.0,0.0,0.0,0.0,0.0,0.0,0.0,0.0,0.0,0.0,-5.548,-5.7509,-5.7509,-6.0491,-6.3408,-6.5338,-6.7133,-6.8217,-6.8116,-6.7971,-6.7963,-6.8132,-6.8842,-6.935,-6.9553,-7.0297,-7.0601,-7.0364,-6.9857,-6.9113,-6.8166,-6.759,-6.6542,-6.5087,-6.3802,-6.286,-6.2087,-6.0461,-5.9516,-5.9044,-5.7247,-5.6229,-5.5789,-5.4601,-5.409,-5.4123,-5.4655,-5.4372,-5.3582,-5.2984,-5.1942,-5.0769,0.0,-5.8698,-5.8698,-5.8698,-5.8209,-5.7844,-5.7854,-5.7188,-5.6931,-5.7801,-5.78,-5.8008,-5.8811,-5.8967,-5.9012,-5.9012,-5.8323,-5.7598,-5.684,-5.577,-5.5253,-5.546,-5.6322,-5.7598,-5.9288,-6.053,-6.222,-6.4393,-6.4807,-6.5807,-6.7325,-6.7738,-6.7842,-6.7669,-6.829,-6.8428,-6.8049,-6.7187,-6.6807,-6.6566,-6.3703,-6.1737,-6.0392,-5.9288,-5.8565,-5.8083,-5.7773,-5.7054,-5.6338,-5.6508,0.0,0.0,0.0,0.0,0.0,0.0,0.0,0.0,0.0,0.0,0.0,0.0,0.0,0.0,0.0,0.0,0.0,0.0,0.0,0.0,0.0,0.0,0.0,0.0,-5.866,-6.1332,-6.255,-6.4241,-6.6237,-6.8571,-6.9553,-7.0195,-7.0635,-7.0263,-7.0026,-7.0026,-7.0432,-7.0669,-7.0669,-7.1075,-7.1176,-7.0838,-6.9789,-6.8741,-6.7692,-6.6609,-6.5324,-6.3835,-6.2651,-6.1704,-6.0926,-5.9607,-5.8524,-5.7577,-5.6596,-5.5649,-5.4735,-5.3923,-5.3618,0.0,0.0,0.0,0.0,0.0,-5.1516,-5.0445,0.0,-5.8698,-5.8698,-5.8698,-5.8363,-5.7992,-5.7703,-5.7289,-5.7179,-5.7735,-5.7753,-5.8105,-5.8917,-5.8965,-5.8909,-5.8875,-5.8116,-5.7322,-5.6598,-5.5426,-5.5357,-5.6736,-5.7116,-5.8564,-6.1254,-6.2151,-6.3979,-6.6738,-6.6738,-6.7566,-6.9153,-6.9153,-6.8497,-6.7428,-6.8704,-6.8946,-6.8359,-6.8152,-6.8152,-6.8118,-6.66,-6.4703,-6.2565,-6.1047,-6.0356,-6.0076,-5.932,-5.7911,-5.6507,-5.7152,0.0,0.0,0.0,0.0,0.0,0.0,0.0,0.0,0.0,0.0,0.0,0.0,0.0,0.0,0.0,0.0,0.0,0.0,0.0,0.0,0.0,0.0,0.0,0.0,-6.2009,-6.4986,-6.776,-6.8233,-6.8774,-7.0161,-7.0906,-7.1312,-7.1312,-7.1312,-7.1312,-7.1312,-7.1312,-7.1312,-7.1312,0.0,0.0,0.0,0.0,-6.7252,-6.5933,-6.4478,-6.3024,-6.1535,-6.0757,-5.9945,-5.9133,-5.8896,-5.7645,-5.5715,-5.6292,-5.5378,-5.3518,-5.3518,-5.3518,-5.3551,-5.3816,-5.347,-5.2648,-5.1216,-5.0317,-4.9781,0.0,-5.8698,-5.8698,-5.8698,-5.8363,-5.8082,-5.8015,-5.7425,-5.7464,-5.8826,-5.8445,-5.8557,-5.9752,-5.9053,-5.8415,-5.8149,-5.6874,-5.5736,-5.5012,-5.5839,-5.6495,-5.6771,-5.9116,-6.0703,-6.1289,-6.2668,-6.3945,-6.5152,-6.5152,-6.6221,-6.8325,-6.8325,-6.8842,-6.9704,-6.9428,-6.9532,-6.9877,-6.8635,-6.8463,-6.8911,-6.7394,-6.5773,-6.4117,-6.2599,-6.2048,-6.1872,-6.0901,-5.9971,-5.911,-5.896,-5.7455,-5.5757,-5.5718,0.0,0.0,0.0,0.0,0.0,0.0,0.0,0.0,0.0,0.0,0.0,0.0,0.0,0.0,0.0,0.0,0.0,0.0,0.0,0.0,-6.1332,-6.4715,-6.7692,-6.9485,-7.0263,-7.077,-7.1075,-7.121,-7.1312,-7.1312,-7.1312,-7.1312,-7.1312,-7.1312,-7.1312,-7.1312,-7.1312,-7.1244,-7.1109,-6.9011,-6.776,-6.7489,-6.6,-6.4546,-6.3091,0.0,0.0,-5.9844,-5.8051,-5.6664,-5.5683,-5.5209,-5.4431,-5.3518,-5.3518,-5.3518,-5.3551,-5.3684,-5.3406,-5.275,-5.1828,-5.1039,-5.0351,0.0,-5.8698,-5.8698,-5.8698,-5.8513,-5.8341,-5.8127,-5.7618,-5.7648,-5.8635,-5.8096,-5.7982,-5.8839,-5.8314,-5.7717,-5.739,-5.6288,-5.546,-5.5081,-5.615,-5.7322,-5.8461,-6.0289,-6.1841,-6.2979,-6.4152,-6.529,-6.6393,-6.6807,-6.7773,-6.9256,-6.9256,-6.9635,-7.036,-6.9601,-6.9704,-7.0325,-6.9187,-6.8911,-6.9256,-6.8842,-6.8014,-6.6704,-6.4048,-6.3289,-6.3356,-6.1622,-6.0724,-6.0239,-5.9536,-5.8235,-5.7009,-5.7275,-5.6359,-5.5141,0.0,0.0,0.0,0.0,0.0,0.0,0.0,0.0,0.0,0.0,0.0,0.0,0.0,0.0,-5.46,-5.6461,0.0,-6.211,-6.4715,-6.7354,-6.9586,-7.1075,-7.1312,-7.1312,-7.1312,-7.1312,-7.1312,-7.1312,-7.1312,-7.1312,-7.1312,-7.1312,-7.1142,-7.077,-7.1109,-7.0973,-7.0229,-6.8368,-6.7184,-6.6779,-6.4952,-6.3294,-6.1806,-6.1434,-6.0452,-5.893,-5.7476,-5.6393,-5.5683,-5.4905,-5.416,-5.3518,-5.3518,-5.3518,-5.345,-5.3144,-5.2632,-5.1949,-5.1167,-5.0481,-4.9862,0.0,-5.8698,-5.8698,-5.8698,-5.8698,-5.8593,-5.8275,-5.7867,-5.7802,-5.8326,-5.7691,-5.7423,-5.7928,-5.7495,-5.6947,-5.6389,-5.577,-5.546,-5.5598,-5.6633,-5.8185,-6.0323,-6.1392,-6.2875,-6.4876,-6.5566,-6.6531,-6.7876,-6.8532,-6.936,-7.0394,-7.0222,-7.0325,-7.0567,-6.967,-6.9601,-7.0118,-6.936,-6.9049,-6.9118,-6.9877,-6.9739,-6.8704,-6.5497,-6.4703,-6.501,-6.2341,-6.1234,-6.0813,-5.9633,-5.8533,-5.7814,-5.8558,-5.7881,-5.6765,-5.663,-5.619,0.0,0.0,0.0,0.0,0.0,0.0,0.0,0.0,0.0,-5.4397,-5.5277,-5.619,-5.7611,-6.0283,-6.2753,-6.5189,-6.7726,-6.9417,-7.0872,-7.2225,-7.1887,-7.1515,-7.1515,-7.1413,-7.1312,-7.1312,-7.1312,-7.1312,-7.1312,-7.1176,-7.0838,-7.0229,-7.077,-7.0398,-6.891,-6.7523,-6.6373,-6.5493,-6.3429,-6.1704,-6.0317,-6.0182,-5.9404,-5.8084,-5.7036,-5.6258,-5.5683,-5.4769,-5.4059,-5.3518,-5.3518,-5.3518,-5.3416,-5.2469,-5.1725,-5.1116,-5.0371,-4.9721,-4.9168,0.0,-5.8698,-5.8698,-5.8698,-5.8698,-5.8677,-5.8635,-5.8029,-5.7971,-5.9024,-5.8228,-5.7818,-5.8616,-5.7512,-5.6152,-5.4868,-5.4701,-5.4908,-5.5563,-5.7633,-5.953,-6.1116,-6.3186,-6.4772,-6.5738,-6.5842,-6.629,-6.7118,-6.7187,-6.8325,-7.036,-6.9704,-7.0118,-7.1325,-6.9911,-6.9365,-6.936,-6.8566,-6.8221,-6.829,-6.9084,-6.8946,-6.8118,-6.7014,-6.7083,-6.7286,-6.3977,-6.2354,-6.1497,-5.9621,-5.8084,-5.7036,-5.778,-5.7442,-5.6664,-5.6021,0.0,-5.5412,-5.3923,-5.3551,-5.3923,-5.5175,-5.504,-5.5074,0.0,0.0,-5.6833,-5.822,-5.9674,-6.1197,-6.2821,-6.5493,-6.776,-6.8808,-7.0229,-7.1481,-7.2293,-7.2326,-7.2293,-7.2293,-7.1718,-7.1312,-7.1312,-7.1312,-7.1312,-7.1312,-7.0703,-7.0297,-7.0195,-7.0263,-6.962,-6.8098,-6.7252,-6.6136,-6.4749,-6.3159,-6.1975,-6.1163,-6.0452,-5.9674,-5.8829,-5.6765,-5.5784,-5.5649,-5.4228,-5.3585,-5.3518,-5.3518,-5.3518,-5.3348,-5.1894,-5.1252,-5.1116,-5.0371,-4.9627,-4.9049,0.0,0.0,-5.8698,-5.8698,-5.8698,-5.8698,-5.8698,-5.8231,-5.807,-5.8538,-5.781,-5.7281,-5.7459,-5.6364,-5.537,-5.456,-5.4494,-5.5012,-5.6219,-5.8047,-5.9944,-6.191,-6.3738,-6.529,-6.6497,-6.6531,-6.6876,-6.7635,-6.7635,-6.8359,-6.9739,-6.9428,-7.0084,-7.1429,-7.0394,-6.9911,-6.9877,-6.9118,-6.8532,-6.8221,-6.9428,-6.9463,-6.8739,-6.8428,-6.7704,-6.6355,-6.3024,-6.1919,0.0,0.0,-5.7557,-5.7045,-5.735,-5.6836,-5.6021,-5.5277,-5.5378,0.0,-5.4431,-5.4465,0.0,0.0,-5.6122,-5.6765,-5.7679,-5.7983,-5.8524,-6.0047,-6.1873,-6.3802,-6.573,-6.7793,-6.9485,0.0,-7.0906,-7.1718,-7.2868,-7.2293,-7.1751,-7.1751,-7.1515,-7.1312,-7.1312,-7.1312,-7.1142,-7.0703,-7.077,-7.0466,-6.962,-6.9553,-6.8842,-6.732,-6.6136,-6.5019,-6.3971,-6.2922,-6.1772,-6.0588,-6.025,-5.9268,-5.7679,-5.6325,-5.5243,-5.4397,-5.3788,-5.3518,-5.3518,-5.3518,-5.3213,-5.2706,-5.1623,-5.0947,-5.0473,-4.9729,-4.9255,-4.9018,0.0,0.0,0.0,-5.8698,-5.8698,-5.8698,-5.8698,-5.8363,-5.8105,-5.8105,-5.7546,-5.701,-5.6555,-5.5665,-5.4992,-5.4652,-5.4557,-5.5081,-5.6391,-5.8116,-6.0082,-6.2393,-6.4117,-6.5738,-6.7256,-6.729,-6.7669,-6.8428,-6.8428,-6.8946,-6.9877,-6.967,-7.0256,-7.1463,-7.0498,-7.0187,-7.0325,-6.9601,-6.9084,-6.8808,-6.9946,-6.9704,-6.8601,-6.8187,-6.6462,-6.4048,-6.1796,-6.0966,0.0,0.0,-5.6711,-5.6539,-5.6877,-5.6533,-5.5886,-5.5108,-5.5006,-5.504,-5.4668,0.0,0.0,-5.6224,-5.7273,-5.8355,-5.8998,-5.9708,-6.0757,-6.2482,-6.4241,-6.6068,-6.7895,-6.9316,-7.0297,-7.0635,-7.0872,-7.1447,-7.2699,-7.1616,-7.0703,-7.0703,-7.0331,-7.006,-7.006,-7.0838,-7.1075,-7.0534,-7.0804,-7.0432,-6.918,-6.8876,-6.7996,-6.6271,-6.5155,-6.414,-6.3226,-6.2245,-6.1197,-6.0114,-5.9674,-5.8558,-5.6765,-5.5852,-5.4702,-5.3518,-5.3518,-5.3518,-5.3484,-5.3281,-5.2841,-5.2198,-5.1251,-5.0574,-4.9999,-4.9255,-4.9018,-4.9018,0.0,0.0,0.0,0.0,-5.8698,-5.8698,-5.8698,-5.8363,-5.8105,-5.8105,-5.7821,-5.7313,-5.6582,-5.5901,-5.5354,-5.5022,-5.4683,-5.4839,-5.5598,-5.7771,-6.0047,-6.2393,-6.4634,-6.6531,-6.8014,-6.8049,-6.8463,-6.9256,-6.9256,-6.998,-7.1429,-7.067,-7.0774,-7.1429,-6.998,-6.9704,-7.0325,-6.9601,-6.967,-7.0325,-7.036,-6.9049,-6.6911,-6.5393,-6.2979,-6.0426,-6.0834,0.0,0.0,0.0,-5.5553,-5.5111,-5.6395,-5.6799,0.0,-5.5886,-5.4668,-5.3721,-5.4397,0.0,-5.6055,-5.7476,-5.8389,-5.9573,-6.1738,-6.2821,-6.4005,-6.6203,-6.7252,-6.8064,-6.891,-6.9688,-6.9958,-6.9282,-6.9755,-7.05,-7.1278,-7.0094,-6.918,-6.918,-6.7861,-6.6948,0.0,-6.9586,-7.1312,-7.1278,-7.0635,-6.9891,-6.9147,-6.8368,-6.6914,-6.4749,-6.4613,-6.3903,-6.2448,-6.0926,-6.0148,-6.008,-5.8626,-5.7543,-5.6765,-5.5277,-5.4228,-5.3518,-5.3518,-5.3518,-5.345,-5.2672,-5.2334,-5.2164,-5.071,-5.0101,-4.9999,-4.9255,-4.9018,-4.9018,0.0,0.0,0.0,0.0,0.0,-5.8698,-5.8698,-5.8593,-5.8492,-5.8492,-5.8186,0.0,0.0,0.0,0.0,0.0,-5.49,-5.5026,-5.5563,-5.684,-5.8323,-6.0116,-6.2393,-6.4565,-6.66,-6.7118,-6.8221,-7.0015,-6.898,-6.9532,-7.1463,-7.0739,-7.105,-7.2222,-7.1222,-7.0877,-7.105,-6.9808,-6.9428,-6.9532,-6.8014,-6.6945,-6.5979,-6.3427,-6.0875,-5.8564,0.0,0.0,0.0,-5.4581,-5.3941,-5.3645,-5.4634,0.0,-5.4566,-5.4329,-5.389,-5.3653,-5.4397,0.0,-5.7408,-5.8389,-5.9607,-6.0858,-6.211,-6.2956,-6.3869,-6.5087,-6.5155,-6.5222,-6.5967,-6.6305,-6.6542,-6.6779,-6.7861,-6.9113,-7.0398,-7.0128,-6.9079,-6.7083,-6.7726,0.0,0.0,0.0,0.0,-6.9011,-6.9755,-6.9417,-6.7692,-6.732,-6.6373,-6.4647,-6.3193,-6.2178,-6.167,-6.0622,-5.9844,-5.937,-5.7374,-5.6055,-5.531,-5.4329,-5.3721,-5.3518,-5.3518,-5.3518,-5.345,-5.2638,-5.2029,-5.1488,-5.0473,-4.9796,-4.9357,-4.9086,-4.9018,-4.9018,0.0,0.0,0.0,0.0,0.0,0.0,0.0,0.0,0.0,0.0,0.0,0.0,0.0,0.0,0.0,0.0,0.0,-5.5108,-5.5375,-5.6284,-5.7357,-5.8564,-6.0565,-6.2496,-6.422,-6.4703,-6.5807,-6.7566,-6.6842,-6.7359,-6.9049,-6.9153,-6.9704,-7.0636,-7.0118,-7.0015,-7.0153,-6.8394,-6.7945,-6.8221,-6.5393,-6.4083,-6.3531,-6.0427,-5.7874,0.0,0.0,0.0,-5.3291,-5.3294,-5.2966,-5.2677,-5.3574,-5.3718,-5.3518,-5.3518,-5.3687,-5.4126,-5.5108,-5.6799,-5.8524,-5.9573,-6.0757,-6.1873,-6.2618,-6.3362,-6.4038,-6.4512,-6.3802,-6.3159,-6.3396,-6.3193,-6.3057,-6.326,-6.4546,-6.617,-6.7929,-6.7523,-6.6677,-6.5797,-6.6305,-6.5967,0.0,0.0,0.0,-6.7421,-6.8436,-6.8233,-6.6508,-6.617,-6.5459,-6.4241,-6.2313,-6.1298,-6.1298,-6.025,-5.9201,-5.8186,-5.6258,-5.5074,-5.4566,-5.3822,-5.3518,-5.3518,-5.3518,-5.3348,-5.301,-5.2232,-5.1488,-5.0744,-4.9999,-4.9424,-4.9052,-4.9289,-4.9221,-4.9018,0.0,0.0,0.0,0.0,0.0,0.0,0.0,0.0,0.0,0.0,0.0,0.0,0.0,0.0,0.0,0.0,0.0,0.0,-5.4992,-5.6067,-5.7011,-5.7702,-5.9185,-6.0392,-6.1185,-6.122,-6.1668,-6.253,-6.3186,-6.3876,-6.4669,-6.6083,-6.6773,-6.6807,-6.6773,-6.7187,-6.7704,-6.5462,-6.5359,-6.6359,-6.2599,-6.0634,-5.9702,-5.6667,0.0,0.0,0.0,0.0,0.0,0.0,0.0,0.0,-5.3339,-5.3618,-5.3518,-5.3585,-5.4126,-5.504,-5.6562,-5.8017,-5.9505,-6.0994,-6.1873,-6.2584,-6.3294,-6.4005,-6.4478,-6.4377,-6.3159,-6.1873,0.0,0.0,-5.9674,-5.9099,-6.0385,-6.2178,-6.441,-6.2956,-6.2618,0.0,0.0,0.0,0.0,0.0,0.0,-6.644,0.0,-6.6406,-6.5628,-6.4952,-6.4241,-6.3429,-6.2009,-6.1231,-6.1197,-5.9674,-5.8186,-5.6731,-5.5277,-5.4566,-5.4499,-5.3822,-5.3518,-5.3518,-5.3518,-5.3044,-5.2232,-5.1522,-5.0777,-5.0033,-4.9289,-4.9018,-4.9086,-4.9796,-4.9627,-4.9052,0.0,0.0,0.0,0.0,0.0,0.0,0.0,0.0,0.0,0.0,0.0,0.0,0.0,0.0,0.0,0.0,0.0,0.0,-5.5053,-5.5313,-5.5403,-5.5357,0.0,0.0,0.0,0.0,0.0,-6.3324,-6.2358,-6.2565,-6.3876,-6.3703,-6.3945,-6.4427,-6.3876,-6.4048,-6.4634,-6.291,-6.2393,-6.2461,0.0,-5.784,-5.7391,0.0,0.0,0.0,0.0,0.0,0.0,0.0,0.0,0.0,0.0,-5.3684,-5.3855,-5.4871,-5.5683,-5.6664,-5.8727,-5.9979,-6.0926,-6.1873,-6.2245,-6.2448,-6.2618,-6.2821,-6.2618,-6.1467,-5.9641,-5.7814,0.0,0.0,0.0,-5.8761,-6.1231,0.0,-6.5933,-6.6237,0.0,-6.4986,0.0,-6.4952,-6.3125,-6.3294,0.0,0.0,-6.5053,-6.5425,-6.414,-6.441,-6.3768,-6.1941,-6.0926,-6.0148,-5.9607,-5.8118,-5.69,-5.5987,-5.504,-5.4296,-5.3788,-5.3585,-5.3518,-5.3518,-5.3518,-5.3044,-5.2232,-5.1522,-5.0777,-5.0033,-4.9289,-4.9018,-4.9018,-4.9221,-4.9492,-4.9729,0.0,0.0,0.0,0.0,0.0,0.0,0.0,0.0,0.0,0.0,0.0,0.0,0.0,0.0,0.0,0.0,0.0,0.0,0.0,-5.5083,-5.4838,-5.4494,0.0,0.0,0.0,0.0,0.0,0.0,0.0,0.0,-6.0599,-6.053,-6.053,-6.0599,-6.053,-6.053,-6.0496,-5.8978,0.0,0.0,0.0,0.0,0.0,0.0,0.0,0.0,0.0,0.0,0.0,0.0,0.0,-5.4724,-5.4902,-5.5348,-5.5996,-5.6977,0.0,-5.9211,-6.0727,-6.1434,-6.1975,-6.2685,-6.2381,-6.1738,-6.1061,-6.0655,-5.9877,-5.8051,-5.6156,0.0,-5.3315,-5.3721,0.0,0.0,0.0,0.0,-6.4512,-6.5222,-6.5628,0.0,-6.6203,0.0,-6.4478,-6.441,-6.4038,0.0,-6.3734,-6.3869,-6.3057,-6.3396,-6.3057,-6.1806,-6.0689,-5.9438,-5.8051,-5.69,-5.5953,-5.5209,-5.4465,-5.389,-5.3518,-5.3518,-5.3518,-5.3518,0.0,-5.2875,-5.1792,-5.1386,-5.0574,-4.956,-4.9154,-4.9018,-4.9086,-4.9729,-4.983,-4.9661,0.0,0.0,0.0,0.0,0.0,0.0,0.0,0.0,0.0,0.0,-5.8097,0.0,0.0,0.0,0.0,0.0,0.0,0.0,0.0,0.0,0.0,0.0,0.0,0.0,0.0,0.0,0.0,0.0,0.0,0.0,0.0,0.0,0.0,0.0,0.0,0.0,0.0,0.0,0.0,0.0,0.0,0.0,0.0,0.0,0.0,0.0,0.0,0.0,0.0,0.0,-5.5776,-5.5852,-5.6574,-5.7672,-5.8833,-5.9573,-6.0724,-6.1906,-6.2662,-6.2685,-6.2685,-6.3362,-6.2415,-6.0892,-5.9235,-5.8287,-5.7103,-5.4769,0.0,-5.1894,-5.1082,-5.1589,-5.257,-5.3754,0.0,-5.9133,-6.2245,-6.2685,-6.3869,-6.7083,-6.6406,-6.5899,-6.6474,-6.5933,-6.4986,-6.3632,-6.2821,-6.2381,-6.2381,-6.2381,-6.2313,-6.2076,-6.0588,-5.8829,-5.6833,-5.6089,-5.5344,-5.4566,-5.3856,-5.3518,-5.3518,-5.3518,-5.3518,-5.3484,-5.3382,-5.2536,-5.1185,-5.1116,-5.0236,-4.9018,-4.9018,-4.9018,-4.9154,-5.0439,-5.0168,-4.9323,0.0,0.0,0.0,0.0,0.0,0.0,0.0,0.0,0.0,0.0,-5.8297,-5.7923,0.0,0.0,0.0,0.0,0.0,0.0,0.0,0.0,0.0,0.0,0.0,0.0,0.0,0.0,0.0,0.0,0.0,0.0,0.0,0.0,0.0,0.0,0.0,0.0,0.0,0.0,0.0,0.0,0.0,0.0,0.0,0.0,0.0,0.0,0.0,0.0,0.0,0.0,-5.6979,-5.76,-5.8187,-5.8977,-5.9968,-6.1616,-6.2323,-6.2858,-6.4661,-6.4241,-6.3362,-6.3497,-6.2415,-6.0757,-5.8592,-5.7509,0.0,0.0,-5.1995,-5.098,-4.9627,-5.0507,-5.2469,-5.5716,-5.7679,-6.008,-6.37,-6.4208,-6.4444,0.0,-6.5459,-6.5493,-6.5019,-6.4884,0.0,0.0,-6.2821,-6.2381,-6.2381,-6.2381,-6.1806,-6.0554,-5.9066,-5.778,-5.6799,-5.6089,-5.5344,-5.4566,-5.3856,-5.3518,-5.3518,-5.3518,-5.3518,-5.345,-5.2807,0.0,-5.1151,-5.0541,-4.9796,-4.9018,-4.9018,-4.9018,-4.9052,-4.9289,-4.9593,-4.9864,0.0,0.0,0.0,0.0,0.0,0.0,0.0,-5.9383,-5.9775,-5.9367,-5.9143,-5.8755,-5.795,-5.7534,-5.7112,0.0,0.0,0.0,0.0,0.0,0.0,0.0,0.0,0.0,0.0,0.0,-5.4701,-5.5081,0.0,0.0,0.0,0.0,0.0,0.0,0.0,0.0,0.0,0.0,0.0,0.0,0.0,0.0,0.0,0.0,0.0,0.0,0.0,0.0,0.0,0.0,-5.6943,-5.8151,-5.9633,-6.1146,-6.2623,-6.3798,-6.4362,-6.4852,-6.6147,-6.5304,-6.4072,-6.4072,-6.2381,-5.9979,-5.734,0.0,0.0,0.0,-5.0304,-4.9864,-4.912,-5.0202,0.0,-5.4093,-5.6055,-5.8457,-6.1806,-6.2618,0.0,-6.4986,-6.5459,-6.5561,0.0,-6.5155,-6.4715,-6.3599,-6.3193,-6.2787,-6.2415,-6.2042,-6.1298,-6.0148,-5.9032,-5.7746,-5.6258,-5.5886,-5.5141,-5.4025,-5.3687,-5.3518,-5.3518,-5.3518,-5.3518,-5.345,-5.2638,-5.1894,-5.115,-5.0405,-4.9661,-4.9018,-4.9018,-4.9018,-4.9052,-4.9424,-4.956,-4.9526,0.0,0.0,0.0,0.0,0.0,0.0,0.0,-5.9552,-6.0088,-5.9903,-6.0072,-5.9743,-5.8607,-5.7728,-5.7188,0.0,0.0,0.0,0.0,0.0,0.0,0.0,0.0,0.0,0.0,0.0,0.0,-5.5391,-5.4805,0.0,0.0,0.0,0.0,0.0,0.0,0.0,0.0,0.0,0.0,0.0,0.0,0.0,0.0,0.0,0.0,0.0,0.0,0.0,0.0,0.0,-5.6771,-5.8219,-6.0013,-6.2151,-6.4114,-6.4817,-6.5515,-6.6165,-6.678,-6.5793,-6.4512,-6.4208,-6.1975,-5.9066,-5.5953,-5.4194,0.0,0.0,-4.9018,-4.9018,-4.9018,-4.9965,-5.1082,0.0,-5.3957,-5.6325,-5.9438,-6.0554,-6.2076,0.0,-6.5222,0.0,-6.5425,-6.5324,0.0,-6.3599,-6.3362,-6.3024,-6.2415,-6.1535,-6.0757,-6.0114,-5.9235,-5.778,-5.575,-5.5681,-5.4972,-5.3518,-5.3518,-5.3518,-5.3518,-5.3518,-5.3518,-5.345,-5.2469,-5.1758,-5.1117,-5.0236,-4.9526,-4.9018,-4.9018,-4.9018,-4.9086,-4.9627,-4.9492,-4.9086,0.0,0.0,0.0,0.0,0.0,0.0,0.0,-6.0072,-6.0815,-5.9998,-6.0593,-6.072,-5.9844,-5.8718,-5.7737,0.0,0.0,0.0,0.0,0.0,0.0,0.0,0.0,0.0,0.0,0.0,0.0,-5.4598,-5.4529,0.0,0.0,0.0,0.0,0.0,0.0,-5.4356,0.0,0.0,0.0,0.0,0.0,0.0,0.0,0.0,0.0,0.0,0.0,0.0,0.0,0.0,0.0,-5.7943,-5.815,-5.9771,-6.1874,-6.3134,0.0,0.0,-6.5963,-6.5386,-6.4275,-6.2922,-6.0858,-5.8152,-5.4532,0.0,0.0,-4.9458,-4.9018,-4.9018,-4.9018,-4.912,-4.9898,-5.1961,0.0,-5.4972,-5.8592,-5.9742,-6.1095,-6.3429,0.0,0.0,-6.4647,-6.4106,-6.3666,-6.3531,-6.2888,-6.2448,-6.2381,-6.0994,-6.0182,-6.0114,-5.8727,-5.7273,-5.575,-5.5681,-5.4972,-5.3518,-5.3518,-5.3518,-5.3518,-5.3518,-5.3518,-5.3416,-5.1961,-5.1285,0.0,-4.9695,-4.9052,-4.9018,-4.9018,-4.9018,-4.9018,-4.9086,-4.9052,-4.9018,0.0,0.0,0.0,0.0,0.0,0.0,-5.8698,-6.011,-6.1076,-6.0741,-6.1001,-6.1076,-6.0741,-5.935,-5.8164,-5.7412,0.0,0.0,0.0,0.0,0.0,0.0,0.0,0.0,0.0,0.0,-5.4494,-5.4494,-5.4494,0.0,0.0,0.0,0.0,0.0,0.0,-5.4494,-5.4494,0.0,0.0,0.0,0.0,0.0,0.0,0.0,0.0,0.0,0.0,0.0,0.0,0.0,0.0,0.0,-5.4632,-5.5426,0.0,0.0,-6.2576,-6.3947,-6.4693,-6.472,-6.4343,-6.3328,-6.0689,-5.7712,-5.5378,0.0,-5.115,-4.9357,-4.9018,-4.9018,-4.9018,-4.9018,-4.9289,-5.0168,0.0,0.0,-5.4566,0.0,0.0,-6.0385,-6.1197,0.0,0.0,0.0,-6.3159,-6.2245,-6.1907,-6.1535,-6.1028,-6.0419,-5.9911,-5.9471,-5.8423,-5.7171,-5.5681,-5.5681,-5.4972,-5.3518,-5.3518,-5.3518,-5.3518,-5.3518,-5.3518,-5.3416,-5.1894,-5.1185,0.0,-4.9627,-4.9018,-4.9018,-4.9018,-4.9018,-4.9018,-4.9018,-4.9018,-4.9018,0.0,0.0,0.0,0.0,0.0,-5.8698,-5.8698,-5.9924,-6.0815,-6.0815,-6.0815,-6.0815,-6.0815,-5.9552,-5.8422,-5.7655,-5.7338,0.0,0.0,0.0,0.0,0.0,0.0,0.0,0.0,0.0,-5.4494,-5.4494,-5.4494,-5.4494,0.0,0.0,-5.4494,-5.4494,0.0,0.0,0.0,0.0,0.0,0.0,0.0,0.0,0.0,0.0,0.0,0.0,0.0,0.0,0.0,0.0,0.0,0.0,0.0,0.0,0.0,0.0,-6.0351,-6.2217,-6.3171,-6.3888,-6.4119,-6.3091,-6.0351,-5.7408,0.0,0.0,-5.0777,-4.9323,-4.9018,-4.9018,-4.9018,-4.9018,-4.9018,0.0,0.0,-5.0033,-5.2029,-5.2503,0.0,0.0,0.0,-5.9776,0.0,-6.2719,-6.2415,-6.14,-6.1095,-6.0622,-5.981,-5.9573,-5.9302,-5.9032,-5.8084,-5.6968,-5.5681,-5.548,-5.4735,-5.3518,-5.3518,-5.3518,-5.3518,-5.3518,-5.3518,-5.3416,-5.1894,-5.1185,0.0,-4.9627,-4.9018,-4.9018,-4.9018,-4.9018,-4.9018,-4.9018,-4.9018,-4.9018,0.0,0.0,0.0,0.0,0.0,0.0,-5.8698,-5.9404,-5.9924,-5.9924,-5.9924,-5.9924,-5.9924,-5.9181,-5.8422,-5.7655,-5.7583,0.0,0.0,0.0,0.0,0.0,0.0,0.0,0.0,0.0,-5.4494,-5.4494,-5.4494,-5.4494,-5.4494,-5.4494,-5.4494,-5.4494,0.0,0.0,0.0,0.0,0.0,0.0,0.0,0.0,0.0,0.0,0.0,0.0,0.0,0.0,0.0,0.0,0.0,0.0,0.0,-5.2188,-5.2636,0.0,-5.7671,-6.021,-6.15,-6.2813,-6.3435,-6.1743,-5.9607,-5.7103,0.0,0.0,-5.0777,-4.9323,-4.9018,-4.9018,-4.9018,-4.9018,-4.9018,-4.9018,-4.9593,0.0,-5.2197,-5.301,0.0,0.0,0.0,-5.69,-5.9844,-6.0858,-6.1332,-6.1298,-6.0554,0.0,-5.9066,-5.8321,-5.8254,-5.8998,-5.7577,-5.6461,-5.5716,-5.4972,-5.4228,-5.3518,-5.3518,-5.3518,-5.3518,-5.3518,-5.3518,-5.3416,-5.1894,-5.1185,0.0,-4.9627,-4.9018,-4.9018,-4.9018,-4.9018,-4.9018,-4.9018,-4.9018,-4.9018,0.0,0.0,0.0,0.0,0.0,0.0,0.0,-5.9383,-5.9903,-5.9903,-5.9903,-5.9903,-5.9903,-5.9181,-5.8422,-5.7655,-5.7583,0.0,0.0,0.0,0.0,0.0,0.0,0.0,0.0,0.0,-5.4494,-5.4494,-5.4494,-5.4494,-5.4494,-5.4494,-5.4494,-5.4494,-5.4494,-5.4494,0.0,0.0,0.0,0.0,0.0,0.0,0.0,0.0,0.0,0.0,0.0,0.0,0.0,0.0,0.0,0.0,0.0,0.0,0.0,-5.2912,-5.5298,-5.7741,-5.8525,-5.937,-5.9797,-5.9137,-5.6494,-5.3957,-5.3585,0.0,-4.956,-4.912,-4.9018,-4.9018,-4.9018,-4.9018,-4.9018,-4.9018,-4.9187,0.0,0.0,0.0,0.0,-5.5716,-5.8558,-6.0655,0.0,0.0,-6.1061,-6.052,-5.9776,-5.9032,-5.8287,-5.7543,-5.7273,-5.7509,-5.6562,-5.5683,-5.4972,-5.4702,-5.4228,-5.3518,-5.3518,-5.3518,-5.3518,-5.3518,-5.3518,-5.3416,-5.1894,-5.1185,-5.1116,-4.9627,-4.9018,-4.9018,-4.9018,-4.9018,-4.9018,-4.9018,-4.9018,-4.8951,0.0,0.0,0.0,0.0,0.0,0.0,0.0,-5.9144,-5.9478,-5.9478,-5.9478,-5.9478,-5.9478,-5.8868,-5.8297,-5.7844,-5.7679,0.0,0.0,0.0,0.0,0.0,0.0,0.0,-5.4807,-5.4589,-5.4632,-5.4943,-5.4943,-5.4943,-5.4943,-5.4943,-5.477,-5.4494,-5.4494,-5.4494,0.0,0.0,0.0,0.0,0.0,0.0,-5.4494,0.0,0.0,0.0,0.0,0.0,0.0,0.0,0.0,0.0,0.0,0.0,0.0,0.0,-5.3235,-5.4689,-5.6098,-5.7121,-5.7625,-5.687,-5.4668,0.0,0.0,0.0,-4.9323,-4.9052,-4.9018,-4.9018,-4.9018,-4.9018,-4.9018,-4.9018,-4.9018,-4.9086,0.0,0.0,0.0,-5.4972,0.0,0.0,0.0,-6.0791,-6.052,-5.9742,-5.8998,-5.8389,-5.7915,-5.6934,-5.6393,-5.6393,-5.5683,-5.5074,-5.46,-5.4329,-5.3957,-5.3518,-5.3518,-5.3518,-5.3518,-5.3518,-5.3518,-5.3416,-5.1894,-5.1185,0.0,-4.9627,-4.9018,-4.9018,-4.9018,-4.9018,-4.9018,-4.9018,-4.9018,-4.8951,0.0,0.0,0.0,0.0,0.0,0.0,0.0,-5.8698,-5.8698,-5.8698,-5.8698,-5.8698,-5.8698,-5.8363,-5.8127,-5.8105,0.0,0.0,0.0,0.0,0.0,0.0,0.0,0.0,-5.4529,-5.4494,-5.4839,-5.5497,-5.5497,-5.5497,-5.5497,-5.5497,-5.5184,-5.4494,-5.4494,-5.4494,0.0,0.0,0.0,0.0,-5.4494,-5.4494,0.0,0.0,0.0,0.0,0.0,0.0,0.0,0.0,0.0,0.0,0.0,0.0,0.0,0.0,0.0,0.0,0.0,-5.5656,-5.6267,-5.4736,-5.3754,-5.2841,-5.1454,0.0,0.0,-4.9086,-4.8951,-4.8984,-4.8951,-4.8951,-4.9018,-4.9018,-4.9018,-4.9255,0.0,-5.0913,0.0,0.0,-5.7306,0.0,-5.7983,-5.9201,-5.9742,-5.9066,-5.8254,-5.7814,-5.7814,-5.6427,-5.5649,-5.5649,-5.4905,-5.4499,-5.4499,-5.3856,-5.3518,-5.3518,-5.3518,-5.3518,-5.3518,-5.345,-5.3416,0.0,-5.1792,-5.115,-5.0982,-4.9593,-4.9018,-4.9018,-4.9018,-4.9018,-4.9018,-4.9018,-4.9018,-4.8984,0.0,0.0,0.0,0.0,0.0,0.0,0.0,0.0,0.0,0.0,-5.8698,-5.8698,-5.8698,-5.8614,-5.8428,0.0,0.0,0.0,0.0,0.0,0.0,0.0,0.0,0.0,-5.4529,-5.4494,-5.4598,-5.477,-5.477,-5.477,-5.477,-5.477,-5.4667,-5.4494,-5.4494,-5.4494,0.0,0.0,0.0,0.0,-5.4494,-5.4494,0.0,0.0,0.0,0.0,-5.4494,-5.4494,0.0,0.0,0.0,0.0,0.0,0.0,0.0,0.0,-5.0952,-5.0769,-5.133,0.0,-5.1985,-5.1994,-5.1014,-5.0101,0.0,-4.9796,-4.9052,0.0,0.0,-4.8849,-4.8244,-4.8612,-4.9018,-4.9018,-4.9018,-4.9255,-4.9999,-5.2739,0.0,-5.6156,-5.8389,-5.9336,-5.8017,-5.8727,-5.9201,-5.9032,-5.778,-5.707,-5.707,-5.5649,-5.4871,-5.4871,-5.4126,-5.3754,-5.3754,-5.3585,-5.3518,-5.3518,-5.3518,-5.3518,-5.3484,-5.2875,-5.257,-5.2503,-5.1014,-5.0338,-5.027,-4.939,-4.9018,-4.9018,-4.9018,-4.9018,-4.9018,-4.9018,-4.9018,-4.8917,0.0,0.0,0.0,0.0,0.0,0.0,0.0,0.0,0.0,0.0,0.0,-5.8698,-5.8698,-5.8551,0.0,0.0,0.0,0.0,0.0,0.0,0.0,0.0,0.0,-5.4683,-5.4494,-5.4494,-5.4667,-5.5012,-5.5391,-5.5563,-5.5563,-5.5908,-5.5701,-5.5012,-5.4667,-5.4494,0.0,0.0,0.0,-5.4494,-5.4494,0.0,0.0,0.0,0.0,0.0,-5.4494,-5.4494,0.0,-5.4494,-5.4494,-5.4322,0.0,0.0,0.0,0.0,-5.0994,-5.0567,-5.0447,-5.0323,-5.026,-5.0202,-4.9593,-4.912,-4.9492,0.0,0.0,0.0,0.0,0.0,-4.7973,-4.824,-4.8612,-4.8951,-4.9018,0.0,0.0,0.0,-5.5243,-5.663,-5.8152,-5.8896,0.0,-5.8795,-5.8863,-5.8524,-5.7442,-5.6799,-5.6799,-5.5378,-5.46,-5.46,-5.389,-5.3518,-5.3518,-5.3518,-5.3518,-5.3518,-5.3518,-5.3315,-5.2942,-5.2503,-5.2131,-5.1725,-5.0574,-5.0101,-5.0033,-4.9289,-4.9018,-4.9018,-4.9018,-4.9018,-4.9018,-4.9018,-4.9018,-4.8951,0.0,0.0,0.0,0.0,0.0,0.0,0.0,0.0,0.0,0.0,0.0,0.0,0.0,0.0,0.0,0.0,0.0,0.0,0.0,0.0,0.0,0.0,-5.4834,-5.4494,-5.4494,-5.4494,-5.4874,-5.5598,-5.6288,-5.6667,-5.6805,-5.746,-5.6978,-5.5566,-5.4943,-5.4632,0.0,-5.4494,-5.4494,-5.4494,-5.4494,0.0,0.0,0.0,0.0,0.0,0.0,0.0,0.0,-5.4494,-5.4494,-5.4356,-5.3494,0.0,0.0,0.0,0.0,0.0,-5.0215,-5.0057,-4.9763,-4.9154,-4.9018,-4.9018,-4.9018,0.0,0.0,0.0,0.0,0.0,0.0,-4.7936,0.0,0.0,0.0,0.0,-5.132,-5.2875,-5.4499,-5.6258,-5.7306,0.0,-5.8457,-5.8727,-5.8524,-5.778,-5.7036,-5.6596,-5.6461,-5.5175,-5.4431,-5.4431,-5.3822,-5.3518,-5.3518,-5.3518,-5.3518,-5.3518,-5.3518,-5.3078,-5.23,-5.2198,-5.1725,-5.1014,0.0,0.0,-4.9864,-4.9255,-4.9018,-4.9018,-4.9018,-4.9018,-4.9018,-4.9018,-4.9018,-4.9018,0.0,0.0,0.0,0.0,0.0,0.0,0.0,0.0,0.0,0.0,0.0,0.0,0.0,0.0,0.0,0.0,0.0,0.0,0.0,0.0,0.0,-5.4714,-5.4557,-5.4494,-5.4494,-5.4494,-5.4874,-5.5598,-5.5736,-5.615,-5.6805,-5.6909,-5.6495,-5.5598,-5.5462,-5.5081,-5.4494,-5.4494,-5.4494,-5.4494,-5.4494,0.0,0.0,0.0,0.0,0.0,0.0,0.0,0.0,-5.4494,-5.4494,-5.4253,-5.2808,0.0,0.0,0.0,0.0,0.0,-4.9249,-4.9218,-4.9154,-4.9052,-4.9018,-4.9018,-4.9018,0.0,0.0,0.0,0.0,0.0,0.0,-4.8003,-4.8883,0.0,0.0,-5.142,0.0,0.0,-5.5277,-5.4972,0.0,-5.7442,-5.6325,-5.734,-5.7746,-5.7036,-5.6292,-5.5615,-5.4972,-5.4126,-5.3687,-5.3687,-5.3551,-5.3518,-5.3518,-5.3518,-5.3518,-5.3518,-5.3518,-5.3078,-5.2266,-5.1657,-5.098,-5.0236,0.0,-4.9187,-4.9154,-4.9052,-4.9018,-4.9018,-4.9018,-4.9018,-4.9018,-4.9018,-4.9018,-4.9018,0.0,0.0,0.0,0.0,0.0,0.0,0.0,0.0,0.0,0.0,0.0,0.0,0.0,0.0,0.0,0.0,0.0,0.0,0.0,0.0,-5.4981,-5.5081,-5.5115,-5.4908,-5.4529,-5.4908,-5.5288,-5.5598,-5.684,-5.7426,-5.7391,-5.6978,-5.6598,-5.6219,-5.5391,-5.4839,-5.4494,-5.4494,-5.4494,-5.4494,0.0,0.0,0.0,0.0,0.0,0.0,0.0,0.0,0.0,0.0,-5.4494,-5.4253,-5.2701,0.0,0.0,0.0,0.0,0.0,-4.9656,-4.9289,-4.9018,-4.9018,-4.9018,-4.9018,-4.9018,-4.8748,0.0,0.0,0.0,0.0,0.0,0.0,-4.9255,-5.0067,0.0,-5.1589,-5.2706,-5.345,-5.4194,0.0,0.0,-5.6765,-5.6867,-5.7137,-5.7171,-5.6833,-5.575,-5.4972,-5.46,-5.389,-5.3518,-5.3518,-5.3518,-5.3518,-5.3518,-5.3518,-5.3518,-5.3518,-5.3518,-5.2875,-5.1691,-5.1352,-5.0608,-4.9492,0.0,-4.9018,-4.9018,-4.9018,-4.9018,-4.9018,-4.9018,-4.9018,-4.9018,-4.9018,-4.9018,-4.8951,0.0,0.0,0.0,0.0,0.0,0.0,0.0,0.0,0.0,0.0,0.0,0.0,0.0,0.0,0.0,0.0,0.0,0.0,0.0,-5.49,-5.4903,-5.5598,-5.5598,-5.5426,-5.5046,-5.577,-5.6219,-5.6426,-5.8357,-5.9012,-5.8426,-5.7495,-5.6978,-5.6736,-5.5391,-5.4667,-5.4494,-5.4494,-5.4494,-5.4494,0.0,0.0,0.0,0.0,0.0,0.0,0.0,0.0,0.0,0.0,0.0,0.0,0.0,0.0,0.0,-5.0704,-5.0206,-5.0082,-4.9893,-4.9455,-4.9015,-4.9018,-4.9018,-4.9018,-4.9018,-4.9018,-4.8815,-4.8041,0.0,0.0,0.0,-4.8646,0.0,-5.1014,-5.132,-5.1725,-5.2469,-5.2739,-5.3551,-5.548,-5.5852,-5.6393,-5.7509,-5.7137,-5.6664,-5.6325,-5.5243,-5.4499,-5.4329,-5.3822,-5.3518,-5.3518,-5.3518,-5.3518,-5.3518,-5.3518,-5.3518,-5.3518,-5.3518,-5.2706,-5.1185,-5.1185,-5.0405,-4.9018,-4.9018,-4.9018,-4.9018,-4.9018,-4.9018,-4.9018,-4.9018,-4.9018,-4.9018,-4.9018,-4.9018,-4.8917,0.0,0.0,0.0,0.0,0.0,0.0,0.0,0.0,0.0,0.0,0.0,0.0,0.0,0.0,0.0,0.0,0.0,0.0,0.0,-5.4992,-5.5154,-5.5598,-5.5598,-5.5943,-5.6633,-5.7357,-5.8081,-5.8771,-5.9668,-6.0082,-6.0013,-5.853,-5.746,-5.6771,-5.5908,-5.515,-5.4494,-5.4494,-5.4494,-5.4494,-5.4494,0.0,0.0,0.0,0.0,0.0,0.0,0.0,0.0,0.0,0.0,0.0,0.0,0.0,-5.0598,-4.9596,-4.9267,-4.927,-4.9117,-4.9111,-4.9168,-4.9015,-4.9018,-4.9018,-4.9018,-4.9018,-4.8815,-4.8041,0.0,0.0,0.0,-4.9052,-5.027,-5.1082,-5.1792,-5.2503,-5.3315,0.0,-5.4735,-5.5615,-5.6325,-5.6765,-5.6867,-5.6833,-5.6224,-5.4837,-5.4668,-5.4296,-5.3619,-5.3551,-5.3518,-5.3518,-5.3518,-5.3518,-5.3518,-5.3518,-5.3518,-5.3518,-5.3518,-5.2706,-5.1185,-5.1185,-5.0405,-4.9018,-4.9018,-4.9018,-4.9018,-4.9018,-4.9018,-4.9018,-4.9018,-4.9018,-4.9018,-4.9018,-4.9018,-4.8984,0.0,0.0,0.0,0.0,0.0,0.0,0.0,0.0,0.0,0.0,0.0,0.0,0.0,0.0,0.0,0.0,0.0,0.0,0.0,-5.4807,-5.4966,-5.5563,-5.5598,-5.6219,-5.746,-5.8254,-5.8771,-5.9047,-5.984,-6.0427,-6.084,-5.8357,-5.7081,-5.6736,-5.5495,-5.4529,-5.3839,-5.3839,-5.3839,-5.3839,-5.3839,-5.4115,0.0,0.0,0.0,0.0,0.0,0.0,0.0,0.0,-5.3632,-5.3153,-5.176,-5.1051,-5.0583,-4.968,-4.9381,-4.935,-4.9168,-4.9168,-4.9168,-4.9015,-4.9018,-4.912,-4.9593,-4.9661,-4.9593,-4.9323,-4.9864,0.0,0.0,0.0,-5.1048,-5.1758,-5.2536,-5.3315,-5.4059,-5.4397,-5.4871,-5.5615,-5.5953,-5.6122,-5.6122,-5.5716,-5.5175,-5.4634,-5.416,-5.3788,-5.3518,-5.3518,-5.3518,-5.3518,-5.3518,-5.3518,-5.3518,-5.3518,-5.3247,-5.2739,-5.2739,-5.2232,-5.1151,-5.0744,-4.9965,-4.9018,-4.9018,-4.9018,-4.9018,-4.9018,-4.9018,-4.9018,-4.9018,-4.9018,-4.9018,-4.9018,-4.9018,-4.8951,0.0,0.0,0.0,0.0,0.0,0.0,0.0,0.0,0.0,0.0,0.0,0.0,0.0,0.0,0.0,0.0,0.0,0.0,-5.4838,-5.462,-5.4839,-5.5598,-5.5598,-5.6219,-5.7529,-5.8564,-5.9288,-5.9771,-6.0289,-6.0565,-6.053,-5.7978,-5.6805,-5.6736,-5.5184,-5.4218,-5.3736,-5.3494,-5.3253,-5.3011,-5.3011,-5.3494,0.0,0.0,0.0,0.0,0.0,0.0,0.0,0.0,-5.3049,-5.2463,-5.1184,-5.0643,-5.0339,-4.9611,-4.924,-4.904,-4.8829,-4.8829,-4.8829,-4.8677,-4.8849,-4.9255,-5.0236,-5.0439,-5.0439,-5.0439,-5.0676,-5.0913,-5.1183,0.0,0.0,0.0,-5.2976,-5.3687,-5.416,-5.4262,-5.4532,-5.5277,-5.5344,-5.5344,-5.5344,-5.5108,-5.4735,-5.4296,-5.3991,-5.3754,-5.3518,-5.3518,-5.3518,-5.3518,-5.3518,-5.3518,-5.3518,-5.3518,-5.3112,-5.23,-5.2063,-5.1589,-5.0845,-5.0338,-4.9695,-4.9018,-4.9018,-4.9018,-4.9018,-4.9018,-4.9018,-4.9018,-4.9018,-4.9018,-4.9018,-4.9018,-4.9018,-4.8951,0.0,0.0,0.0,0.0,0.0,0.0,0.0,0.0,-5.8698,-5.8698,0.0,0.0,0.0,0.0,0.0,0.0,0.0,0.0,-5.4494,-5.4494,-5.4839,-5.5563,-5.5598,-5.5977,-5.6771,-5.8254,-5.9737,-6.1289,-6.1289,-6.0496,-5.8978,-5.7495,-5.6805,-5.6736,-5.5219,-5.4529,-5.4425,-5.3701,-5.2942,-5.2188,-5.2188,-5.2701,-5.3391,0.0,0.0,0.0,0.0,0.0,0.0,0.0,-5.22,-5.1055,-5.072,-5.0116,-4.9441,-4.926,-4.8685,-4.8078,-4.7932,-4.8022,-4.8078,-4.7932,-4.8477,-4.939,-5.0879,-5.1185,-5.1185,-5.1217,-5.0608,-5.0338,-5.1082,-5.1185,0.0,-5.2198,-5.2976,-5.3518,-5.3518,-5.3518,-5.3788,-5.4499,-5.4566,-5.4566,-5.4566,-5.5243,-5.5074,-5.3619,-5.416,-5.4262,-5.3551,-5.3518,-5.3518,-5.3484,-5.3518,-5.3484,-5.3484,-5.3484,-5.3078,-5.2266,-5.1555,-5.0845,-5.0101,-5.0101,-4.9695,-4.9018,-4.9018,-4.9018,-4.9018,-4.9018,-4.9018,-4.9018,-4.9018,-4.9018,-4.9018,-4.9018,-4.9018,-4.9018,0.0,0.0,0.0,0.0,0.0,0.0,0.0,0.0,-5.8656,-5.8572,-5.8513,0.0,0.0,0.0,0.0,0.0,0.0,0.0,-5.4529,-5.4494,-5.4598,-5.4839,-5.4839,-5.5184,-5.5943,-5.746,-5.8978,-6.053,-5.9978,-5.9185,-5.8219,-5.7253,-5.6495,-5.5977,-5.6081,-5.4908,-5.2877,-5.3253,-5.2632,-5.1459,-5.1459,-5.1908,-5.2632,0.0,0.0,0.0,0.0,0.0,0.0,0.0,0.0,0.0,-5.0103,-4.9731,-4.959,-4.929,-4.915,-4.904,-4.8829,-4.8455,-4.8214,-4.8575,-4.8849,-4.939,0.0,-5.0811,0.0,0.0,-5.1386,-5.1116,-5.186,-5.1961,0.0,-5.2266,-5.2976,-5.3518,-5.3518,-5.3518,-5.3585,-5.3788,-5.3822,-5.3822,-5.3822,-5.4025,-5.3991,-5.3551,-5.3687,-5.3721,-5.3518,-5.3518,-5.3247,-5.2672,-5.3213,-5.2976,-5.1894,-5.2401,-5.2029,-5.0744,-5.1082,-5.1116,-5.0845,-4.9796,-4.9492,-4.9729,-4.9221,-4.9289,-4.9763,-4.9763,-4.9763,-4.9729,-4.9187,-4.9018,-4.9018,-4.9018,-4.9018,-4.9018,0.0,0.0,0.0,0.0,0.0,0.0,0.0,0.0,-5.8593,-5.8465,-5.8209,-5.7771,0.0,0.0,0.0,0.0,0.0,0.0,0.0,-5.4494,-5.4494,-5.4494,-5.4494,-5.4874,-5.5598,-5.6529,-5.746,-5.8392,-5.8495,-5.8185,-5.746,-5.7012,-5.6702,-5.6529,-5.6702,-5.5426,-5.3149,-5.3322,-5.2528,-5.1149,-5.1425,-5.1774,-5.2291,0.0,0.0,0.0,0.0,0.0,0.0,0.0,0.0,0.0,-4.9607,-4.9441,-4.9471,-4.926,-4.8852,-4.8443,-4.8629,-4.8154,-4.7717,-4.8406,-4.9018,-4.9763,-5.0947,0.0,0.0,0.0,-5.2164,-5.1894,-5.2638,-5.2536,0.0,-5.2739,-5.3179,-5.3518,-5.3518,-5.3518,-5.3518,-5.3518,-5.3518,-5.3518,-5.3518,-5.3754,-5.3822,-5.3518,-5.3788,-5.3822,-5.3518,-5.3518,-5.3145,-5.2334,-5.2773,-5.2435,-5.1185,-5.1928,-5.1725,-5.0541,-5.1285,-5.1657,-5.1623,-5.0405,-4.9965,-5.0067,-4.9627,-4.9695,-5.0101,-5.0405,-5.0541,-5.0473,-5.0067,-4.9695,-4.9424,-4.9424,-4.9424,-4.9424,0.0,0.0,-5.8677,-5.8677,0.0,0.0,0.0,0.0,0.0,0.0,-5.7713,-5.7054,0.0,0.0,0.0,0.0,0.0,0.0,0.0,-5.4494,-5.4494,-5.4494,-5.4494,-5.4874,-5.5598,-5.5529,-5.5497,-5.5497,-5.6978,-5.7322,-5.6598,-5.6736,-5.7116,-5.7667,-5.7219,-5.6046,-5.4325,-5.377,-5.2528,-5.105,-5.1774,-5.205,-5.2084,-5.2946,0.0,0.0,0.0,0.0,0.0,0.0,0.0,0.0,-4.926,-4.9199,-4.9199,-4.9199,-4.8124,-4.7056,-4.78,-4.7428,-4.6989,-4.78,-4.912,-5.0405,-5.1217,-5.2503,-5.3484,-5.3416,0.0,-5.2638,-5.3382,-5.2909,-5.2638,-5.3382,-5.3518,-5.3518,-5.3518,-5.3518,-5.3518,-5.3518,-5.3518,-5.3518,-5.3518,-5.4093,-5.4228,-5.3551,-5.4126,-5.416,-5.345,-5.3382,-5.301,-5.2232,-5.2266,-5.1961,-5.1217,-5.1928,-5.1928,-5.1217,-5.1961,-5.23,-5.2266,-5.1555,-5.0845,-5.0202,-5.027,-5.0304,-5.0338,-5.1014,-5.1319,-5.1286,-5.1251,-5.0811,-5.0202,-5.0202,-5.0202,-5.0202,0.0,0.0,-5.8656,-5.8572,0.0,0.0,0.0,0.0,0.0,0.0,0.0,0.0,0.0,-5.5484,0.0,0.0,0.0,0.0,0.0,-5.4494,-5.4494,-5.4494,-5.4494,-5.4874,-5.5598,-5.5046,-5.4736,-5.4736,-5.5667,-5.5736,-5.5012,-5.6219,-5.6564,-5.6184,-5.7805,-5.6636,-5.3444,-5.4018,-5.2609,-5.0076,-5.0986,-5.0887,-5.042,-5.176,-5.1737,0.0,0.0,0.0,0.0,0.0,0.0,0.0,-4.926,-4.9199,-4.9168,-4.9077,-4.8406,-4.7834,-4.8578,-4.78,0.0,-4.8443,-4.9898,-5.1319,-5.2706,-5.3281,-5.3315,-5.2706,-5.2909,-5.3281,-5.3484,-5.3382,-5.3315,-5.3484,-5.3518,-5.3518,-5.3518,-5.3518,-5.3518,-5.3518,-5.3518,-5.3518,-5.3518,-5.3653,-5.3687,-5.3518,-5.3653,-5.3382,-5.2604,-5.257,-5.2232,-5.1488,-5.1995,-5.1961,-5.1217,-5.1928,-5.1928,-5.1217,-5.1961,-5.23,-5.2266,-5.1555,-5.1116,-5.1014,-5.1589,-5.1826,-5.1826,-5.1995,-5.2063,-5.2029,-5.1454,-5.1083,-5.098,-5.098,-5.098,-5.098,0.0,0.0,0.0,0.0,0.0,0.0,0.0,0.0,0.0,0.0,0.0,0.0,0.0,-5.5134,0.0,0.0,-5.4494,0.0,0.0,0.0,-5.4494,-5.4494,-5.4494,-5.4701,-5.5081,-5.4701,-5.4494,-5.4494,-5.4908,-5.5081,-5.5046,-5.6253,-5.6771,-5.6771,-5.8255,-5.6982,-5.3817,-5.4512,-5.3244,-5.0909,-5.2042,-5.1946,-5.1302,-5.2501,-5.1928,-5.0574,-5.0915,0.0,0.0,0.0,0.0,0.0,0.0,0.0,-4.9077,-4.9049,-4.8477,-4.8041,-4.8815,0.0,0.0,-4.9593,0.0,-5.1591,-5.3145,-5.3518,-5.3382,-5.2976,-5.3213,-5.3518,-5.3518,-5.3518,-5.3518,-5.3518,-5.3518,-5.3518,-5.3518,-5.3518,-5.3518,-5.3518,-5.3518,-5.3518,-5.3518,-5.3518,-5.3518,-5.3518,-5.3145,-5.2909,-5.2875,-5.2503,-5.2131,-5.1758,-5.2097,-5.1961,-5.1217,-5.1928,-5.2097,-5.1758,-5.2503,-5.2875,-5.2841,-5.2097,-5.1725,-5.1758,-5.2131,-5.23,-5.2334,-5.2706,-5.2638,-5.2266,-5.1894,-5.1522,-5.1185,-5.1185,-5.142,-5.1691,0.0,0.0,0.0,0.0,0.0,0.0,0.0,0.0,0.0,0.0,0.0,0.0,0.0,0.0,-5.4494,0.0,0.0,0.0,0.0,0.0,0.0,-5.4701,-5.4563,-5.4563,-5.4701,-5.4563,-5.4494,-5.4494,-5.4494,-5.4876,-5.5568,-5.636,-5.7082,-5.7736,-5.8325,-5.7088,-5.464,-5.4797,-5.3772,-5.2018,-5.3293,-5.3331,-5.2618,-5.3333,-5.2247,-5.0422,-5.0898,-5.0193,-4.9086,-4.9695,0.0,0.0,0.0,0.0,-4.9018,-4.9018,-4.8409,-4.7868,-4.8612,0.0,-4.8413,-5.0644,-5.1185,0.0,-5.3145,-5.3518,-5.3518,-5.3518,-5.3518,-5.3518,-5.3518,-5.3518,-5.3518,-5.3518,-5.3518,-5.3518,-5.3518,-5.3518,-5.3518,-5.3518,-5.3518,-5.3518,-5.3518,-5.3518,-5.345,-5.3315,-5.2807,-5.2672,-5.3078,-5.2604,-5.23,-5.23,-5.23,-5.2063,-5.1591,-5.2198,-5.2503,-5.2536,-5.3179,-5.3518,-5.3484,-5.2807,-5.2435,-5.23,-5.23,-5.2232,-5.2164,-5.2841,-5.2807,-5.23,-5.23,-5.1928,-5.142,-5.1555,-5.1826,-5.2029,0.0,0.0,0.0,0.0,0.0,0.0,0.0,0.0,0.0,0.0,-5.5484,-5.5194,0.0,0.0,0.0,-5.4494,-5.4494,-5.4494,-5.4494,0.0,0.0,-5.5426,-5.4839,-5.4805,-5.546,-5.4839,-5.4494,-5.4494,-5.4494,-5.4812,-5.5439,-5.6195,-5.6674,-5.6978,-5.7398,-5.6645,-5.4969,-5.4389,-5.313,-5.1636,-5.2584,-5.245,-5.1707,-5.1777,-5.1138,-5.0065,-4.9523,-4.9218,-4.9018,-4.912,-4.9086,0.0,0.0,0.0,-4.9018,-4.9018,-4.8037,-4.709,-4.7868,0.0,-4.8413,0.0,-5.1185,-5.1591,0.0,0.0,-5.3518,0.0,-5.3518,-5.3518,-5.3518,-5.3518,-5.3518,-5.3518,-5.3518,-5.3518,-5.3518,-5.3518,-5.3518,-5.3518,-5.3518,-5.3518,-5.3518,-5.3518,-5.3213,-5.2503,-5.301,-5.2807,-5.1589,-5.2029,-5.23,-5.23,-5.23,-5.2604,-5.3179,-5.3281,-5.3348,-5.3348,-5.345,-5.3518,-5.3518,-5.3382,-5.2976,-5.23,-5.23,-5.1961,-5.1386,-5.1455,-5.1826,-5.23,-5.23,-5.2232,-5.2232,-5.2942,-5.2435,-5.1352,0.0,0.0,0.0,0.0,0.0,0.0,0.0,0.0,0.0,0.0,0.0,-5.4772,0.0,0.0,0.0,-5.4494,-5.4494,-5.4494,-5.4494,-5.4494,-5.4667,-5.4977,-5.4667,-5.4667,-5.4977,-5.4667,-5.4494,-5.4494,-5.4494,-5.4844,-5.5537,-5.6061,-5.6576,-5.7089,-5.7295,-5.6543,-5.504,-5.4566,-5.3479,-5.2153,-5.2393,-5.2292,-5.1922,-5.1483,-5.0807,-5.0067,-4.9729,-4.9357,-4.9018,-4.9018,-4.9018,-4.9018,-4.9018,0.0,0.0,0.0,-4.824,-4.7496,-4.7804,-4.8206,-4.8849,0.0,-5.0574,-5.0879,-5.1961,-5.2536,-5.2706,-5.23,-5.2536,-5.2976,-5.3416,-5.3518,-5.3348,-5.2909,-5.2841,-5.2672,-5.2266,-5.2232,-5.2367,-5.2773,-5.2841,-5.301,-5.345,-5.3518,-5.3348,-5.301,-5.2875,-5.2739,-5.2503,-5.2367,-5.2503,-5.2976,-5.2976,-5.3145,-5.3518,-5.3518,-5.3518,-5.3518,-5.3518,-5.3518,-5.3518,-5.3518,-5.3315,-5.2942,-5.2503,-5.2131,-5.1792,-5.1386,-5.115,-5.1048,-5.1048,-5.1319,-5.1691,-5.1623,-5.142,-5.105,0.0,0.0,0.0,0.0,0.0,0.0,0.0,0.0,0.0,0.0,0.0,0.0,0.0,0.0,0.0,0.0,-5.4494,-5.4494,-5.4494,-5.4494,-5.4494,-5.4494,-5.4494,-5.4494,-5.4494,-5.4494,-5.4494,-5.4494,-5.4494,-5.481,-5.547,-5.5823,-5.6406,-5.7189,-5.7223,-5.6542,-5.528,-5.4805,-5.4025,-5.3041,-5.2502,-5.23,-5.2198,-5.1285,-5.0574,-5.0067,-4.9864,-4.9458,-4.9018,-4.9018,-4.9018,-4.9018,-4.9018,-4.9018,0.0,0.0,0.0,0.0,0.0,0.0,-4.8646,-4.9593,-4.9965,-5.027,0.0,0.0,-5.186,0.0,-5.1657,-5.2198,-5.2807,-5.2942,-5.2739,-5.2131,-5.2029,-5.1894,-5.1555,-5.1488,-5.1758,-5.2536,-5.2604,-5.2841,-5.345,-5.3518,-5.3416,-5.3213,-5.2841,-5.2773,-5.3179,-5.2807,-5.2875,-5.3484,-5.3518,-5.3518,-5.3518,-5.3518,-5.3416,-5.3213,-5.3213,-5.3213,-5.3179,-5.301,-5.3044,-5.3145,-5.2367,-5.1928,-5.1691,-5.0947,-5.0338,-4.983,-5.0033,-5.0304,-5.0642,-5.0439,-5.0371,-5.0204,0.0,0.0,0.0,0.0,0.0,0.0,0.0,0.0,0.0,0.0,0.0,0.0,-5.4494,-5.4494,-5.4494,-5.4494,-5.4494,-5.4494,-5.4494,-5.4494,-5.4494,-5.4494,-5.4494,0.0,-5.4494,-5.4494,-5.4494,-5.4494,-5.4494,-5.4716,-5.5108,-5.5342,-5.5928,-5.6835,-5.6835,-5.6501,-5.5893,-5.4974,-5.4532,-5.4397,-5.2875,-5.23,-5.2131,-5.071,-5.0135,-4.9999,-4.9323,-4.9052,-4.9018,-4.9018,-4.9018,-4.9018,-4.9018,-4.9018,-4.9018,0.0,0.0,0.0,0.0,-4.6346,0.0,-4.8714,-4.9593,0.0,0.0,0.0,-5.1219,-5.1217,-5.1219,-5.1252,-5.1319,-5.132,-5.1319,-5.1252,-5.1285,-5.1488,-5.2164,-5.2232,-5.2536,-5.3348,-5.345,-5.345,-5.3518,-5.3518,-5.3179,-5.2435,-5.3044,-5.3112,-5.2401,-5.3044,-5.345,-5.3518,-5.3518,-5.3518,-5.3518,-5.3518,-5.3112,-5.2367,-5.2367,-5.2367,-5.2334,-5.1657,-5.1725,-5.2334,-5.1589,-5.0879,-5.0135,-4.9424,-4.9086,-4.912,-4.983,-4.9695,-4.9289,-5.0642,-4.9864,-4.8142,0.0,0.0,0.0,0.0,0.0,0.0,0.0,0.0,0.0,0.0,0.0,0.0,0.0,-5.4494,-5.4494,-5.4494,-5.4494,-5.4494,-5.4494,-5.4494,-5.4494,-5.4494,-5.4494,-5.4494,-5.4494,-5.4494,-5.4494,-5.4494,-5.4494,-5.478,-5.5308,-5.5242,-5.5587,-5.6265,-5.579,-5.5687,-5.572,-5.4431,-5.389,-5.3754,-5.2232,-5.1589,-5.1454,-4.9965,-4.939,-4.9289,-4.8578,-4.8917,-4.956,-4.8612,-4.8917,-4.9627,-4.9154,-4.868,-4.8139,-4.7158,-4.7192,0.0,0.0,0.0,0.0,-4.8274,-4.8849,-4.9458,-4.9729,-5.0168,-5.0371,-4.9898,-5.0168,-5.0338,-4.9898,-5.0574,-5.1048,-5.0574,-5.0473,-5.0574,-5.0845,-5.0879,-5.1352,-5.257,-5.2739,-5.2942,-5.345,-5.3518,-5.3382,-5.3078,-5.3348,-5.3382,-5.3078,-5.3348,-5.3518,-5.3518,-5.3518,-5.3518,-5.3518,-5.3518,-5.3112,-5.23,-5.23,-5.2063,-5.1589,-5.132,-5.132,-5.1555,-5.0811,-5.0338,-4.9965,-4.8274,-4.7868,-4.8274,-4.8071,-4.8409,-4.9018,-4.9086,-4.8852,-4.8511,0.0,0.0,0.0,-5.5955,0.0,-5.5519,-5.4896,-5.4803,-5.4745,-5.4526,0.0,0.0,0.0,0.0,-5.4494,-5.4494,-5.4494,-5.4494,-5.4494,-5.4494,-5.4494,-5.4494,-5.4494,-5.4494,-5.4494,-5.4736,-5.477,-5.4494,-5.4707,-5.4853,-5.4931,-5.446,-5.4702,-5.5484,-5.4228,-5.4398,-5.5649,-5.4668,-5.4093,-5.3721,-5.1928,-5.1352,-5.1454,-5.0202,-4.9763,-4.9695,-4.9156,-4.9492,-4.9864,-4.8409,-4.8578,-4.9289,-4.8781,-4.8277,-4.7601,-4.6143,-4.6583,0.0,-4.5737,0.0,0.0,0.0,0.0,-4.8342,-4.8578,0.0,-4.9221,-4.8748,-4.9221,-4.9593,-4.9086,-4.9796,-5.0304,-4.9796,-4.9729,-4.9898,-5.0405,-5.0473,-5.1014,-5.2536,-5.2706,-5.2909,-5.345,-5.3518,-5.3518,-5.3518,-5.3518,0.0,-5.3518,-5.3518,-5.3518,-5.3518,-5.3247,-5.3112,-5.3112,-5.2841,-5.2334,-5.1555,-5.1555,-5.1285,-5.0845,-5.0574,-5.0744,-5.115,-4.9627,-4.9255,-4.9593,-4.7868,-4.7192,-4.7158,-4.6887,-4.7394,-4.824,-4.8003,-4.8071,-4.8173,-5.3681,-5.4417,-5.5089,-5.5089,-5.574,-5.6055,-5.549,-5.5373,-5.5164,-5.4589,0.0,0.0,0.0,0.0,0.0,-5.4494,-5.4494,-5.4494,-5.4494,-5.4494,-5.4494,-5.4494,-5.4494,-5.4494,-5.4494,-5.5152,-5.5187,-5.446,-5.506,-5.4897,-5.398,-5.3034,-5.3312,-5.4465,-5.2266,-5.2875,-5.5614,-5.558,-5.5209,-5.4397,-5.2164,-5.1657,-5.2232,-5.1488,-5.1151,-5.1117,-5.1083,-5.0676,-4.9864,-4.8409,-4.7939,-4.7973,-4.7939,-4.7906,-4.7567,-4.6143,-4.621,0.0,0.0,0.0,0.0,0.0,0.0,0.0,-4.7703,0.0,-4.7872,-4.7906,-4.8477,-4.8984,-4.9018,-4.9018,-4.9018,-4.9018,-4.9018,-4.9526,-5.0948,-5.1217,-5.1792,-5.3281,-5.3484,-5.3518,-5.3518,-5.3518,-5.3484,-5.3484,-5.3484,-5.3484,-5.3484,-5.3484,-5.3484,-5.3484,-5.2706,-5.2266,-5.2232,-5.1522,-5.0777,-5.0033,-5.0067,-5.0067,-4.9999,-4.9323,-4.9796,-5.0914,-4.8071,-4.7631,-4.8849,-4.8139,-4.6989,-4.5771,-4.6447,-4.6752,-4.6887,-4.7597,-4.7428,-4.7022,-5.3046,-5.3807,-5.4458,-5.4458,-5.4758,-5.4957,-5.4772,-5.4776,-5.4714,0.0,0.0,0.0,-5.4494,-5.4494,-5.4494,-5.4494,-5.4494,-5.4494,-5.4494,-5.4494,-5.4494,-5.4494,-5.4367,-5.4095,-5.3736,-5.4171,-5.4139,-5.3479,-5.4074,-5.4185,-5.3749,-5.2969,-5.3041,-5.3788,-5.3145,-5.3348,-5.4093,-5.3484,-5.3754,-5.4431,-5.2706,-5.2131,-5.2164,-5.0879,-5.0067,-4.956,-4.8987,-4.939,-4.9864,-4.8409,-4.8954,-5.0101,-4.9052,-4.797,-4.6921,-4.5974,-4.5838,0.0,-4.55,0.0,0.0,0.0,0.0,0.0,-4.7056,-4.709,-4.7259,-4.777,-4.8041,-4.8376,-4.8917,-4.9018,-4.9018,-4.9018,-4.9018,-4.9323,-5.027,-5.0879,-5.1589,-5.2536,-5.3145,-5.3518,-5.3518,-5.3518,-5.3281,0.0,-5.3179,-5.3247,-5.2672,-5.3179,-5.3247,-5.2638,-5.1928,-5.1251,-5.071,-4.9965,-4.9255,-4.8545,-4.9052,-4.9018,-4.8545,-4.8849,-4.8951,-4.8751,-4.7939,-4.7225,-4.6549,-4.5805,-4.5602,-4.5669,-4.5331,-4.5867,-4.6819,-4.7022,-4.7327,-4.7665,-5.197,-5.272,-5.3375,-5.3375,-5.3983,-5.4494,-5.4494,-5.4253,-5.4149,0.0,0.0,0.0,-5.4494,-5.4494,-5.4494,-5.4494,-5.4494,-5.4325,-5.3952,-5.3917,-5.3748,-5.3376,-5.3281,-5.3043,-5.2757,-5.3562,-5.3669,-5.3012,-5.3946,-5.4123,-5.3683,-5.2531,-5.2398,-5.2976,-5.2029,-5.1961,-5.2503,-5.1725,-5.2435,-5.3991,-5.2469,-5.2029,-5.2164,-5.1014,-5.0304,-4.9864,-4.9427,-5.0033,-5.071,-4.8612,-4.8984,-4.9999,-4.8206,-4.7665,-4.7462,-4.6109,-4.6143,0.0,0.0,0.0,0.0,0.0,0.0,0.0,-4.6278,-4.6346,-4.6447,0.0,-4.7225,-4.7564,-4.8003,-4.8342,-4.8545,-4.8545,-4.8815,-4.9255,-4.9999,-5.0473,-5.1014,-5.1758,-5.2266,-5.2536,-5.2536,-5.2536,-5.2367,-5.1894,-5.23,-5.2334,-5.186,-5.23,-5.2198,-5.142,-5.0676,-4.9932,-4.9187,-4.8443,-4.7868,-4.7462,-4.7868,-4.7868,-4.7462,-4.7902,-4.8037,-4.7872,-4.7229,-4.6684,-4.6075,-4.5055,-4.4852,-4.5196,-4.4784,-4.5297,-4.6346,-4.6346,-4.6616,-4.709,0.0,-5.1431,-5.2084,-5.2188,-5.3425,-5.4425,-5.4494,-5.3942,-5.377,0.0,-5.3942,-5.377,-5.4425,-5.4494,-5.446,-5.4359,-5.4359,-5.3952,-5.3038,-5.2969,-5.2598,-5.1856,-5.1791,-5.1757,-5.1654,-5.3024,-5.3333,-5.2616,-5.3885,-5.4092,-5.3412,-5.1824,-5.1454,-5.1961,-4.9999,-4.9864,-5.1048,-5.0541,-5.1454,-5.3145,-5.1758,-5.1657,-5.2198,-5.1386,-5.1048,-5.0948,-5.0948,-5.1386,-5.1522,-4.8917,-4.8409,-4.8545,-4.665,-4.7259,-4.8274,-4.6481,-4.6786,0.0,0.0,0.0,0.0,-4.6887,-4.5872,0.0,-4.5568,-4.5703,-4.5737,-4.5805,-4.6346,-4.6819,-4.6921,-4.753,-4.797,-4.7804,-4.8477,-4.9221,-4.9864,-5.0033,-5.0338,-5.1014,-5.1151,-5.1185,-5.1185,-5.1185,-5.1183,-5.105,-5.1082,-5.1082,-5.1082,-5.1082,-5.071,-4.9864,-4.9154,-4.8409,-4.7635,-4.6921,-4.6549,-4.6549,-4.6616,-4.6684,-4.6684,-4.6752,-4.7124,-4.7567,-4.6278,-4.6041,-4.6447,-4.5156,-4.4615,-4.4615,-4.4615,-4.5026,-4.5703,-4.5703,-4.5771,-4.6007,-5.0149,-5.0759,-5.1498,-5.2084,-5.2977,-5.3804,-5.4425,-5.4391,-5.4356,-5.4494,-5.4391,-5.4356,-5.4494,-5.4494,-5.419,-5.3444,-5.3376,-5.3004,-5.2093,-5.2059,-5.1959,-5.1822,-5.1631,-5.1327,-5.0834,-5.1439,-5.1446,-5.089,-5.1583,-5.1825,-5.1656,-5.0775,-5.0371,-5.0507,-5.0067,-5.0033,-5.0371,-5.142,-5.1792,-5.1623,-5.132,-5.1657,-5.2164,-5.0811,-4.9965,-4.9424,-4.9424,-4.9526,-4.956,-4.8984,-4.8511,-4.8142,-4.8308,-4.7428,-4.6515,-4.7259,0.0,0.0,0.0,0.0,0.0,-4.7564,-4.7022,0.0,-4.5805,-4.5703,-4.5872,0.0,-4.6684,-4.6989,-4.7597,-4.8308,-4.8409,-4.7192,-4.8139,-4.9052,-4.9187,-4.9729,-5.0135,-5.0304,-5.0845,-5.1185,-5.1185,-5.1185,-5.0947,-5.0338,-5.0304,-5.0304,-5.0304,-5.0304,-4.9695,-4.8376,-4.7597,-4.6887,-4.6143,-4.5399,-4.5021,-4.5055,-4.5635,-4.5906,-4.594,-4.6515,-4.6549,-4.6109,-4.5838,-4.5432,-4.5021,-4.4716,-4.4615,-4.4615,-4.4615,-4.5026,-4.5703,-4.5703,-4.6075,-4.6718,-5.0011,-5.0597,-5.1326,-5.205,-5.2873,-5.3667,-5.4391,-5.4184,-5.408,-5.446,-5.4494,-5.4325,-5.3851,-5.3782,-5.3444,-5.2532,-5.2464,0.0,0.0,-5.1086,-5.0884,-5.0416,-5.0323,-5.0119,-4.9807,-5.0365,-5.0505,-5.0227,-5.0877,-5.1185,-5.1151,-5.0439,-5.0101,-5.0067,-4.9729,-4.956,-4.9593,-4.9952,-5.0522,-5.1185,-5.1185,-5.1217,-5.1082,-4.9965,-4.9323,-4.9018,-4.9018,-4.9018,-4.9018,-4.9018,-4.9255,0.0,-4.824,-4.8139,-4.8376,0.0,-4.7665,-4.7428,0.0,0.0,0.0,-4.7804,-4.7361,0.0,0.0,-4.5703,-4.5805,-4.6177,-4.594,-4.5906,-4.6684,-4.7124,-4.7225,-4.6853,-4.7428,-4.8173,-4.8917,-4.9323,-4.956,-4.956,-4.9898,-5.0101,-5.0101,-5.0101,-4.9965,-4.9593,-4.956,-4.939,-4.9018,-4.9018,-4.8342,-4.6853,-4.6447,-4.5906,-4.5162,-4.4784,-4.4615,-4.4615,-4.4959,-4.5128,-4.5162,-4.5534,-4.55,-4.5128,-4.5128,-4.4925,-4.4615,-4.4615,-4.4615,-4.4615,-4.4615,-4.4852,-4.5128,-4.5128,-4.5602,-4.6346,-5.0011,-5.0493,-5.1183,-5.205,-5.2735,-5.3494,-5.4356,-5.3873,-5.3563,-5.3949,-5.4049,-5.3745,-5.2935,-5.2866,-5.2529,-5.1589,-5.152,0.0,-5.0184,-5.015,-4.9817,-4.9018,-4.9018,-4.9018,-4.9018,-4.9593,-4.9864,-4.9864,-5.0473,-5.0777,-5.0777,-5.0168,-4.9864,-4.9864,-4.9255,-4.9086,-4.9159,-4.8393,-4.9223,-5.0982,-5.0819,-5.0649,-5.0439,-4.956,-4.9221,-4.9187,-4.9052,-4.9018,-4.9018,-4.9018,-4.9796,-5.0405,-4.8139,-4.8883,0.0,0.0,0.0,0.0,0.0,0.0,0.0,0.0,0.0,-4.6989,0.0,0.0,0.0,0.0,0.0,0.0,0.0,0.0,0.0,0.0,0.0,0.0,0.0,-4.8714,0.0,-4.8984,-4.8748,-4.868,-4.8984,-4.9018,-4.9018,-4.9018,-4.9018,-4.8612,-4.7767,-4.7669,-4.7022,-4.5534,-4.55,-4.5196,-4.4615,-4.4615,-4.4615,-4.4615,-4.4615,-4.4615,-4.4615,-4.4615,-4.4615,-4.4615,-4.4615,-4.4615,-4.4615,-4.4615,-4.4615,-4.4615,-4.4615,-4.4615,-4.4615,-4.4615,-4.506,-4.5805,-5.0011,-5.008,-5.0562,-5.1946,-5.2257,-5.2839,-5.4287,-5.3873,-5.3122,-5.2379,-5.2402,-5.2337,-5.199,-5.2049,-5.1679,-5.0652,-5.0552,-5.015,-4.9218,-4.9151,-4.9086,-4.9018,-4.9018,-4.9018,-4.9018,-4.9086,-4.912,-4.912,-4.9221,-4.9255,-4.9255,-4.9154,-4.912,-4.912,-4.9052,-4.9357,-4.9934,-4.9193,-4.9424,-5.0171,-4.9525,-5.0359,-5.1894,-5.0507,-4.9965,-4.9898,-4.9221,-4.9018,-4.9018,0.0,-4.912,-4.9323,0.0,-4.9052,-4.848,-4.9526,0.0,0.0,0.0,0.0,0.0,0.0,-4.9289,-4.8376,0.0,0.0,-4.6684,-4.6684,0.0,0.0,0.0,0.0,0.0,0.0,0.0,0.0,-4.7022,-4.7631,-4.8274,-4.8917,-4.7834,-4.7564,-4.8883,-4.9018,-4.9018,-4.9018,-4.9018,-4.8376,-4.6989,-4.6921,-4.6244,-4.4784,-4.4716,-4.4682,-4.4615,-4.4615,-4.4615,-4.4615,-4.4615,-4.4615,-4.4615,-4.4615,-4.4615,-4.4615,-4.4615,-4.4615,-4.4615,-4.4615,-4.4615,-4.4615,-4.4615,-4.4615,-4.4615,-4.4615,-4.506,-4.5805,-4.9907,-5.0011,-5.0321,-5.139,-5.1563,-5.1942,-5.298,-5.2815,-5.2413,-5.195,-5.1912,-5.1713,-5.1052,-5.1049,-5.068,-4.965,-4.9585,-4.9419,-4.9018,-4.9018,-4.9018,-4.9018,-4.9018,-4.9018,-4.9018,-4.9018,-4.9018,-4.9018,-4.9018,-4.9018,-4.8984,0.0,-4.8555,-4.8924,-4.81,-4.81,-4.8726,-4.7969,-4.8109,-4.8827,-4.8913,-4.9508,-5.0318,-4.9714,-4.9458,-4.9424,-4.912,-4.9018,-4.8951,0.0,-4.9221,0.0,0.0,0.0,0.0,-5.0168,0.0,0.0,0.0,0.0,0.0,0.0,0.0,0.0,-4.7699,0.0,-4.7327,0.0,0.0,0.0,0.0,0.0,0.0,0.0,-4.6041,0.0,0.0,0.0,-4.6752,0.0,0.0,0.0,-4.8342,0.0,0.0,-4.7767,-4.8511,-4.8376,-4.6887,-4.6786,-4.6312,-4.5263,-4.4818,-4.4615,-4.4615,-4.4615,-4.4615,-4.4615,-4.4615,-4.4615,-4.4615,-4.4615,-4.4615,-4.4615,-4.4615,-4.4615,-4.4615,-4.4615,-4.4615,-4.4615,-4.4615,-4.4615,-4.4615,-4.4615,-4.506,-4.5805,-4.9562,-4.9873,-5.0252,-5.0976,-5.1114,-5.1257,-5.1778,-5.1695,-5.1504,-5.1114,-5.1145,-5.0878,-5.0116,-5.0048,-4.978,-4.9052,-4.9018,-4.9018,-4.9018,-4.9018,-4.9018,-4.9018,-4.9018,-4.9018,-4.9018,-4.9018,-4.9018,-4.9018,-4.8798,-4.8704,-4.8671,0.0,0.0,0.0,-4.7456,-4.7343,-4.7758,-4.7002,-4.7148,-4.7899,-4.7974,-4.8171,-4.8429,-4.863,-4.8553,-4.8386,-4.8386,-4.8513,-4.8637,-4.8334,-4.9403,0.0,-4.9036,-4.9976,-5.1455,0.0,0.0,0.0,-5.0033,0.0,0.0,0.0,0.0,0.0,0.0,0.0,0.0,0.0,0.0,0.0,0.0,0.0,0.0,0.0,0.0,-4.6447,0.0,0.0,0.0,0.0,0.0,0.0,0.0,0.0,-4.7902,-4.7158,-4.8105,-4.8071,-4.6583,-4.6481,-4.6143,-4.5432,-4.4857,-4.4615,-4.4615,-4.4615,-4.4615,-4.4615,-4.4615,-4.4615,-4.4615,-4.4615,-4.4615,-4.4615,-4.4615,-4.4615,-4.4615,-4.4615,-4.4615,-4.4615,-4.4615,-4.4716,-4.4857,-4.4682,-4.4925,-4.55,-4.881,-4.9493,-5.0252,-5.0976,-5.1114,-5.1055,-5.097,-5.0754,-5.0328,-4.9399,-4.9449,-4.9419,-4.9083,-4.9141,-4.9172,-4.9018,-4.9018,-4.9018,-4.9018,-4.9018,-4.9018,-4.9018,-4.9018,-4.9018,-4.9018,-4.9018,-4.9018,-4.9018,-4.8257,-4.7934,-4.7934,-4.7171,0.0,0.0,-4.7505,-4.7796,-4.7864,-4.7039,-4.7148,-4.7799,-4.6375,-4.6227,-4.6957,0.0,-4.7515,-4.6896,-4.6896,0.0,0.0,-4.873,-4.9489,0.0,0.0,0.0,0.0,0.0,0.0,0.0,0.0,0.0,0.0,-4.9864,0.0,0.0,0.0,0.0,-4.7872,0.0,0.0,0.0,0.0,0.0,0.0,0.0,0.0,0.0,0.0,0.0,0.0,0.0,0.0,0.0,0.0,-4.8545,-4.868,-4.7906,-4.7906,-4.7263,-4.5805,-4.5737,-4.5399,-4.4682,-4.4615,-4.4615,-4.4615,-4.4615,-4.4615,-4.4615,-4.4615,-4.4615,-4.4615,-4.4615,-4.4615,-4.4615,-4.4615,-4.4615,-4.4615,-4.4615,-4.4615,-4.4615,-4.4615,-4.5026,-4.5568,-4.4857,-4.4615,-4.475,-4.8706,-4.9459,-5.005,-5.014,-5.0145,-5.0056,-4.985,-4.9725,-4.9702,-4.9788,-4.982,-5.0023,-5.0405,-5.0505,-5.0505,-5.0473,-4.9999,-4.9729,-4.9729,-4.9255,-4.9018,-4.9018,-4.9018,-4.9018,-4.9018,-4.9018,-4.8767,-4.8257,-4.8032,-4.7638,-4.7137,-4.6445,-4.6311,0.0,-4.6459,-4.6366,-4.6398,-4.6562,-4.6289,0.0,0.0,-4.5688,-4.6797,0.0,-4.7022,-4.6828,-4.6828,-4.6932,0.0,-4.7464,-4.8027,-4.866,-4.8663,-4.8993,-4.9319,-4.906,-4.8995,-4.9058,0.0,0.0,-4.9052,-4.9323,0.0,0.0,0.0,0.0,0.0,0.0,0.0,0.0,0.0,0.0,0.0,0.0,0.0,0.0,0.0,0.0,0.0,0.0,0.0,0.0,0.0,0.0,0.0,-4.6481,-4.6447,-4.6447,-4.6413,-4.5974,-4.5805,-4.6041,-4.5122,-4.4615,-4.4615,-4.4615,-4.4615,-4.4615,-4.4615,-4.4615,-4.4615,-4.4615,-4.4615,-4.4615,-4.4615,-4.4615,-4.4615,-4.4615,-4.4615,-4.4615,-4.4615,-4.5026,-4.5669,-4.5432,-4.5331,-4.5432,-4.7842,-4.8908,-4.9698,-4.9365,-4.9208,-4.9163,-4.9195,-4.9372,-4.9684,-5.0065,-5.0338,-5.0676,-5.1151,-5.1185,-5.1185,-5.1185,-5.0777,-5.0371,-5.0101,-4.9661,-4.9255,-4.9018,-4.9018,-4.9018,-4.9018,-4.8767,-4.8386,-4.7901,-4.7372,-4.6864,-4.6378,-4.566,-4.542,-4.5603,-4.5572,-4.5311,-4.4941,-4.5865,-4.5588,0.0,0.0,-4.5315,0.0,0.0,-4.6307,-4.6653,0.0,-4.6358,-4.6731,-4.6474,-4.691,-4.7515,-4.7503,-4.8028,-4.858,-4.8293,-4.8397,-4.8597,-4.8597,-4.8592,0.0,-4.8923,-4.9018,0.0,-4.9018,0.0,-4.8883,0.0,0.0,0.0,0.0,0.0,0.0,0.0,0.0,0.0,0.0,-4.7192,0.0,0.0,0.0,0.0,0.0,0.0,-4.6177,-4.5365,-4.5568,-4.5805,0.0,0.0,-4.5635,-4.638,-4.5258,-4.4615,-4.4615,-4.4615,-4.4615,-4.4615,-4.4615,-4.4615,-4.4615,-4.4615,-4.4615,-4.4615,-4.4615,-4.4615,-4.4615,-4.4615,-4.4615,-4.4615,-4.4615,-4.5196,-4.6075,-4.5805,-4.5703,-4.5838,-4.6458,-4.7899,-4.9257,-4.8689,-4.8314,-4.8345,-4.9097,-4.9721,-5.0101,-5.0135,-5.0811,-5.1252,-5.1319,-5.1319,-5.1319,-5.1319,-5.1285,-5.098,-5.0236,-5.0135,-4.9796,-4.9086,-4.9018,-4.9018,-4.9018,0.0,0.0,0.0,0.0,-4.566,-4.5624,-4.4918,-4.4271,-4.3716,-4.5041,-4.4887,-4.3685,-4.5041,-4.5187,-4.461,-4.461,-4.4972,-4.5526,-4.4918,-4.5434,-4.6419,-4.5064,-4.5466,-4.6539,-4.5845,-4.6127,-4.6756,-4.6759,-4.7204,-4.7605,-4.6967,-4.7272,-4.7836,-4.7901,-4.7934,-4.8129,-4.8829,-4.9018,0.0,0.0,0.0,-4.9018,0.0,0.0,0.0,0.0,0.0,0.0,0.0,0.0,0.0,0.0,0.0,0.0,0.0,0.0,0.0,0.0,-4.7804,-4.6853,-4.4784,-4.5196,-4.5297,0.0,0.0,-4.4993,-4.5737,-4.4993,-4.4615,-4.4615,-4.4615,-4.4615,-4.4615,-4.4615,-4.4615,-4.4615,-4.4615,-4.4615,-4.4615,-4.4615,-4.4615,-4.4615,-4.4615,-4.4615,-4.4615,-4.4615,-4.5495,-4.6718,-4.6041,-4.5805,-4.6007,-4.7011,-4.7744,-4.8435,-4.826,-4.8048,-4.8199,-4.8944,-4.9658,-5.0304,-5.0845,-5.1555,-5.2266,-5.2841,-5.2909,-5.2909,-5.2909,-5.2367,-5.1928,-5.1758,0.0,0.0,-4.983,-4.9289,-4.9018,-4.9018,-4.8257,-4.7605,-4.7069,0.0,-4.5405,-4.4874,-4.4685,-4.4517,0.0,0.0,-4.4887,-4.3685,-4.5041,-4.5187,-4.461,-4.461,-4.4972,-4.5557,0.0,-4.5865,-4.6419,-4.5064,-4.5156,-4.5773,-4.5129,-4.5335,-4.5909,-4.5963,-4.5733,-4.5624,-4.6518,-4.6932,-4.7204,-4.7737,-4.8289,-4.8767,-4.8923,-4.9018,-4.9018,0.0,0.0,0.0,0.0,0.0,0.0,0.0,0.0,0.0,0.0,0.0,0.0,0.0,0.0,0.0,-4.8646,0.0,0.0,-4.7872,-4.6413,-4.5196,-4.4649,-4.4215,-4.4418,-4.5365,0.0,0.0,-4.6481,-4.5292,-4.4615,-4.4615,-4.4615,-4.4615,-4.4615,-4.4615,-4.4615,-4.4615,-4.4615,-4.4615,-4.4615,-4.4615,-4.4615,-4.4615,-4.4615,-4.4615,-4.4615,-4.4615,-4.5495,-4.6819,-4.7225,-4.7331,-4.7297,-4.6606,-4.6821,-4.7272,-4.7886,-4.7691,-4.7902,-4.9255,-4.956,-4.9999,-5.105,-5.186,-5.2469,-5.2942,-5.3281,-5.3518,-5.3518,-5.3078,0.0,-5.2334,0.0,0.0,-5.0101,-4.939,-4.9018,-4.9018,-4.7957,0.0,-4.6828,0.0,-4.5008,-4.461,-4.461,0.0,0.0,0.0,-4.4579,-4.3655,-4.4425,-4.4517,-4.4178,-4.4178,-4.4579,0.0,-4.5157,-4.5557,-4.6018,-4.501,-4.5041,-4.5495,-4.4856,-4.4856,-4.5217,-4.5568,-4.5405,-4.5253,-4.6092,-4.634,-4.6448,-4.7204,-4.7737,-4.8194,-4.8829,-4.9018,-4.9018,-4.9018,-4.9018,-4.9018,0.0,-4.868,-4.8308,0.0,0.0,0.0,0.0,0.0,0.0,0.0,0.0,0.0,0.0,-4.8071,-4.7665,-4.7462,-4.5399,-4.4215,-4.4581,-4.4181,-4.4316,0.0,0.0,0.0,-4.6312,-4.55,-4.506,-4.506,-4.506,-4.4919,-4.4615,-4.4615,-4.4615,-4.4615,-4.4615,-4.4615,-4.4615,-4.4615,-4.4615,-4.4615,-4.4615,-4.4615,-4.4682,-4.5326,-4.6041,-4.6921,-4.8003,-4.8206,-4.7872,-4.5703,-4.5703,-4.621,-4.7398,-4.7259,-4.7665,-4.9763,-4.9627,-4.9796,-5.1183,-5.1995,-5.2469,-5.2469,-5.3078,-5.3518,-5.3518,-5.3518,-5.3213,-5.2503,-5.1691,-5.0913,-5.027,-4.9458,-4.8951,-4.8849,-4.7523,-4.675,0.0,-4.5288,-4.4596,-4.461,-4.461,0.0,0.0,0.0,0.0,0.0,-4.3501,-4.3531,-4.3593,-4.3593,-4.4024,-4.4641,-4.4702,-4.5033,-4.5372,-4.488,-4.5133,-4.5495,-4.4856,-4.4671,-4.4847,-4.5363,-4.5551,-4.5551,-4.566,-4.576,-4.5968,-4.662,-4.7026,-4.75,-4.858,-4.9092,-4.9255,-4.9052,-4.9086,-4.9154,-4.9154,-4.8984,-4.8511,0.0,0.0,0.0,0.0,0.0,0.0,0.0,0.0,0.0,0.0,0.0,0.0,-4.7056,-4.506,-4.4113,-4.4716,-4.4852,0.0,0.0,0.0,0.0,-4.5703,-4.5703,-4.5703,-4.5703,0.0,-4.5365,-4.475,-4.4649,-4.4615,-4.4615,-4.4615,-4.4615,-4.4615,-4.4615,-4.4615,-4.4615,-4.4716,-4.475,-4.4886,-4.6244,-4.6786,-4.6955,-4.8342,-4.8511,-4.8139,-4.4953,-4.5771,-4.6481,-4.6143,-4.6989,-4.8274,-4.983,-5.0507,-5.115,-5.1995,-5.2807,-5.3281,-5.3281,-5.3416,-5.3518,-5.3518,-5.3518,0.0,0.0,0.0,0.0,-5.1014,-4.9729,-4.8714,-4.8139,-4.7224,-4.652,-4.5887,-4.4999,-4.4596,-4.461,-4.461,0.0,0.0,0.0,0.0,-4.3562,-4.3002,0.0,-4.3593,-4.3593,-4.4024,-4.4671,-4.5187,-4.5126,-4.4818,-4.5249,-4.5495,-4.5495,-4.4856,-4.4979,-4.5349,-4.4946,-4.4799,-4.488,-4.5515,-4.6108,-4.657,-4.6749,-4.8086,-4.9223,-4.833,-4.9451,-5.0507,-4.9289,-4.9458,-4.9898,-4.9898,-4.8951,-4.8409,-4.9357,0.0,0.0,0.0,0.0,0.0,0.0,0.0,0.0,0.0,0.0,-4.665,0.0,-4.6819,-4.6007,-4.5534,0.0,0.0,0.0,0.0,0.0,0.0,-4.5703,0.0,0.0,0.0,-4.5635,-4.55,-4.4886,-4.4615,-4.4615,-4.4615,-4.4615,-4.4615,-4.4615,-4.4615,-4.4649,-4.5263,-4.55,-4.5602,-4.6447,-4.6786,-4.6921,-4.7767,-4.8409,-4.8646,-4.475,-4.5466,-4.6244,-4.6278,-4.6853,-4.797,-4.9796,-5.0405,-5.1048,-5.2164,-5.2638,-5.2875,-5.2875,-5.3247,-5.3348,-5.2909,-5.3281,-5.3179,-5.2367,-5.1623,-5.1048,-5.0642,-4.9593,-4.8849,-4.8477,-4.7396,-4.6643,-4.6275,-4.5124,-4.4425,-4.4086,-4.4456,0.0,-4.4086,0.0,-4.3901,0.0,0.0,0.0,-4.3063,-4.3063,-4.3464,-4.4148,-4.4856,-4.4887,-4.4641,-4.4979,-4.5064,-4.5003,-4.4733,-4.4825,-4.5003,-4.4702,-4.461,-4.4685,-4.503,-4.5572,-4.6228,-4.6657,-4.7766,-4.8771,-4.8444,-4.949,-5.0393,-4.969,-4.9814,-5.0101,-5.0101,-4.9221,-4.8714,-4.939,-4.8646,0.0,0.0,0.0,0.0,0.0,0.0,-4.7056,0.0,0.0,0.0,0.0,0.0,0.0,0.0,0.0,0.0,0.0,0.0,0.0,0.0,0.0,0.0,0.0,0.0,0.0,-4.5703,-4.4925,-4.4615,-4.4615,-4.4615,-4.4615,-4.4615,-4.4615,-4.4818,-4.5229,-4.5974,-4.6041,-4.5805,-4.6921,-4.7361,-4.7462,-4.8206,-4.8714,-4.8917,-4.4919,-4.5297,-4.5974,-4.6887,-4.7158,-4.797,-4.9999,-5.0338,-5.0811,-5.2131,-5.23,-5.23,-5.23,-5.301,-5.3179,-5.2367,-5.2875,-5.2739,-5.1522,-5.115,-5.071,-5.0135,-4.939,-4.8951,-4.8781,-4.7462,-4.6655,-4.6342,-4.5174,-4.4267,-4.3624,0.0,0.0,0.0,0.0,0.0,0.0,0.0,-4.2109,-4.2633,-4.2756,-4.3187,-4.387,-4.4425,-4.461,-4.461,-4.461,-4.461,-4.461,-4.461,-4.461,-4.461,-4.461,-4.4702,-4.4825,-4.4825,-4.5372,-4.6144,-4.6573,-4.7442,-4.8206,-4.8487,-4.9411,-5.014,-4.9811,-5.0026,-5.0283,-5.0114,-4.9634,-4.9187,-4.9052,-4.8409,0.0,0.0,0.0,0.0,0.0,0.0,0.0,0.0,0.0,0.0,-4.55,0.0,0.0,0.0,0.0,0.0,-4.3984,0.0,0.0,0.0,0.0,-4.6955,-4.7259,0.0,-4.665,-4.6413,-4.5331,-4.4919,-4.5055,-4.4919,-4.4919,-4.5089,-4.5089,-4.5466,-4.621,-4.6786,-4.6684,-4.6278,-4.7432,-4.7906,-4.7973,-4.8578,-4.8883,-4.9018,-4.5466,-4.5669,-4.6143,-4.7534,-4.8376,-4.9323,-5.0879,-5.1116,-5.1386,-5.2198,-5.23,-5.23,-5.23,-5.301,-5.3179,-5.2367,-5.2367,-5.2367,-5.2198,-5.0947,-5.0168,-5.0101,-4.939,-4.8714,-4.8007,-4.7225,-4.6155,0.0,-4.4689,-4.4267,0.0,0.0,0.0,0.0,0.0,0.0,0.0,-4.2294,-4.254,-4.2663,-4.3285,-4.3932,-4.4517,-4.4579,-4.461,-4.461,-4.461,-4.461,-4.461,-4.461,-4.461,-4.461,-4.461,-4.5041,-4.5495,-4.5495,-4.6419,-4.7281,-4.6744,-4.8122,-4.9402,-4.8137,-4.9422,-5.0631,-4.9224,-5.003,-5.0819,-5.0155,-5.0022,-4.9796,-4.912,-4.8409,-4.7906,0.0,0.0,0.0,0.0,0.0,-4.7022,-4.4852,0.0,0.0,0.0,-4.594,0.0,0.0,-4.6036,0.0,0.0,0.0,0.0,-4.4649,0.0,-4.7428,-4.8781,-4.7462,-4.7428,-4.868,-4.6583,-4.594,-4.6549,-4.5906,-4.5974,-4.6583,-4.6583,-4.7022,-4.7703,-4.777,-4.7736,-4.7703,-4.7838,-4.7906,-4.7906,-4.7973,-4.8443,-4.9018,-4.6278,-4.6718,-4.7225,-4.7804,-4.8511,-4.9357,-5.0371,-5.0541,-5.0811,-5.1555,-5.1657,-5.1826,-5.2266,-5.2198,-5.1826,-5.1048,-5.1386,-5.1285,-5.0371,-5.0168,-4.9898,-4.9458,-4.9154,-4.8646,-4.7906,-4.7192,-4.6088,0.0,0.0,0.0,0.0,0.0,0.0,0.0,0.0,-4.2109,-4.1617,-4.1894,-4.2232,-4.2663,-4.3347,-4.4024,-4.461,-4.461,-4.461,-4.461,-4.461,-4.461,-4.461,-4.461,-4.461,-4.4702,-4.5064,-4.5372,-4.568,-4.608,-4.685,-4.7558,-4.7281,-4.814,-4.9103,-4.9056,-5.0045,-5.109,-5.0906,-5.1385,-5.1631,-5.086,-5.0013,-4.9357,-4.9052,-4.8781,-4.8578,-4.8578,0.0,0.0,0.0,0.0,0.0,-4.347,0.0,-4.3842,0.0,0.0,0.0,0.0,0.0,0.0,0.0,0.0,0.0,-4.5906,0.0,-4.7496,-4.8984,-4.797,-4.8003,-4.8984,-4.7192,-4.6515,-4.6786,-4.6481,-4.6515,-4.6819,-4.7259,-4.7394,-4.7327,-4.8206,-4.8308,-4.7939,-4.8409,-4.8578,-4.8578,-4.8578,-4.8748,-4.9018,-4.709,-4.7733,-4.8308,-4.8511,-4.8984,-4.9661,-5.0608,-5.0168,-5.0202,-5.1386,-5.098,-5.0845,-5.1555,-5.1386,-5.0913,-5.0135,-5.0574,-5.0439,-4.939,-4.9593,-4.9526,-4.9018,-4.9018,0.0,-4.7906,-4.7192,-4.6018,-4.4399,-4.4366,0.0,0.0,0.0,0.0,0.0,-4.1801,-4.1586,-4.1617,-4.1801,-4.2294,-4.294,-4.3624,-4.4178,-4.461,-4.461,-4.461,-4.461,-4.461,-4.461,-4.461,-4.461,-4.461,-4.4664,-4.5157,-4.5557,-4.5988,-4.6449,-4.7219,-4.7896,-4.7896,-4.8235,-4.8728,-4.9349,-4.9915,-5.0576,-5.1401,-5.1806,-5.1899,-5.1593,-5.0541,-4.9593,-4.9357,-4.9323,-4.9255,-4.9052,0.0,0.0,0.0,-4.6549,0.0,0.0,-4.3335,-4.3267,-4.2388,-4.3166,0.0,0.0,0.0,0.0,0.0,0.0,0.0,0.0,0.0,0.0,0.0,-4.8376,-4.8511,-4.9627,-4.7936,-4.7225,-4.7428,-4.7428,-4.7428,-4.7462,-4.8003,-4.7936,-4.753,-4.8578,-4.8714,-4.8274,-4.8815,-4.9018,-4.9018,-4.9018,-4.9018,-4.9018,-4.7736,-4.8477,-4.9221,-4.9932,-5.0067,-5.0574,-5.2063,-5.0439,-4.9796,-5.1995,-5.0371,-4.9323,-5.0033,-5.0777,-5.0913,-5.0135,-5.0101,-5.0101,-5.0067,-4.9424,-4.9018,0.0,0.0,-4.8646,-4.7906,-4.7192,-4.5784,-4.3686,0.0,0.0,-4.1617,0.0,-4.2263,-4.1617,-4.1586,-4.1586,-4.1648,-4.2325,-4.2971,-4.3655,-4.4332,-4.461,-4.461,-4.461,-4.461,-4.461,-4.461,-4.461,-4.461,-4.461,-4.461,-4.461,-4.4641,-4.5495,-4.6573,-4.6603,-4.7558,-4.8604,-4.8604,-4.8604,-4.8604,-4.8604,-4.8604,-4.8852,-4.971,-5.0538,-5.1324,-5.2102,-5.1691,-5.0947,-5.0202,-5.0067,-4.983,-4.912,0.0,0.0,0.0,0.0,0.0,-4.4852,-4.5867,-4.5568,-4.2591,-4.3701,0.0,0.0,0.0,0.0,0.0,0.0,0.0,-4.3477,-4.5635,0.0,-5.0067,-4.8646,-4.8987,-5.1151,-4.892,-4.8274,-4.8984,-4.8984,-4.8984,-4.8984,-4.8984,-4.8984,-4.8984,-4.8984,-4.8984,-4.8984,-4.9018,-4.9018,-4.9018,-4.9018,-4.9018,-4.9018,-4.8612,-4.9255,-4.9661,-4.939,-4.9763,-5.0236,-5.071,-5.0202,-4.9999,-5.071,-5.0168,-4.9627,-4.939,-4.956,-4.9627,0.0,-4.9357,-4.9357,0.0,-4.912,-4.9018,-4.9018,-4.9018,-4.8646,-4.7906,-4.6703,-4.5322,-4.3718,0.0,0.0,0.0,-4.1832,-4.1555,-4.0878,-4.0878,-4.1155,-4.1648,-4.2325,-4.2971,-4.3655,-4.4332,-4.461,-4.461,-4.461,-4.461,-4.461,-4.461,-4.461,-4.461,-4.461,-4.4918,-4.528,-4.528,-4.5865,-4.6696,-4.7157,-4.7927,-4.8604,-4.8604,-4.8604,-4.8728,-4.9309,-4.947,-4.9638,-5.0538,-5.0904,-5.1307,-5.2135,-5.1725,-5.115,-5.0913,-5.0439,-4.9999,-4.9796,-4.9323,0.0,-4.6989,0.0,-4.6312,-4.4045,-4.4215,-4.391,-4.2422,-4.32,0.0,0.0,0.0,0.0,0.0,0.0,0.0,0.0,-4.6413,0.0,-5.0067,-4.9154,-4.9255,-5.0439,-4.9221,-4.8781,-4.9018,-4.9018,-4.9018,-4.9018,-4.9018,-4.9018,-4.9018,-4.9018,-4.9018,-4.9018,-4.9018,-4.9018,-4.9018,-4.9018,-4.9018,-4.9018,-4.9018,-4.983,-5.0202,-4.9187,-4.983,-5.0405,-5.0135,-4.9864,-4.9796,-5.0067,-4.9864,-4.9492,-4.9052,-4.9018,0.0,-4.9018,-4.9018,-4.9018,-4.9018,-4.9018,-4.9018,-4.9018,-4.9018,-4.8646,-4.7906,-4.6519,0.0,-4.3718,-4.2701,-4.1887,-4.1217,-4.174,-4.1617,-4.0905,-4.1151,-4.1678,-4.2355,-4.2786,-4.334,-4.4024,-4.4456,-4.461,-4.461,-4.461,-4.461,-4.461,-4.461,-4.461,-4.4633,-4.4803,-4.5133,-4.5501,-4.566,-4.622,-4.6944,-4.7425,-4.8081,-4.8604,-4.8604,-4.8604,-4.8728,-4.9269,-4.939,-4.9599,-5.0461,-5.112,-5.1684,-5.2201,-5.2168,-5.1995,-5.1691,-5.0787,-5.0083,-5.0103,-4.927,-4.8166,-4.6959,0.0,0.0,0.0,0.0,0.0,0.0,-4.3842,-4.4423,0.0,0.0,0.0,0.0,0.0,0.0,-4.5974,-4.6786,0.0,-4.9661,-4.9221,-4.9357,-5.0067,-4.9357,-4.9018,-4.9018,-4.9018,-4.9018,-4.9018,-4.9018,-4.9018,-4.9018,-4.9018,-4.9018,-4.9018,-4.9018,-4.9018,-4.9018,-4.9018,-4.9018,-4.9018,-4.9018,-5.0135,-5.0608,-4.9255,-5.0135,-5.0845,-5.0135,-4.9424,-4.9255,-4.9932,-4.9424,-4.9018,-4.9018,-4.9018,-4.9018,-4.9018,0.0,0.0,-4.9018,-4.9018,-4.9018,-4.9018,-4.9018,-4.868,-4.7973,-4.6586,-4.5169,-4.3686,-4.2288,-4.1278,-4.0659,-4.1986,-4.2263,-4.1709,-4.2325,-4.2971,-4.3593,-4.3593,-4.3994,-4.461,-4.461,-4.461,-4.461,-4.461,-4.461,-4.461,-4.461,-4.461,-4.4695,-4.5139,-4.5306,-4.5419,-4.5849,-4.66,-4.7395,-4.7538,-4.8081,-4.8604,-4.8604,-4.8604,-4.8604,-4.8604,-4.8604,-4.8852,-4.971,-5.1065,-5.2164,-5.22,-5.2868,-5.3213,-5.2436,-5.1196,-5.0259,-5.0175,-4.8952,-4.7693,-4.69,0.0,0.0,0.0,0.0,0.0,-4.475,-4.5297,-4.5162,0.0,0.0,0.0,0.0,0.0,-4.6989,-4.4818,-4.6819,-4.8274,-4.8984,-4.9018,-4.9357,-4.9999,-4.9323,-4.9018,-4.9018,-4.9018,-4.9018,-4.9018,-4.9018,-4.9018,-4.9018,-4.9018,-4.9018,-4.9018,-4.9018,-4.9018,-4.9018,-4.9018,-4.9018,-4.9018,0.0,0.0,-4.9424,-4.9052,-4.9289,-4.9458,-4.9289,-4.912,-4.9052,-4.9255,-4.912,-4.9018,-4.9018,-4.9018,-4.9018,-4.9018,-4.9018,-4.9018,-4.9018,-4.9018,-4.9018,-4.9018,-4.9018,-4.8917,-4.8748,-4.7352,-4.5668,-4.3731,-4.2295,-4.1771,-4.2109,-4.2448,-4.2509,-4.2386,-4.254,-4.2971,-4.3593,-4.3593,-4.3994,-4.461,-4.461,-4.461,-4.461,-4.461,-4.461,-4.461,-4.461,-4.461,-4.4695,-4.5131,-4.5642,-4.6162,-4.6793,-4.7465,-4.7965,-4.7528,-4.7958,-4.8604,-4.8604,-4.8604,-4.8604,-4.8604,-4.8604,-4.8852,-4.971,-5.0182,-5.0615,-5.1257,-5.2023,-5.2522,-5.2322,-5.2033,-5.1595,-5.1016,-4.9704,-4.8293,-4.6959,-4.6312,0.0,0.0,-4.5365,-4.5635,-4.5466,-4.5602,-4.6041,0.0,0.0,0.0,0.0,-4.8173,-4.797,-4.6312,-4.7327,-4.8274,-4.8984,-4.9018,-4.9086,-4.9255,-4.9086,-4.9018,-4.9018,-4.9018,-4.9018,-4.9018,-4.9018,-4.9018,-4.9018,-4.9018,-4.9018,-4.9018,-4.9018,-4.9018,-4.9018,-4.9018,-4.9018,-4.9018,-4.9018,-4.9255,-4.939,-4.9052,-4.9289,-4.939,-4.9052,-4.9018,-4.9018,-4.9018,-4.9018,-4.9018,-4.9018,-4.9018,-4.9018,-4.9018,-4.9018,-4.9018,-4.9018,-4.9018,-4.9018,-4.9018,-4.9018,-4.9018,-4.9018,-4.7619,-4.5865,-4.3712,-4.2874,-4.254,-4.2633,-4.3217,-4.334,-4.3063,-4.3371,-4.371,-4.4086,-4.4086,-4.4271,-4.461,-4.461,-4.461,-4.461,-4.461,-4.461,-4.461,-4.461,-4.461,-4.4726,-4.5507,-4.6009,-4.6467,-4.7363,-4.7912,-4.821,-4.7718,-4.7996,-4.848,-4.8563,-4.8521,-4.848,-4.8563,-4.8604,-4.8728,-4.9219,-4.959,-5.0026,-5.0461,-5.1182,-5.1769,-5.1769,-5.1204,-5.0624,-5.0225,-4.8951,-4.76,-4.6486,-4.594,-4.5568,-4.5128,-4.5466,-4.5838,-4.6177,-4.6515,-4.6921,-4.7361,-4.7665,0.0,-4.7906,-4.8917,-4.8984,-4.7834,-4.8206,-4.8917,-4.9999,-5.0033,-5.0033,-4.9999,-4.9661,-4.9492,-4.9492,-4.9154,-4.9018,-4.9018,-4.9018,-4.9018,-4.9018,-4.9018,-4.9018,-4.9018,-4.9018,-4.9018,-4.9018,-4.9018,-4.9018,-4.9018,-4.9018,-4.9492,-4.9729,-4.912,-4.9526,-4.9729,-4.9086,-4.9018,-4.9018,-4.9018,-4.9018,-4.9018,-4.9018,-4.9018,-4.9018,-4.9018,-4.9018,-4.9018,-4.9018,-4.9018,-4.9018,-4.9018,-4.9018,-4.9018,-4.9018,-4.7525,-4.5832,-4.3997,-4.3749,-4.334,-4.294,-4.4048,-4.4302,-4.3778,-4.4363,-4.461,-4.461,-4.461,-4.461,-4.461,-4.461,-4.461,-4.461,-4.461,-4.461,-4.461,-4.461,-4.461,-4.4787,-4.5905,-4.6284,-4.6488,-4.7665,-4.8133,-4.8218,-4.8091,-4.8133,-4.8301,-4.848,-4.8438,-4.8385,-4.8563,-4.8604,-4.8604,-4.8604,-4.9178,-4.971,-4.971,-5.0345,-5.0919,-5.0919,-4.9895,-4.9085,-4.9091,-4.7802,-4.6597,-4.5954,0.0,-4.5703,-4.5703,-4.6007,-4.6447,-4.7056,-4.7699,-4.7868,-4.7327,-4.8376,-4.8781,-4.8244,-4.9526,-5.0033,-4.9526,-4.939,-4.9932,-5.1217,-5.1185,-5.1185,-5.1185,-5.0574,-5.027,-5.0236,-4.9492,-4.9187,-4.9154,-4.9052,-4.9018,-4.9018,-4.9018,-4.9018,-4.9018,-4.9018,-4.9018,-4.9018,-4.9018,-4.9018,-4.9018,-4.9018,-4.9086,-4.912,-4.9018,-4.9086,-4.912,-4.9018,-4.9018,-4.9018,-4.9018,-4.9018,-4.9018,-4.9018,-4.9018,-4.9018,-4.9018,-4.9018,-4.9018,-4.9018,-4.9018,-4.9018,-4.9018,-4.9018,-4.9018,-4.9018,-4.6979,-4.5782,-4.5381,-4.4179,-4.384,-4.4264,-4.4479,-4.451,-4.4456,-4.4579,-4.461,-4.461,-4.461,-4.461,-4.461,-4.461,-4.461,-4.461,-4.461,-4.461,-4.461,-4.461,-4.461,-4.4787,-4.5905,-4.6284,-4.6528,-4.7832,-4.8175,-4.8091,-4.8218,-4.8175,-4.8091,-4.8301,-4.8438,-4.8563,-4.8563,-4.8604,-4.8604,-4.8604,-4.8687,-4.8811,-4.8811,-4.947,-5.0104,-5.0104,-4.9978,-4.9838,-4.985,-4.8134,-4.6764,-4.6663,0.0,-4.5703,-4.5703,-4.7361,-4.8545,-4.8646,-4.8748,-4.9052,-4.9526,-4.9221,-4.9221,-4.9729,-5.0574,-5.1285,-5.1758,-5.1183,-5.098,-5.1185,-5.1185,-5.1185,-5.1185,-5.105,-5.1048,-5.1014,-5.027,-4.9932,-4.9898,-4.9255,-4.9018,-4.9018,-4.9018,-4.9018,-4.9018,-4.9018,-4.9018,-4.9018,-4.9018,-4.9018,-4.9018,-4.9018,-4.9018,-4.9018,-4.9018,-4.9018,-4.9018,-4.9018,-4.9323,-4.9593,-4.9593,-4.9593,-4.9593,-4.9593,-4.9255,-4.9018,-4.9018,-4.9018,-4.9018,-4.9018,-4.9018,-4.9018,-4.9018,-4.9018,-4.9018,-4.9018,-4.7243,-4.63,-4.6304,-4.4866,-4.4302,-4.461,-4.461,-4.461,-4.461,-4.461,-4.461,-4.461,-4.461,-4.461,-4.461,-4.461,-4.461,-4.461,-4.461,-4.461,-4.461,-4.461,-4.4818,-4.528,-4.6146,-4.6649,-4.7028,-4.809,-4.826,-4.8007,-4.8133,-4.8175,-4.8175,-4.8301,-4.8438,-4.8604,-4.8604,-4.8604,-4.8604,-4.8604,-4.8604,-4.8604,-4.8604,-4.8934,-4.9219,-4.9219,-4.9268,-4.9187,-4.8776,-4.7599,0.0,0.0,-4.6481,-4.6583,-4.7394,-4.8714,-4.9763,-5.0168,-5.0202,-5.0338,-5.0676,-5.0405,-5.0338,-5.0676,-5.1386,-5.1961,-5.23,-5.2401,-5.2232,-5.1826,-5.2232,-5.2435,-5.2435,-5.1995,-5.1792,-5.1758,-5.0608,-5.0101,-5.0067,-4.9323,-4.9018,-4.9018,-4.9018,-4.9018,-4.9018,-4.9018,-4.9018,-4.9018,-4.9018,-4.9018,-4.9018,-4.9018,-4.9018,-4.9018,-4.9018,-4.9018,-4.9018,-4.9018,-4.9492,-4.983,-4.983,-4.983,-4.983,-4.983,-4.9323,-4.9018,-4.9018,-4.9018,-4.9018,-4.9018,-4.9018,-4.9018,-4.9018,-4.9018,-4.8923,-4.8767,-4.7472,-4.6724,-4.6518,-4.5253,-4.461,-4.461,-4.461,-4.461,-4.461,-4.461,-4.461,-4.461,-4.461,-4.461,-4.461,-4.461,-4.4702,-4.4825,-4.4671,-4.4795,-4.5033,-4.4918,-4.5249,-4.5926,-4.6564,-4.7027,-4.7456,-4.8212,-4.8218,-4.7922,-4.7922,-4.8049,-4.826,-4.8301,-4.8438,-4.8604,-4.8604,-4.8604,-4.8604,-4.8604,-4.8604,-4.8604,-4.8604,-4.8604,-4.8604,-4.8604,-4.8506,-4.8263,-4.7725,0.0,0.0,0.0,-4.7026,-4.7726,-4.8837,-4.9938,-5.0811,-5.142,-5.1488,-5.1488,-5.1488,-5.1488,-5.1488,-5.1488,-5.2164,-5.257,-5.257,-5.3179,-5.3213,-5.257,-5.3179,-5.3518,-5.3484,-5.2875,-5.257,-5.2536,-5.1048,-5.0338,-5.0304,-4.939,-4.9018,-4.9018,-4.9018,-4.9018,-4.9018,-4.9018,-4.9018,-4.9018,-4.9018,-4.9018,-4.9018,-4.9018,-4.9018,-4.9018,-4.9018,-4.9018,-4.9018,-4.9018,-4.9052,-4.9086,-4.9086,-4.9086,-4.9086,-4.9086,-4.9052,-4.9018,-4.9018,-4.9018,-4.9018,-4.9018,-4.9018,-4.9018,-4.9018,-4.9018,-4.8704,-4.7999,-4.7237,-4.648,-4.5769,-4.4993,-4.461,-4.461,-4.461,-4.461,-4.461,-4.461,-4.461,-4.461,-4.461,-4.461,-4.461,-4.461,-4.4941,-4.5434,-4.4856,-4.5372,-4.6357,-4.5741,-4.5957,-4.6594,-4.7068,-4.7272,-4.7415,-4.7878,-4.7837,-4.7624,-4.7624,-4.7794,-4.8049,-4.826,-4.8438,-4.8604,-4.8604,-4.8604,-4.8604,-4.8604,-4.8604,-4.8604,-4.8604,-4.8604,-4.8604,-4.8604,-4.8091,-4.7663,-4.7687,0.0,0.0,-4.6692,-4.7899,-4.8796,-4.8862,-5.0793,-5.2164,-5.2198,-5.2232,-5.2232,-5.2232,-5.2232,-5.2232,-5.2232,-5.2976,-5.3416,-5.3416,-5.3484,-5.3484,-5.3416,-5.3484,-5.3518,-5.3518,-5.345,-5.3416,-5.3382,-5.1826,-5.115,-5.1048,-4.9627,-4.9018,-4.9018,-4.9018,-4.9018,-4.9018,-4.9018,-4.9018,-4.9018,-4.9018,-4.9018,-4.9018,-4.9018,-4.9018,-4.9018,-4.9018,-4.9018,-4.9018,-4.9018,-4.939,-4.9661,-4.9661,-4.9661,-4.9661,-4.9661,-4.9255,-4.9018,-4.9018,-4.9018,-4.9018,-4.9018,-4.9018,-4.9018,-4.9018,-4.9018,-4.8861,-4.8576,-4.7869,-4.7339,-4.7069,-4.6308,-4.5733,-4.529,-4.529,-4.503,-4.461,-4.461,-4.461,-4.461,-4.461,-4.461,-4.461,-4.461,-4.4972,-4.5557,-4.5311,-4.5772,-4.6573,-4.6296,-4.6634,-4.725,-4.7446,-4.7609,-4.7798,-4.8084,-4.7837,-4.7452,-4.7752,-4.8007,-4.826,-4.8438,-4.8521,-4.8604,-4.8604,-4.8604,-4.8604,-4.8604,-4.8604,-4.8604,-4.8604,-4.8604,-4.8604,-4.8604,-4.8389,-4.8224,-4.827,0.0,-4.7366,-4.7861,-4.8429,-4.8993,-4.9485,-5.1177,-5.2296,-5.2296,-5.2741,-5.3044,-5.3044,-5.3044,-5.3044,-5.3044,-5.3348,-5.3518,-5.3518,-5.3518,-5.3518,-5.3518,-5.3518,-5.3518,-5.3518,-5.3518,-5.3518,-5.345,-5.1928,-5.1185,-5.115,-4.9661,-4.9018,-4.9018,-4.9018,-4.9018,-4.9018,-4.9018,-4.9018,-4.9018,-4.9018,-4.9018,-4.9018,-4.9018,-4.9018,-4.9018,-4.9018,-4.9018,-4.9018,-4.9018,-4.9424,-4.9729,-4.9729,-4.9729,-4.9729,-4.9729,-4.9289,-4.9018,-4.9018,-4.9018,-4.9018,-4.9018,-4.9018,-4.9018,-4.9018,-4.9018,-4.9018,-4.9018,-4.8257,-4.7901,-4.7901,-4.7137,-4.6445,-4.5697,-4.5697,-4.5326,-4.461,-4.461,-4.461,-4.461,-4.461,-4.461,-4.4641,-4.4856,-4.5311,-4.5895,-4.5895,-4.6449,-4.7188,-4.7004,-4.7342,-4.7886,-4.7763,-4.7821,-4.8007,-4.8007,-4.7709,-4.7452,-4.788,-4.8133,-4.8313,-4.8521,-4.8604,-4.8666,-4.8881,-4.8789,-4.8666,-4.8881,-4.8789,-4.8604,-4.8604,-4.8604,-4.8604,-4.8604,-4.8604,-4.8543,-4.8327,-4.8053,-4.8005,-4.8326,-4.8802,-4.9405,-5.0186,-5.1441,-5.2378,-5.2659,-5.3178,-5.3518,-5.3518,-5.3518,-5.3518,-5.3518,-5.3518,-5.3518,-5.3518,-5.3518,-5.3518,-5.3518,-5.3518,-5.3518,-5.3518,-5.3518,-5.3382,-5.3078,-5.1792,-5.1082,-5.0811,-4.956,-4.9018,-4.9018,-4.9018,-4.9018,-4.9018,-4.9018,-4.9018,-4.9018,-4.9018,-4.9018,-4.9018,-4.9018,-4.9018,-4.9018,-4.9018,-4.9018,-4.9018,-4.9018,-4.9018,-4.9018,-4.9018,-4.9018,-4.9018,-4.9018,-4.9018,-4.9018,-4.9018,-4.9018,-4.9018,-4.9018,-4.9018,-4.9018,-4.9018,-4.9018,-4.9018,-4.9018,-4.8257,-4.7934,-4.7934,-4.7171,-4.6445,-4.5733,-4.5733,-4.5326,-4.461,-4.461,-4.461,-4.461,-4.461,-4.461,-4.4671,-4.5311,-4.5988,-4.6603,-4.6603,-4.7434,-4.8512,-4.7865,-4.805,-4.8521,-4.8133,-4.8007,-4.7922,-4.7439,-4.7409,-4.7666,-4.7922,-4.8133,-4.8343,-4.8521,-4.8604,-4.8789,-4.9497,-4.9158,-4.882,-4.9528,-4.9127,-4.8635,-4.8604,-4.8604,-4.8604,-4.8604,-4.8604,-4.8389,-4.7711,-4.8173,-4.8389,-4.7711,-4.8943,-5.0182,-5.0995,-5.1806,-5.2624,-5.3416,-5.3518,-5.3518,-5.3518,-5.3518,-5.3518,-5.3518,-5.3518,-5.3518,-5.3518,-5.3518,-5.3518,-5.3518,-5.3518,-5.3518,-5.3484,-5.3484,-5.3078,-5.2266,-5.1555,-5.0811,-5.0067,-4.9323,-4.9018,-4.9018,-4.9018,-4.9018,-4.9018,-4.9018,-4.9018,-4.9018,-4.9018,-4.9018,-4.9018,-4.9018,-4.9018,-4.9018,-4.9018,-4.9018,-4.9018,-4.9018,-4.9018,-4.9018,-4.9018,-4.9018,-4.9018,-4.9018,-4.9018,-4.9018,-4.9018,-4.9018,-4.9018,-4.9018,-4.9018,-4.9018,-4.9018,-4.9018,-4.9018,-4.9018,-4.8798,-4.8639,-4.8639,-4.845,-4.7967,-4.7238,-4.7238,-4.6864,-4.6127,-4.5588,-4.54,-4.5363,-4.4836,-4.461,-4.4671,-4.5311,-4.5988,-4.6634,-4.7127,-4.7835,-4.8573,-4.8389,-4.845,-4.8563,-4.8301,-4.8133,-4.7922,-4.7439,-4.7538,-4.788,-4.7964,-4.826,-4.8521,-4.8563,-4.8604,-4.8666,-4.8881,-4.9158,-4.9281,-4.9004,-4.9158,-4.922,-4.8727,-4.8604,-4.8604,-4.8604,-4.8604,-4.8543,-4.8358,-4.8481,-4.8543,-4.8327,-4.8687,-4.9309,-5.0182,-5.0957,-5.1769,-5.2555,-5.3178,-5.3518,-5.3518,-5.3518,-5.3518,-5.3518,-5.3518,-5.3518,-5.3518,-5.3518,-5.3518,-5.3518,-5.3518,-5.3213,-5.2672,-5.2672,-5.2266,-5.1522,-5.0777,-5.0304,-5.0067,-4.9323,-4.9018,-4.9018,-4.9018,-4.9018,-4.9018,-4.9018,-4.9018,-4.9018,-4.9018,-4.9018,-4.9018,-4.8612,-4.8815,-4.9018,-4.9018,-4.9018,-4.9018,-4.9018,-4.9018,-4.9018,-4.9018,-4.9018,-4.9018,-4.9018,-4.9018,-4.9018,-4.9018,-4.9255,-4.9323,-4.9018,-4.9255,-4.9289,-4.9018,-4.9018,-4.9018,-4.9018,-4.9018,-4.9018,-4.9018,-4.9018,-4.8608,-4.7901,-4.7901,-4.7506,-4.6793,-4.602,-4.5697,-4.566,-4.4918,-4.4764,-4.5033,-4.5711,-4.6388,-4.7065,-4.7742,-4.8266,-4.8604,-4.8604,-4.8604,-4.8563,-4.8301,-4.7964,-4.7666,-4.7396,-4.7568,-4.788,-4.7964,-4.8175,-4.8355,-4.8469,-4.8427,-4.8385,-4.8385,-4.8817,-4.9178,-4.8856,-4.9032,-4.9086,-4.8572,-4.8521,-4.8604,-4.8604,-4.8604,-4.8604,-4.8604,-4.8604,-4.8604,-4.8604,-4.8604,-4.9056,-5.0229,-5.0805,-5.1516,-5.2694,-5.3212,-5.3518,-5.3518,-5.3518,-5.3518,-5.3518,-5.3518,-5.3518,-5.3518,-5.3518,-5.3518,-5.3518,-5.3518,-5.3281,-5.2773,-5.2469,-5.1928,-5.1183,-5.0439,-4.9932,-4.9627,-4.9187,-4.9018,-4.9018,-4.9018,-4.9018,-4.9018,-4.9018,-4.9018,-4.9018,-4.9018,-4.9018,-4.9018,-4.8108,-4.8545,-4.9018,-4.9018,-4.9018,-4.9018,-4.9018,-4.9018,-4.9018,-4.9018,-4.9018,-4.9018,-4.9018,-4.9018,-4.9018,-4.9086,-4.9763,-4.9898,-4.9154,-4.9729,-4.9763,-4.9052,-4.9018,-4.9018,-4.9018,-4.9018,-4.9018,-4.9018,-4.9018,-4.8673,-4.7999,-4.7999,-4.7704,-4.703,-4.6195,-4.5868,-4.5923,-4.5042,-4.5103,-4.5741,-4.6419,-4.7065,-4.7681,-4.8358,-4.8604,-4.8604,-4.8604,-4.8604,-4.8521,-4.8133,-4.7666,-4.7309,-4.7309,-4.7439,-4.7624,-4.788,-4.7964,-4.8049,-4.8218,-4.8164,-4.8098,-4.8055,-4.8351,-4.8683,-4.8883,-4.8791,-4.8572,-4.8343,-4.8469,-4.8563,-4.8604,-4.8604,-4.8604,-4.8604,-4.8604,-4.8604,-4.8604,-4.8604,-4.9228,-5.0919,-5.1107,-5.17,-5.3348,-5.3518,-5.3518,-5.3518,-5.3518,-5.3518,-5.3518,-5.3518,-5.3518,-5.3518,-5.3518,-5.3518,-5.3518,-5.3518,-5.345,-5.3382,-5.257,-5.1826,-5.1082,-5.0338,-4.9627,-4.9018,-4.9018,-4.9018,-4.9018,-4.9018,-4.9018,-4.9018,-4.9018,-4.9018,-4.9018,-4.9018,-4.9018,-4.9018,-4.8815,-4.8883,-4.9018,-4.9018,-4.9018,-4.9018,-4.9018,-4.9018,-4.9018,-4.9018,-4.9018,-4.9018,-4.9018,-4.9018,-4.9221,-4.9796,-5.0541,-5.0642,-4.9898,-4.9999,-4.9763,-4.9052,-4.9018,-4.9018,-4.9018,-4.9018,-4.9018,-4.9018,-4.9018,-4.8923,-4.8767,-4.8767,-4.9007,-4.9319,-4.7398,-4.7165,-4.8091,-4.6209,-4.5772,-4.6419,-4.7127,-4.7465,-4.7681,-4.8358,-4.8604,-4.8604,-4.8604,-4.8604,-4.8521,-4.8133,-4.7794,-4.7495,-4.7352,-4.7439,-4.7624,-4.7666,-4.7837,-4.8007,-4.8049,-4.8402,-4.8741,-4.8538,-4.8667,-4.8791,-4.8311,-4.8609,-4.8816,-4.8393,-4.8313,-4.8396,-4.8563,-4.8604,-4.8604,-4.8604,-4.8604,-4.8604,-4.8604,-4.8604,-4.9228,-5.0919,-5.1107,-5.17,-5.3348,-5.3518,-5.3518,-5.3518,-5.3518,-5.3518,-5.3518,-5.3518,-5.3518,-5.3518,-5.3518,-5.3518,-5.3518,-5.3518,-5.3179,-5.257,-5.1826,-5.1048,-5.0304,-4.956,-4.9154,-4.9018,-4.9018,-4.9018,-4.9018,-4.9018,-4.9018,-4.9018,-4.9018,-4.9018,-4.9018,-4.9018,-4.9018,-4.9018,-4.8545,-4.8781,-4.9018,-4.9018,-4.9018,-4.9018,-4.9018,-4.9018,-4.9018,-4.9018,-4.9018,-4.9018,-4.9018,-4.9018,-4.9289,-5.0033,-5.1082,-5.1251,-5.0168,-5.0439,-5.0135,-4.9052,-4.9018,-4.9018,-4.9018,-4.9018,-4.9018,-4.9018,-4.9018,-4.9018,-4.9018,-4.9018,-4.9221,-4.9528,-4.8365,-4.8048,-4.8307,-4.717,-4.6811,-4.7127,-4.7465,-4.7804,-4.8112,-4.8481,-4.8604,-4.8604,-4.8604,-4.8521,-4.8396,-4.8091,-4.7837,-4.7538,-4.7352,-4.7439,-4.7581,-4.7581,-4.7709,-4.7855,-4.8188,-4.8464,-4.8648,-4.8487,-4.8561,-4.8558,-4.824,-4.8407,-4.856,-4.8236,-4.8301,-4.851,-4.8563,-4.8604,-4.8604,-4.8604,-4.8604,-4.8604,-4.8604,-4.8604,-4.9066,-5.0345,-5.0499,-5.1145,-5.2764,-5.328,-5.3518,-5.3518,-5.3518,-5.3518,-5.3518,-5.3518,-5.3518,-5.3518,-5.3518,-5.3518,-5.3518,-5.3518,-5.3281,-5.2875,-5.2097,-5.1352,-5.0608,-4.9864,-4.9323,-4.9018,-4.9018,-4.9018,-4.9018,-4.9018,-4.9018,-4.9018,-4.9018,-4.9018,-4.9018,-4.9018,-4.9018,-4.9018,-4.821,-4.8578,-4.9018,-4.9018,-4.9018,-4.9018,-4.9018,-4.9018,-4.9018,-4.9018,-4.9018,-4.9018,-4.9018,-4.912,-4.9492,-5.0202,-5.142,-5.1589,-5.0371,-5.0744,-5.0405,-4.9052,-4.9018,-4.9018,-4.9018,-4.9018,-4.9018,-4.9018,-4.9018,-4.9052,-4.9187,-4.9052,-4.912,-4.9359,-4.9125,-4.8687,-4.8146,-4.7994,-4.7887,-4.7773,-4.7773,-4.8112,-4.8604,-4.8604,-4.8604,-4.8604,-4.8604,-4.848,-4.8343,-4.8133,-4.788,-4.7624,-4.7482,-4.7495,-4.7581,-4.7581,-4.7581,-4.7701,-4.823,-4.8309,-4.8297,-4.8297,-4.8297,-4.8327,-4.8416,-4.8417,-4.8286,-4.8231,-4.8546,-4.8932,-4.8974,-4.8974,-4.8943,-4.882,-4.8789,-4.8758,-4.8635,-4.8604,-4.8934,-4.9789,-5.0143,-5.0838,-5.2164,-5.3007,-5.3518,-5.3518,-5.3518,-5.3518,-5.3518,-5.3518,-5.3518,-5.3518,-5.3518,-5.3518,-5.3518,-5.3518,-5.3518,-5.3484,-5.2841,-5.2063,-5.1183,-5.0439,-4.9695,-4.9018,-4.9018,-4.9018,-4.9018,-4.9018,-4.9018,-4.9018,-4.9018,-4.9018,-4.9018,-4.9018,-4.9018,-4.9018,-4.8883,-4.8951,-4.9018,-4.9018,-4.9018,-4.9018,-4.9018,-4.9018,-4.9018,-4.9018,-4.9018,-4.9018,-4.9018,-4.956,-5.0236,-5.1014,-5.1251,-5.1285,-5.1082,-5.0541,-4.9864,-4.9052,-4.9018,-4.9018,-4.9018,-4.9018,-4.9018,-4.9018,-4.9018,-4.9323,-4.9932,-4.9289,-4.9695,-5.0847,-4.9592,-4.9212,-4.9567,-4.8917,-4.8607,-4.8481,-4.8481,-4.8543,-4.8604,-4.8604,-4.8604,-4.8604,-4.8604,-4.8563,-4.8521,-4.8343,-4.8133,-4.7922,-4.7922,-4.7752,-4.7581,-4.7581,-4.7581,-4.7568,-4.7486,-4.7892,-4.8297,-4.8297,-4.8297,-4.8446,-4.906,-4.8848,-4.8628,-4.8814,-4.9487,-5.0174,-5.0377,-5.042,-5.0236,-4.9651,-4.9528,-4.9312,-4.8696,-4.8604,-4.8934,-4.9789,-5.114,-5.2056,-5.2272,-5.3007,-5.3518,-5.3518,-5.3518,-5.3518,-5.3518,-5.3518,-5.3518,-5.3518,-5.3518,-5.3518,-5.3518,-5.3518,-5.3518,-5.3518,-5.3382,-5.2604,-5.1183,-5.0439,-4.9695,-4.9018,-4.9018,-4.9018,-4.9018,-4.9018,-4.9018,-4.9018,-4.9018,-4.9018,-4.9018,-4.9018,-4.9018,-4.9018,-4.9018,-4.9018,-4.9018,-4.9018,-4.9018,-4.9018,-4.9018,-4.9018,-4.9018,-4.9018,-4.9018,-4.9018,-4.9018,-4.9661,-5.0236,-5.0574,-5.1352,-5.1454,-5.0642,-5.0676,-5.0202,-4.9052,-4.9018,-4.9018,-4.9018,-4.9018,-4.9018,-4.9018,-4.9018,-4.9187,-4.9492,-4.9154,-4.956,-5.0608,-5.032,-5.0357,-5.0546,-5.0204,-4.9787,-4.9269,-4.8811,-4.8604,-4.8604,-4.8604,-4.8604,-4.8604,-4.8604,-4.8604,-4.8563,-4.8385,-4.8419,-4.848,-4.8128,-4.8195,-4.8309,-4.7915,-4.7837,-4.7842,-4.7989,-4.8415,-4.888,-4.888,-4.9105,-4.9344,-4.9329,-4.9494,-4.9702,-4.959,-4.9931,-5.0406,-5.0654,-5.0389,-5.002,-4.9743,-4.9343,-4.8974,-4.8666,-4.8604,-4.8728,-4.9138,-5.026,-5.0951,-5.0951,-5.1696,-5.2378,-5.2799,-5.2834,-5.3007,-5.3484,-5.3518,-5.3518,-5.3518,-5.3518,-5.3518,-5.3518,-5.3518,-5.3518,-5.3518,-5.3518,-5.2706,-5.1217,-5.0879,-5.0101,-4.9018,-4.9018,-4.9018,-4.9018,-4.9018,-4.9018,-4.9018,-4.9018,-4.9018,-4.9018,-4.9018,-4.9018,-4.9018]},{"header":{"parameterUnit":"m.s-1","parameterCategory":1,"la1":30.6,"la2":28.766,"lo1":-90.7593,"lo2":-88.6598,"dy":0.0162,"dx":0.0183,"nx":116,"ny":114,"refTime":"2024-04-05T00:00:00:Z","depth":0,"parameterNumber":3,"parameterNumberName":"V-component_of_WINDS"},"data":[0.0,0.0,0.0,0.0,0.0,0.0,0.0,0.0,0.0,0.0,0.0,0.0,0.0,0.0,0.0,0.0,0.0,0.0,0.0,0.0,0.0,0.0,0.0,0.0,0.0,0.0,0.0,0.0,0.0,0.0,0.0,0.0,0.0,0.0,0.0,0.0,0.0,0.0,0.0,0.0,0.0,0.0,0.0,0.0,0.0,0.0,0.0,0.0,0.0,0.0,0.0,0.0,0.0,0.0,0.0,0.0,0.0,0.0,0.0,0.0,0.0,0.0,0.0,0.0,0.0,0.0,0.0,0.0,0.0,0.0,0.0,0.0,0.0,0.0,0.0,0.0,0.0,0.0,0.0,0.0,0.0,0.0,0.0,0.0,0.0,0.0,0.0,0.0,0.0,0.0,0.0,0.0,0.0,0.0,0.0,0.0,0.0,0.0,0.0,0.0,0.0,0.0,0.0,0.0,0.0,0.0,0.0,0.0,0.0,0.0,0.0,0.0,0.0,0.0,0.0,0.0,0.0,0.0,0.0,0.0,0.0,0.0,0.0,0.0,0.0,0.0,0.0,0.0,0.0,0.0,0.0,0.0,0.0,0.0,0.0,0.0,0.0,0.0,0.0,0.0,0.0,0.0,0.0,0.0,0.0,0.0,0.0,0.0,0.0,0.0,0.0,0.0,0.0,0.0,0.0,0.0,0.0,0.0,0.0,0.0,0.0,0.0,0.0,0.0,0.0,0.0,0.0,0.0,0.0,0.0,0.0,0.0,0.0,0.0,0.0,0.0,0.0,0.0,0.0,0.0,0.0,0.0,0.0,0.0,0.0,0.0,0.0,0.0,0.0,0.0,0.0,0.0,0.0,0.0,0.0,0.0,0.0,0.0,0.0,0.0,0.0,0.0,0.0,0.0,0.0,0.0,0.0,0.0,0.0,0.0,0.0,0.0,0.0,0.0,0.0,0.0,0.0,0.0,0.0,0.0,0.0,0.0,0.0,0.0,0.0,0.0,0.0,0.0,0.0,0.0,0.0,0.0,0.0,0.0,0.0,0.0,0.0,0.0,0.0,0.0,0.0,0.0,0.0,0.0,0.0,0.0,0.0,0.0,0.0,0.0,0.0,0.0,0.0,0.0,0.0,0.0,0.0,0.0,0.0,0.0,0.0,0.0,0.0,0.0,0.0,0.0,0.0,0.0,0.0,0.0,0.0,0.0,0.0,0.0,0.0,0.0,0.0,0.0,0.0,0.0,0.0,0.0,0.0,0.0,0.0,0.0,0.0,0.0,0.0,0.0,0.0,0.0,0.0,0.0,0.0,0.0,0.0,0.0,0.0,0.0,0.0,0.0,0.0,0.0,0.0,0.0,0.0,0.0,0.0,0.0,0.0,0.0,0.0,0.0,0.0,0.0,0.0,0.0,0.0,0.0,0.0,0.0,0.0,0.0,0.0,0.0,0.0,0.0,0.0,0.0,0.0,0.0,0.0,0.0,0.0,0.0,0.0,0.0,0.0,0.0,0.0,0.0,0.0,0.0,0.0,0.0,0.0,0.0,0.0,0.0,0.0,0.0,0.0,0.0,0.0,0.0,0.0,0.0,0.0,0.0,0.0,0.0,0.0,0.0,0.0,0.0,0.0,0.0,0.0,0.0,0.0,0.0,0.0,0.0,0.0,0.0,0.0,0.0,0.0,0.0,0.0,0.0,0.0,0.0,0.0,0.0,0.0,0.0,0.0,0.0,0.0,0.0,0.0,0.0,0.0,0.0,0.0,0.0,0.0,0.0,0.0,0.0,0.0,0.0,0.0,0.0,0.0,0.0,0.0,0.0,0.0,0.0,0.0,0.0,0.0,0.0,0.0,0.0,0.0,0.0,0.0,0.0,0.0,0.0,0.0,0.0,0.0,0.0,0.0,0.0,0.0,0.0,0.0,0.0,0.0,0.0,0.0,0.0,0.0,0.0,0.0,0.0,0.0,0.0,0.0,0.0,0.0,0.0,0.0,0.0,0.0,0.0,0.0,0.0,0.0,0.0,0.0,0.0,0.0,0.0,0.0,0.0,0.0,0.0,0.0,0.0,0.0,0.0,0.0,0.0,0.0,0.0,0.0,0.0,0.0,0.0,0.0,0.0,0.0,0.0,0.0,0.0,0.0,0.0,0.0,0.0,0.0,0.0,0.0,0.0,0.0,0.0,0.0,0.0,0.0,0.0,0.0,0.0,0.0,0.0,0.0,0.0,0.0,0.0,0.0,0.0,0.0,0.0,0.0,0.0,0.0,0.0,0.0,0.0,0.0,0.0,0.0,0.0,0.0,0.0,0.0,0.0,0.0,0.0,0.0,0.0,0.0,0.0,0.0,0.0,0.0,0.0,0.0,0.0,0.0,0.0,0.0,0.0,0.0,0.0,0.0,0.0,0.0,0.0,0.0,0.0,0.0,0.0,0.0,0.0,0.0,0.0,0.0,0.0,0.0,0.0,0.0,0.0,0.0,0.0,0.0,0.0,0.0,0.0,0.0,0.0,0.0,0.0,0.0,0.0,0.0,0.0,0.0,0.0,0.0,0.0,0.0,0.0,0.0,0.0,0.0,0.0,0.0,0.0,0.0,0.0,0.0,0.0,0.0,0.0,0.0,0.0,0.0,0.0,0.0,0.0,0.0,0.0,0.0,0.0,0.0,0.0,0.0,0.0,0.0,0.0,0.0,0.0,0.0,0.0,0.0,0.0,0.0,0.0,0.0,0.0,0.0,0.0,0.0,0.0,0.0,0.0,0.0,0.0,0.0,0.0,0.0,0.0,0.0,0.0,0.0,0.0,0.0,0.0,0.0,0.0,0.0,0.0,0.0,0.0,0.0,0.0,0.0,0.0,0.0,0.0,0.0,0.0,0.0,0.0,0.0,0.0,0.0,0.0,0.0,0.0,0.0,0.0,0.0,0.0,0.0,0.0,0.0,0.0,0.0,0.0,0.0,0.0,0.0,0.0,0.0,0.0,0.0,0.0,0.0,0.0,0.0,0.0,0.0,0.0,0.0,0.0,0.0,0.0,0.0,0.0,0.0,0.0,0.0,0.0,0.0,0.0,0.0,0.0,0.0,0.0,0.0,0.0,0.0,0.0,0.0,0.0,0.0,0.0,0.0,0.0,0.0,0.0,0.0,0.0,0.0,0.0,0.0,0.0,0.0,0.0,0.0,0.0,0.0,0.0,0.0,0.0,0.0,0.0,0.0,0.0,0.0,0.0,0.0,0.0,0.0,0.0,0.0,0.0,0.0,0.0,0.0,0.0,0.0,0.0,0.0,0.0,0.0,0.0,0.0,0.0,0.0,0.0,0.0,0.0,0.0,0.0,0.0,0.0,0.0,0.0,0.0,0.0,0.0,0.0,0.0,0.0,0.0,0.0,0.0,0.0,0.0,0.0,0.0,0.0,0.0,0.0,0.0,0.0,0.0,0.0,0.0,0.0,0.0,0.0,0.0,0.0,0.0,0.0,0.0,0.0,0.0,0.0,0.0,0.0,0.0,0.0,0.0,0.0,0.0,0.0,0.0,0.0,0.0,0.0,0.0,0.0,0.0,0.0,0.0,0.0,0.0,0.0,0.0,0.0,0.0,0.0,0.0,0.0,0.0,0.0,0.0,0.0,0.0,0.0,0.0,0.0,0.0,0.0,0.0,0.0,0.0,0.0,0.0,0.0,0.0,0.0,0.0,0.0,0.0,0.0,0.0,0.0,0.0,0.0,0.0,0.0,0.0,0.0,0.0,0.0,0.0,0.0,0.0,0.0,0.0,0.0,0.0,0.0,0.0,0.0,0.0,0.0,0.0,0.0,0.0,0.0,0.0,0.0,0.0,0.0,0.0,0.0,0.0,0.0,0.0,0.0,0.0,0.0,0.0,0.0,0.0,0.0,0.0,0.0,0.0,0.0,0.0,0.0,0.0,0.0,0.0,0.0,0.0,0.0,0.0,0.0,0.0,0.0,0.0,0.0,0.0,0.0,0.0,0.0,0.0,0.0,0.0,0.0,0.0,0.0,0.0,0.0,0.0,0.0,0.0,0.0,0.0,0.0,0.0,0.0,0.0,0.0,0.0,0.0,0.0,0.0,0.0,0.0,0.0,0.0,0.0,0.0,0.0,0.0,0.0,0.0,0.0,0.0,0.0,0.0,0.0,0.0,0.0,0.0,0.0,0.0,0.0,0.0,0.0,0.0,0.0,0.0,0.0,0.0,0.0,0.0,0.0,0.0,0.0,0.0,0.0,0.0,0.0,0.0,0.0,0.0,0.0,0.0,0.0,0.0,0.0,0.0,0.0,0.0,0.0,0.0,0.0,0.0,0.0,0.0,0.0,0.0,0.0,0.0,0.0,0.0,0.0,0.0,0.0,0.0,0.0,0.0,0.0,0.0,0.0,0.0,0.0,0.0,0.0,0.0,0.0,0.0,0.0,0.0,0.0,0.0,0.0,0.0,0.0,0.0,0.0,0.0,0.0,0.0,0.0,0.0,0.0,0.0,0.0,0.0,0.0,0.0,0.0,0.0,0.0,0.0,0.0,0.0,0.0,0.0,0.0,0.0,0.0,0.0,0.0,0.0,0.0,0.0,0.0,0.0,0.0,0.0,0.0,0.0,0.0,0.0,0.0,0.0,0.0,0.0,0.0,0.0,0.0,0.0,0.0,0.0,0.0,0.0,0.0,0.0,0.0,0.0,0.0,0.0,0.0,0.0,0.0,0.0,0.0,0.0,0.0,0.0,0.0,0.0,0.0,0.0,0.0,0.0,0.0,0.0,0.0,0.0,0.0,0.0,0.0,0.0,0.0,0.0,0.0,0.0,0.0,0.0,0.0,0.0,0.0,0.0,0.0,0.0,0.0,0.0,0.0,0.0,0.0,0.0,0.0,0.0,0.0,0.0,0.0,0.0,0.0,0.0,0.0,0.0,0.0,0.0,0.0,0.0,0.0,0.0,0.0,0.0,0.0,0.0,0.0,0.0,0.0,0.0,0.0,0.0,0.0,0.0,0.0,0.0,0.0,0.0,0.0,0.0,0.0,0.0,0.0,0.0,0.0,0.0,0.0,0.0,0.0,0.0,0.0,0.0,0.0,0.0,0.0,0.0,0.0,0.0,0.0,0.0,0.0,0.0,0.0,0.0,0.0,0.0,0.0,0.0,0.0,0.0,0.0,0.0,0.0,0.0,0.0,0.0,0.0,0.0,0.0,0.0,0.0,0.0,0.0,0.0,0.0,0.0,0.0,0.0,0.0,0.0,0.0,0.0,0.0,0.0,0.0,0.0,0.0,0.0,0.0,0.0,0.0,0.0,0.0,0.0,0.0,0.0,0.0,0.0,0.0,0.0,0.0,0.0,0.0,0.0,0.0,0.0,0.0,0.0,0.0,0.0,0.0,0.0,0.0,0.0,0.0,0.0,0.0,0.0,0.0,0.0,0.0,0.0,0.0,0.0,0.0,0.0,0.0,0.0,0.0,0.0,0.0,0.0,0.0,0.0,0.0,0.0,0.0,0.0,0.0,0.0,0.0,0.0,0.0,0.0,0.0,0.0,0.0,0.0,0.0,0.0,0.0,0.0,0.0,0.0,0.0,0.0,0.0,0.0,0.0,0.0,0.0,0.0,0.0,0.0,0.0,0.0,0.0,0.0,0.0,0.0,0.0,0.0,0.0,0.0,0.0,0.0,0.0,0.0,0.0,0.0,0.0,0.0,0.0,0.0,0.0,0.0,0.0,0.0,0.0,0.0,0.0,0.0,0.0,0.0,0.0,0.0,0.0,0.0,0.0,0.0,0.0,0.0,0.0,0.0,0.0,0.0,0.0,0.0,0.0,0.0,0.0,0.0,0.0,0.0,0.0,0.0,0.0,0.0,0.0,0.0,0.0,0.0,0.0,0.0,0.0,0.0,0.0,0.0,0.0,0.0,0.0,0.0,0.0,0.0,0.0,0.0,0.0,0.0,0.0,0.0,0.0,0.0,0.0,0.0,0.0,0.0,0.0,0.0,0.0,0.0,0.0,0.0,0.0,0.0,0.0,0.0,0.0,0.0,0.0,0.0,0.0,0.0,0.0,0.0,0.0,0.0,0.0,0.0,0.0,0.0,0.0,0.0,0.0,0.0,0.0,0.0,2.096,2.0313,0.0,0.0,0.0,0.0,0.0,0.0,0.0,0.0,0.0,0.0,0.0,0.0,0.0,0.0,0.0,0.0,0.0,0.0,0.0,0.0,0.0,0.0,0.0,2.3379,2.4796,2.6825,2.7131,2.7768,2.9047,2.911,0.0,0.0,0.0,0.0,3.0204,3.0002,3.0185,3.0791,3.0791,3.0992,3.1377,3.1377,3.1377,3.1377,0.0,0.0,0.0,0.0,0.0,0.0,0.0,0.0,0.0,0.0,0.0,0.0,0.0,0.0,0.0,0.0,0.0,0.0,0.0,0.0,0.0,0.0,0.0,0.0,0.0,0.0,0.0,0.0,0.0,0.0,0.0,0.0,0.0,0.0,0.0,0.0,0.0,0.0,0.0,0.0,0.0,0.0,0.0,0.0,0.0,0.0,0.0,0.0,0.0,0.0,0.0,0.0,0.0,0.0,0.0,0.0,0.0,0.0,0.0,0.0,0.0,0.0,0.0,0.0,0.0,0.0,0.0,0.0,0.0,0.0,2.2683,2.1655,0.0,0.0,0.0,0.0,0.0,0.0,0.0,0.0,0.0,0.0,0.0,0.0,0.0,0.0,0.0,0.0,0.0,0.0,0.0,0.0,0.0,2.1828,2.3329,2.4732,2.644,2.8685,2.8899,2.9302,3.005,3.0094,3.0057,2.9984,2.9654,2.9635,2.9984,2.9709,2.9929,3.0681,3.0827,3.1047,3.1377,3.1377,3.1377,3.1377,3.1377,0.0,0.0,0.0,0.0,0.0,0.0,0.0,0.0,0.0,0.0,0.0,0.0,0.0,0.0,0.0,0.0,0.0,0.0,0.0,0.0,0.0,0.0,0.0,0.0,0.0,0.0,0.0,0.0,0.0,0.0,0.0,0.0,0.0,0.0,0.0,0.0,0.0,0.0,0.0,0.0,0.0,0.0,0.0,0.0,0.0,0.0,0.0,0.0,0.0,0.0,0.0,0.0,0.0,0.0,0.0,0.0,0.0,0.0,0.0,0.0,0.0,0.0,0.0,2.588,2.6533,2.6726,2.7654,2.8097,2.7836,2.4667,2.3476,2.3635,2.2386,0.0,0.0,0.0,0.0,0.0,0.0,0.0,0.0,0.0,0.0,0.0,0.0,0.0,0.0,0.0,0.0,0.0,0.0,0.0,2.1222,2.4781,2.5187,2.6333,2.922,2.981,2.9908,2.969,2.9654,2.9507,2.9159,2.9085,2.9085,2.914,2.9434,2.98,3.0277,3.0974,3.1322,3.1377,3.1377,3.1377,3.1377,3.1377,3.1377,3.1341,0.0,0.0,0.0,0.0,0.0,0.0,0.0,0.0,0.0,0.0,0.0,0.0,0.0,0.0,0.0,0.0,0.0,0.0,0.0,0.0,0.0,0.0,0.0,0.0,0.0,0.0,0.0,0.0,0.0,0.0,0.0,0.0,0.0,0.0,0.0,0.0,0.0,0.0,0.0,0.0,0.0,2.6591,2.6591,0.0,0.0,0.0,0.0,0.0,0.0,0.0,0.0,0.0,0.0,0.0,0.0,0.0,2.7311,2.7727,2.8396,2.8594,2.8323,2.9556,2.9781,2.9143,2.9263,2.914,2.881,2.8296,0.0,2.6009,2.4156,0.0,0.0,0.0,0.0,0.0,0.0,0.0,0.0,0.0,0.0,0.0,0.0,0.0,0.0,0.0,0.0,0.0,0.0,0.0,0.0,0.0,2.6589,2.8168,3.0098,3.0424,3.0259,2.9617,2.9562,2.9397,2.8993,2.8975,2.8975,2.8975,2.936,2.9892,3.0534,3.1102,3.1506,3.1726,3.1488,3.1506,3.1726,3.1488,3.1377,3.1341,3.0956,0.0,0.0,0.0,0.0,0.0,0.0,0.0,0.0,0.0,0.0,0.0,0.0,0.0,0.0,0.0,0.0,0.0,0.0,0.0,0.0,0.0,0.0,0.0,0.0,0.0,0.0,0.0,0.0,0.0,0.0,0.0,0.0,0.0,0.0,0.0,0.0,0.0,0.0,0.0,2.6976,2.7086,2.6646,2.6976,2.7068,0.0,0.0,0.0,0.0,0.0,0.0,0.0,0.0,0.0,2.9709,2.9562,2.9654,3.0075,3.0644,3.0846,3.0699,3.1212,3.1396,3.1267,3.1267,3.1176,3.0974,3.0296,2.947,2.8517,2.6711,2.5487,2.4667,0.0,0.0,0.0,0.0,2.386,2.4487,0.0,0.0,0.0,0.0,0.0,0.0,0.0,0.0,0.0,0.0,0.0,0.0,2.5691,2.779,2.9582,3.0691,3.0882,3.0589,2.9782,2.9727,2.9507,2.9012,2.8975,2.8975,2.8975,2.947,3.0185,3.1102,3.1396,3.1744,3.2148,3.1836,3.1854,3.2148,3.1836,3.1579,3.1359,3.1066,3.0717,3.0314,0.0,0.0,0.0,0.0,0.0,0.0,0.0,0.0,0.0,0.0,0.0,0.0,0.0,0.0,0.0,0.0,0.0,0.0,0.0,0.0,0.0,0.0,0.0,0.0,0.0,0.0,0.0,0.0,0.0,0.0,0.0,0.0,0.0,0.0,0.0,0.0,0.0,2.753,2.7694,2.6792,2.7676,2.8046,0.0,0.0,0.0,0.0,0.0,0.0,3.0189,3.0358,3.0816,3.1699,3.1736,3.1921,3.231,3.2755,3.2836,3.2744,3.2836,3.2929,3.2887,3.2887,3.2765,3.2533,3.1433,3.0717,3.0222,2.848,2.7234,2.6296,2.6094,2.5837,2.5561,2.547,2.5617,2.5855,0.0,0.0,0.0,0.0,0.0,0.0,0.0,0.0,0.0,0.0,0.0,2.3974,2.7125,2.8254,2.934,3.0664,3.1139,3.1011,3.0222,3.0167,2.9819,2.9012,2.8975,2.8975,2.8975,2.9764,3.0754,3.1946,3.1964,3.2184,3.257,3.2551,3.2551,3.257,3.2551,3.2111,3.1377,3.1359,3.1121,3.0717,3.0332,0.0,0.0,0.0,0.0,0.0,0.0,0.0,0.0,0.0,0.0,0.0,0.0,0.0,0.0,0.0,0.0,0.0,0.0,0.0,0.0,0.0,0.0,0.0,0.0,0.0,0.0,0.0,0.0,0.0,0.0,0.0,0.0,0.0,0.0,0.0,0.0,0.0,0.0,2.7138,2.876,0.0,0.0,0.0,0.0,3.0395,3.0853,3.1461,3.2296,3.2777,3.3405,3.4193,3.4231,3.4421,3.4838,3.5205,3.5224,3.4846,3.5243,3.4809,3.3737,3.3737,3.3311,3.2551,3.1744,3.1157,3.0607,2.859,2.7564,2.7031,2.6315,2.6002,2.5929,2.5561,2.5433,2.5451,0.0,0.0,0.0,0.0,0.0,1.9954,1.9699,2.0969,2.1902,2.1713,2.3747,2.5738,2.6892,2.8472,2.991,3.1075,3.1304,3.1047,3.0259,3.0204,2.9837,2.9012,2.8975,2.9232,2.9764,3.0057,3.0791,3.2001,3.2258,3.2716,3.3376,3.3376,3.3505,3.3743,3.3486,3.3083,3.2533,3.2001,3.1396,3.0772,3.0626,3.0167,0.0,0.0,0.0,0.0,0.0,0.0,0.0,0.0,0.0,0.0,0.0,0.0,0.0,0.0,0.0,0.0,0.0,0.0,0.0,0.0,0.0,0.0,0.0,0.0,0.0,0.0,0.0,0.0,0.0,0.0,0.0,0.0,0.0,0.0,0.0,0.0,0.0,3.0203,3.1564,0.0,3.1507,3.1575,3.1889,3.2497,3.3187,3.4,3.4777,3.5486,3.6182,3.6755,3.6774,3.6717,3.6512,3.6664,3.6399,3.5787,3.5673,3.5395,3.4954,3.4357,3.4101,3.3966,3.2356,3.172,3.1682,2.9688,2.8695,2.8315,2.8022,2.7581,2.7123,2.6738,2.6536,2.6536,0.0,0.0,0.0,0.0,1.9954,2.0513,2.0144,2.179,2.2856,2.2215,2.478,2.6813,2.7217,2.9107,3.0637,3.1359,3.1377,3.1047,3.0259,3.0204,2.9837,2.9012,2.8975,2.9434,3.0369,3.0406,3.1121,3.2625,3.2753,3.3211,3.4018,3.4018,3.4073,3.4202,3.422,3.3927,3.3395,3.2845,3.2074,3.1176,3.0901,3.0461,2.9965,0.0,0.0,0.0,0.0,0.0,0.0,0.0,0.0,0.0,0.0,0.0,0.0,0.0,0.0,0.0,0.0,0.0,0.0,0.0,0.0,0.0,0.0,0.0,0.0,0.0,0.0,0.0,0.0,0.0,0.0,0.0,0.0,0.0,0.0,3.1016,3.2314,3.2467,3.3974,3.4719,3.406,3.4134,3.4459,3.5017,3.5694,3.641,3.7126,3.7842,3.8348,3.8475,3.8475,3.8207,3.7559,3.7559,3.7139,3.6368,3.5946,3.5609,3.5318,3.4765,3.4364,3.4202,3.2668,3.2024,3.1847,3.04,2.9714,2.9457,2.9002,2.837,2.7767,2.7381,2.7086,2.6995,0.0,0.0,0.0,1.9072,1.9954,2.0956,2.1915,2.2104,2.287,2.4811,2.6052,2.7187,2.8186,3.0137,3.1377,3.1377,3.1359,3.1029,3.0259,3.0185,2.9819,2.9012,2.9012,2.958,3.0754,3.0809,3.1799,3.3798,3.3413,3.3651,3.4422,3.444,3.4238,3.3927,3.4715,3.4623,3.389,3.3853,3.3175,3.2019,3.1176,3.0827,3.0772,0.0,0.0,0.0,0.0,0.0,0.0,0.0,0.0,0.0,0.0,0.0,0.0,0.0,0.0,0.0,0.0,0.0,0.0,0.0,0.0,0.0,0.0,0.0,0.0,0.0,0.0,0.0,0.0,0.0,0.0,0.0,0.0,0.0,3.0996,3.2889,3.4143,3.3907,3.5981,3.7003,3.5858,3.6755,3.7539,3.7949,3.8398,3.8809,3.9219,3.9687,3.9726,3.9277,3.9258,3.8828,3.7988,3.7969,3.7539,3.6699,3.625,3.5617,3.4854,3.4816,3.4136,3.3009,3.2573,3.1929,3.1091,3.0698,3.0509,3.0373,2.9013,2.8226,2.7803,2.7417,2.6958,2.6664,0.0,0.0,1.9072,1.9072,2.0526,2.1538,2.1082,2.2841,2.4316,2.4358,2.6402,2.8065,2.8609,3.0298,3.1377,3.1377,3.1121,3.0736,3.0241,2.991,2.9525,2.9012,2.9544,3.0149,3.0772,3.1377,3.2239,3.3376,3.356,3.4073,3.4862,3.5155,3.5375,3.5559,3.5779,3.576,3.5504,3.4935,3.4513,3.4055,3.2349,3.1506,3.1194,0.0,0.0,0.0,0.0,0.0,0.0,0.0,0.0,0.0,0.0,0.0,0.0,0.0,0.0,0.0,0.0,0.0,0.0,0.0,0.0,0.0,0.0,0.0,0.0,0.0,0.0,0.0,0.0,0.0,0.0,0.0,3.2031,3.3203,3.3203,3.4836,3.6424,3.7533,3.8564,3.9187,3.9129,3.9145,3.9238,3.9336,3.9746,4.0039,4.0156,4.0586,4.0762,4.0625,4.0332,3.9902,3.9355,3.9023,3.8418,3.7578,3.6836,3.6201,3.5665,3.4731,3.4102,3.3747,3.2719,3.2138,3.1805,3.0813,3.0447,3.0388,2.983,2.9368,2.8941,2.8321,2.7618,2.6995,0.0,1.9072,1.9072,1.9072,2.0399,2.1411,2.1272,2.3106,2.4533,2.4684,2.6799,2.8449,2.8764,3.037,3.1377,3.1377,3.1011,3.0626,3.0222,2.9654,2.9379,2.9489,2.9947,3.0626,3.1524,3.2184,3.3083,3.4238,3.4458,3.499,3.5797,3.6017,3.6072,3.5981,3.6311,3.6384,3.6182,3.5724,3.5522,3.5394,3.3872,3.2826,3.2111,3.1524,3.1221,3.1128,3.0962,3.0978,3.1148,3.1565,0.0,0.0,0.0,0.0,0.0,0.0,0.0,0.0,0.0,0.0,0.0,0.0,0.0,0.0,0.0,0.0,0.0,0.0,0.0,0.0,0.0,0.0,0.0,0.0,3.3867,3.541,3.6113,3.709,3.8242,3.959,4.0156,4.0527,4.0781,4.0566,4.043,4.043,4.0664,4.0801,4.0801,4.1035,4.1094,4.0898,4.0293,3.9687,3.9082,3.8457,3.7715,3.6855,3.6172,3.5625,3.5176,3.4414,3.3789,3.3242,3.2676,3.2129,3.1601,3.0898,3.0645,0.0,0.0,0.0,0.0,0.0,2.7753,2.7105,0.0,1.9072,1.9072,1.9072,1.9954,2.0893,2.179,2.2856,2.405,2.5329,2.7084,2.834,2.8815,3.0288,3.124,3.1304,3.0901,3.0479,3.0094,2.947,2.9434,3.0167,3.0369,3.1139,3.257,3.3046,3.4018,3.5485,3.5485,3.5925,3.6769,3.6769,3.6421,3.5852,3.6531,3.6659,3.6347,3.6237,3.6237,3.6219,3.5412,3.4403,3.3266,3.2459,3.2345,3.2534,3.2208,3.1935,3.1807,3.2253,0.0,0.0,0.0,0.0,0.0,0.0,0.0,0.0,0.0,0.0,0.0,0.0,0.0,0.0,0.0,0.0,0.0,0.0,0.0,0.0,0.0,0.0,0.0,0.0,3.5801,3.7519,3.9121,3.9394,3.9707,4.0508,4.0937,4.1172,4.1172,4.1172,4.1172,4.1172,4.1172,4.1172,4.1172,0.0,0.0,0.0,0.0,3.8828,3.8066,3.7226,3.6387,3.5527,3.5078,3.4609,3.4141,3.4004,3.3281,3.2248,3.25,3.1973,3.0898,3.0898,3.0898,3.084,3.0216,2.9715,2.9183,2.8463,2.7748,2.7099,0.0,1.9072,1.9072,1.9072,1.9954,2.0639,2.0829,2.2404,2.3876,2.4668,2.6328,2.7852,2.9062,2.9684,3.0247,3.0837,3.0241,2.9635,2.925,2.969,3.0039,3.0185,3.1433,3.2276,3.2588,3.3321,3.4,3.4642,3.4642,3.521,3.6329,3.6329,3.6604,3.7062,3.6916,3.6971,3.7154,3.6494,3.6402,3.6641,3.5834,3.4972,3.4092,3.3285,3.2991,3.3071,3.298,3.2646,3.2429,3.3103,3.259,3.1626,3.2088,0.0,0.0,0.0,0.0,0.0,0.0,0.0,0.0,0.0,0.0,0.0,0.0,0.0,0.0,0.0,0.0,0.0,0.0,0.0,0.0,3.541,3.7363,3.9082,4.0117,4.0566,4.0859,4.1035,4.1113,4.1172,4.1172,4.1172,4.1172,4.1172,4.1172,4.1172,4.1172,4.1172,4.1133,4.1055,3.9844,3.9121,3.8965,3.8105,3.7266,3.6426,0.0,0.0,3.4551,3.3516,3.2715,3.2148,3.1875,3.1426,3.0898,3.0898,3.0898,3.084,3.045,2.9909,2.924,2.8729,2.8219,2.7767,0.0,1.9072,1.9072,1.9072,1.9507,2.0017,2.0513,2.1902,2.3218,2.4212,2.5866,2.7424,2.8618,2.9154,2.9726,3.0435,2.9929,2.9489,2.9287,2.9855,3.0479,3.1084,3.2056,3.2881,3.3486,3.411,3.4715,3.5302,3.5522,3.6036,3.6824,3.6824,3.7026,3.7411,3.7007,3.7062,3.7393,3.6787,3.6641,3.6824,3.6604,3.6164,3.5467,3.4055,3.3651,3.3776,3.3371,3.3142,3.3134,3.3513,3.3116,3.2584,3.2984,3.2539,3.1836,0.0,0.0,0.0,0.0,0.0,0.0,0.0,0.0,0.0,0.0,0.0,0.0,0.0,0.0,3.1523,3.2598,0.0,3.5859,3.7363,3.8887,4.0176,4.1035,4.1172,4.1172,4.1172,4.1172,4.1172,4.1172,4.1172,4.1172,4.1172,4.1172,4.1074,4.0859,4.1055,4.0976,4.0547,3.9473,3.8789,3.8555,3.75,3.6543,3.5684,3.5469,3.4902,3.4023,3.3184,3.2559,3.2148,3.1699,3.1269,3.0898,3.0898,3.0898,3.0859,3.0451,2.993,2.9391,2.8949,2.8416,2.7924,0.0,1.9072,1.9072,1.9072,1.9072,1.9392,2.0208,2.1348,2.2405,2.3417,2.5235,2.6777,2.763,2.8431,2.9173,2.9904,2.9654,2.9489,2.9562,3.0112,3.0937,3.2074,3.2643,3.3431,3.4495,3.4862,3.5375,3.6091,3.6439,3.6879,3.7429,3.7338,3.7393,3.7521,3.7044,3.7007,3.7283,3.6879,3.6714,3.6751,3.7154,3.7081,3.6531,3.4825,3.4403,3.4658,3.3848,3.3594,3.3709,3.3739,3.3539,3.3379,3.3809,3.3418,3.2773,3.2695,3.2441,0.0,0.0,0.0,0.0,0.0,0.0,0.0,0.0,0.0,3.1406,3.1914,3.2441,3.3262,3.4805,3.623,3.7637,3.9101,4.0078,4.0918,4.1699,4.1504,4.1289,4.1289,4.123,4.1172,4.1172,4.1172,4.1172,4.1172,4.1094,4.0898,4.0547,4.0859,4.0644,3.9785,3.8984,3.832,3.7812,3.6621,3.5625,3.4824,3.4746,3.4297,3.3535,3.293,3.248,3.2148,3.1621,3.1211,3.0898,3.0898,3.0898,3.084,3.0293,2.9863,2.9512,2.9082,2.849,2.796,0.0,1.9072,1.9072,1.9072,1.9072,1.9136,1.9264,2.0906,2.1963,2.1483,2.397,2.5818,2.5945,2.7048,2.8149,2.9021,2.9085,2.9195,2.9544,3.0644,3.1653,3.2496,3.3596,3.444,3.4954,3.5009,3.5247,3.5687,3.5724,3.6329,3.7411,3.7062,3.7283,3.7924,3.7173,3.6785,3.6879,3.6457,3.6274,3.6311,3.6732,3.6659,3.6219,3.5632,3.5669,3.5871,3.5009,3.4475,3.4088,3.4076,3.3535,3.293,3.3359,3.3164,3.2715,3.2344,0.0,3.1992,3.1133,3.0918,3.1133,3.1855,3.1777,3.1797,0.0,0.0,3.2812,3.3613,3.4453,3.5332,3.6269,3.7812,3.9121,3.9726,4.0547,4.1269,4.1738,4.1758,4.1738,4.1738,4.1406,4.1172,4.1172,4.1172,4.1172,4.1172,4.082,4.0586,4.0527,4.0566,4.0195,3.9316,3.8828,3.8184,3.7383,3.6465,3.5781,3.5312,3.4902,3.4453,3.3965,3.2773,3.2207,3.2129,3.1309,3.0937,3.0898,3.0898,3.0898,3.0801,2.9961,2.9665,2.9512,2.9082,2.8652,2.8247,0.0,0.0,1.9072,1.9072,1.9072,1.9072,1.9072,2.0335,2.1136,2.0873,2.2918,2.461,2.4984,2.6734,2.8137,2.8934,2.8975,2.925,2.9892,3.0864,3.1873,3.2918,3.389,3.4715,3.5357,3.5375,3.5559,3.5962,3.5962,3.6347,3.7081,3.6916,3.7264,3.7979,3.7429,3.7173,3.7154,3.6751,3.6439,3.6274,3.6916,3.6934,3.6549,3.6384,3.5999,3.5374,3.4309,3.397,0.0,0.0,3.2647,3.2521,3.2695,3.2649,3.2344,3.1914,3.1973,0.0,3.1426,3.1445,0.0,0.0,3.2402,3.2773,3.3301,3.3476,3.3789,3.4668,3.5723,3.6836,3.7949,3.9141,4.0117,0.0,4.0937,4.1406,4.207,4.1738,4.1426,4.1426,4.1289,4.1172,4.1172,4.1172,4.1074,4.082,4.0859,4.0684,4.0195,4.0156,3.9746,3.8867,3.8184,3.7539,3.6934,3.6328,3.5664,3.498,3.4785,3.4219,3.3301,3.2519,3.1894,3.1406,3.1055,3.0898,3.0898,3.0898,3.0723,3.043,2.9805,2.9414,2.9141,2.8711,2.8437,2.8301,0.0,0.0,0.0,1.9072,1.9072,1.9072,1.9072,1.9954,2.0576,2.0576,2.209,2.3542,2.4517,2.6476,2.802,2.8677,2.8856,2.9287,2.9984,3.0901,3.1946,3.3175,3.4092,3.4954,3.576,3.5779,3.5981,3.6384,3.6384,3.6659,3.7154,3.7044,3.7356,3.7998,3.7484,3.7319,3.7393,3.7007,3.6732,3.6586,3.7191,3.7062,3.6476,3.6256,3.5339,3.4055,3.3378,3.3188,0.0,0.0,3.1922,3.1988,3.2343,3.2393,3.2266,3.1816,3.1758,3.1777,3.1562,0.0,0.0,3.2461,3.3066,3.3691,3.4062,3.4473,3.5078,3.6074,3.709,3.8144,3.9199,4.0019,4.0586,4.0781,4.0918,4.125,4.1973,4.1348,4.082,4.082,4.0605,4.0449,4.0449,4.0898,4.1035,4.0723,4.0879,4.0664,3.9941,3.9766,3.9258,3.8262,3.7617,3.7031,3.6504,3.5937,3.5332,3.4707,3.4453,3.3809,3.2773,3.2246,3.1582,3.0898,3.0898,3.0898,3.0879,3.0762,3.0508,3.0137,2.959,2.9199,2.8867,2.8437,2.8301,2.8301,0.0,0.0,0.0,0.0,1.9072,1.9072,1.9072,1.9954,2.0576,2.0576,2.1475,2.2793,2.4456,2.6067,2.7297,2.796,2.8618,2.9159,2.9562,3.0717,3.1928,3.3175,3.4367,3.5375,3.6164,3.6182,3.6402,3.6824,3.6824,3.7209,3.7979,3.7576,3.7631,3.7979,3.7209,3.7062,3.7393,3.7007,3.7044,3.7393,3.7411,3.6714,3.5577,3.477,3.3486,3.2214,3.2858,0.0,0.0,0.0,3.143,3.1339,3.2477,3.2793,0.0,3.2266,3.1562,3.1016,3.1406,0.0,3.2363,3.3184,3.3711,3.4394,3.5644,3.6269,3.6953,3.8223,3.8828,3.9297,3.9785,4.0234,4.0391,4.0,4.0273,4.0703,4.1152,4.0469,3.9941,3.9941,3.918,3.8652,0.0,4.0176,4.1172,4.1152,4.0781,4.0351,3.9922,3.9473,3.8633,3.7383,3.7305,3.6894,3.6055,3.5176,3.4726,3.4687,3.3848,3.3223,3.2773,3.1914,3.1309,3.0898,3.0898,3.0898,3.0859,3.041,3.0215,3.0117,2.9277,2.8926,2.8867,2.8437,2.8301,2.8301,0.0,0.0,0.0,0.0,0.0,1.9072,1.9072,1.9392,1.9571,1.9571,2.0462,0.0,0.0,0.0,0.0,0.0,2.8199,2.8721,2.9544,3.0222,3.1011,3.1964,3.3175,3.433,3.5412,3.5687,3.6274,3.7228,3.6677,3.6971,3.7998,3.7613,3.7778,3.8401,3.7869,3.7686,3.7778,3.7118,3.6916,3.6971,3.6164,3.5595,3.5082,3.3725,3.2368,3.1139,0.0,0.0,0.0,2.9558,2.967,3.0043,3.0675,0.0,3.1504,3.1367,3.1113,3.0976,3.1406,0.0,3.3144,3.3711,3.4414,3.5137,3.5859,3.6348,3.6875,3.7578,3.7617,3.7656,3.8086,3.8281,3.8418,3.8555,3.918,3.9902,4.0644,4.0488,3.9883,3.873,3.9101,0.0,0.0,0.0,0.0,3.9844,4.0273,4.0078,3.9082,3.8867,3.832,3.7324,3.6484,3.5898,3.5605,3.5,3.4551,3.4277,3.3125,3.2363,3.1934,3.1367,3.1016,3.0898,3.0898,3.0898,3.0859,3.0391,3.0039,2.9726,2.9141,2.875,2.8496,2.834,2.8301,2.8301,0.0,0.0,0.0,0.0,0.0,0.0,0.0,0.0,0.0,0.0,0.0,0.0,0.0,0.0,0.0,0.0,0.0,2.8307,2.898,2.9769,3.0497,3.1139,3.2203,3.323,3.4147,3.4403,3.499,3.5925,3.554,3.5815,3.6714,3.6769,3.7062,3.7558,3.7283,3.7228,3.7301,3.6366,3.6127,3.6274,3.477,3.4073,3.378,3.2129,3.0772,0.0,0.0,0.0,2.841,2.8486,2.8684,2.9049,2.9849,3.047,3.0898,3.0898,3.0996,3.125,3.1816,3.2793,3.3789,3.4394,3.5078,3.5723,3.6152,3.6582,3.6973,3.7246,3.6836,3.6465,3.6601,3.6484,3.6406,3.6523,3.7266,3.8203,3.9219,3.8984,3.8496,3.7988,3.8281,3.8086,0.0,0.0,0.0,3.8926,3.9512,3.9394,3.8398,3.8203,3.7793,3.709,3.5976,3.5391,3.5391,3.4785,3.418,3.3594,3.248,3.1797,3.1504,3.1074,3.0898,3.0898,3.0898,3.0801,3.0605,3.0156,2.9726,2.9297,2.8867,2.8535,2.832,2.8457,2.8418,2.8301,0.0,0.0,0.0,0.0,0.0,0.0,0.0,0.0,0.0,0.0,0.0,0.0,0.0,0.0,0.0,0.0,0.0,0.0,2.802,2.9342,3.0233,3.0681,3.1469,3.2111,3.2533,3.2551,3.279,3.3248,3.3596,3.3963,3.4385,3.5137,3.5504,3.5522,3.5504,3.5724,3.5999,3.4807,3.4752,3.5284,3.3285,3.2239,3.1744,3.013,0.0,0.0,0.0,0.0,0.0,0.0,0.0,0.0,2.9948,3.0645,3.0898,3.0937,3.125,3.1777,3.2656,3.3496,3.4355,3.5215,3.5723,3.6133,3.6543,3.6953,3.7226,3.7168,3.6465,3.5723,0.0,0.0,3.4453,3.4121,3.4863,3.5898,3.7187,3.6348,3.6152,0.0,0.0,0.0,0.0,0.0,0.0,3.8359,0.0,3.834,3.7891,3.75,3.709,3.6621,3.5801,3.5351,3.5332,3.4453,3.3594,3.2754,3.1914,3.1504,3.1465,3.1074,3.0898,3.0898,3.0898,3.0625,3.0156,2.9746,2.9316,2.8887,2.8457,2.8301,2.834,2.875,2.8652,2.832,0.0,0.0,0.0,0.0,0.0,0.0,0.0,0.0,0.0,0.0,0.0,0.0,0.0,0.0,0.0,0.0,0.0,0.0,2.79,2.8335,2.8841,2.9434,0.0,0.0,0.0,0.0,0.0,3.367,3.3156,3.3266,3.3963,3.3872,3.4,3.4257,3.3963,3.4055,3.4367,3.345,3.3175,3.3211,0.0,3.0754,3.0516,0.0,0.0,0.0,0.0,0.0,0.0,0.0,0.0,0.0,0.0,3.045,3.0703,3.16,3.2148,3.2715,3.3906,3.4629,3.5176,3.5723,3.5937,3.6055,3.6152,3.6269,3.6152,3.5488,3.4434,3.3379,0.0,0.0,0.0,3.3926,3.5351,0.0,3.8066,3.8242,0.0,3.7519,0.0,3.75,3.6445,3.6543,0.0,0.0,3.7559,3.7773,3.7031,3.7187,3.6816,3.5762,3.5176,3.4726,3.4414,3.3555,3.2851,3.2324,3.1777,3.1348,3.1055,3.0937,3.0898,3.0898,3.0898,3.0625,3.0156,2.9746,2.9316,2.8887,2.8457,2.8301,2.8301,2.8418,2.8574,2.8711,0.0,0.0,0.0,0.0,0.0,0.0,0.0,0.0,0.0,0.0,0.0,0.0,0.0,0.0,0.0,0.0,0.0,0.0,0.0,2.784,2.8319,2.8975,0.0,0.0,0.0,0.0,0.0,0.0,0.0,0.0,3.2221,3.2184,3.2184,3.2221,3.2184,3.2184,3.2166,3.1359,0.0,0.0,0.0,0.0,0.0,0.0,0.0,0.0,0.0,0.0,0.0,0.0,0.0,2.9867,3.0354,3.0838,3.144,3.2483,0.0,3.3927,3.4973,3.5469,3.5781,3.6191,3.6016,3.5644,3.5254,3.5019,3.457,3.3516,3.2422,0.0,3.0781,3.1016,0.0,0.0,0.0,0.0,3.7246,3.7656,3.7891,0.0,3.8223,0.0,3.7226,3.7187,3.6973,0.0,3.6797,3.6875,3.6406,3.6601,3.6406,3.5684,3.5039,3.4316,3.3516,3.2851,3.2305,3.1875,3.1445,3.1113,3.0898,3.0898,3.0898,3.0898,0.0,3.0527,2.9902,2.9668,2.9199,2.8613,2.8379,2.8301,2.834,2.8711,2.8769,2.8672,0.0,0.0,0.0,0.0,0.0,0.0,0.0,0.0,0.0,0.0,2.0716,0.0,0.0,0.0,0.0,0.0,0.0,0.0,0.0,0.0,0.0,0.0,0.0,0.0,0.0,0.0,0.0,0.0,0.0,0.0,0.0,0.0,0.0,0.0,0.0,0.0,0.0,0.0,0.0,0.0,0.0,0.0,0.0,0.0,0.0,0.0,0.0,0.0,0.0,0.0,2.9891,3.0246,3.0717,3.1558,3.2528,3.3448,3.4269,3.5114,3.5996,3.6191,3.6191,3.6582,3.6035,3.5156,3.4199,3.3652,3.2969,3.1621,0.0,2.9961,2.9492,2.9785,3.0351,3.1035,0.0,3.4141,3.5937,3.6191,3.6875,3.873,3.834,3.8047,3.8379,3.8066,3.7519,3.6738,3.6269,3.6016,3.6016,3.6016,3.5976,3.584,3.498,3.3965,3.2812,3.2383,3.1953,3.1504,3.1094,3.0898,3.0898,3.0898,3.0898,3.0879,3.082,3.0332,2.9626,2.9512,2.9004,2.8301,2.8301,2.8301,2.8379,2.9121,2.8965,2.8476,0.0,0.0,0.0,0.0,0.0,0.0,0.0,0.0,0.0,0.0,2.0144,2.1082,0.0,0.0,0.0,0.0,0.0,0.0,0.0,0.0,0.0,0.0,0.0,0.0,0.0,0.0,0.0,0.0,0.0,0.0,0.0,0.0,0.0,0.0,0.0,0.0,0.0,0.0,0.0,0.0,0.0,0.0,0.0,0.0,0.0,0.0,0.0,0.0,0.0,0.0,3.0376,3.0788,3.1511,3.2022,3.2815,3.4595,3.5171,3.5654,3.7144,3.709,3.6582,3.666,3.6035,3.5078,3.3828,3.3203,0.0,0.0,3.0019,2.9434,2.8652,2.916,3.0293,3.2168,3.3301,3.4687,3.6777,3.707,3.7207,0.0,3.7793,3.7812,3.7539,3.7461,0.0,0.0,3.6269,3.6016,3.6016,3.6016,3.5684,3.4961,3.4101,3.3359,3.2793,3.2383,3.1953,3.1504,3.1094,3.0898,3.0898,3.0898,3.0898,3.0859,3.0488,0.0,2.9607,2.918,2.875,2.8301,2.8301,2.8301,2.832,2.8457,2.8633,2.8789,0.0,0.0,0.0,0.0,0.0,0.0,0.0,1.9366,1.9422,1.9289,1.9717,2.0374,2.1235,2.223,2.3293,0.0,0.0,0.0,0.0,0.0,0.0,0.0,0.0,0.0,0.0,0.0,2.9085,2.9287,0.0,0.0,0.0,0.0,0.0,0.0,0.0,0.0,0.0,0.0,0.0,0.0,0.0,0.0,0.0,0.0,0.0,0.0,0.0,0.0,0.0,0.0,3.0277,3.1001,3.1958,3.2855,3.3737,3.5092,3.5768,3.6412,3.7615,3.7514,3.6992,3.6992,3.6016,3.4629,3.3105,0.0,0.0,0.0,2.9043,2.8789,2.8359,2.8984,0.0,3.123,3.2363,3.375,3.5684,3.6152,0.0,3.7519,3.7793,3.7851,0.0,3.7617,3.7363,3.6719,3.6484,3.625,3.6035,3.582,3.5391,3.4726,3.4082,3.334,3.248,3.2266,3.1836,3.1191,3.0996,3.0898,3.0898,3.0898,3.0898,3.0859,3.0391,2.9961,2.9531,2.9101,2.8672,2.8301,2.8301,2.8301,2.832,2.8535,2.8613,2.8594,0.0,0.0,0.0,0.0,0.0,0.0,0.0,1.935,1.9596,1.9536,1.9519,1.9772,2.0323,2.1943,2.3106,0.0,0.0,0.0,0.0,0.0,0.0,0.0,0.0,0.0,0.0,0.0,0.0,2.9452,2.914,0.0,0.0,0.0,0.0,0.0,0.0,0.0,0.0,0.0,0.0,0.0,0.0,0.0,0.0,0.0,0.0,0.0,0.0,0.0,0.0,0.0,3.0185,3.0956,3.1909,3.3046,3.418,3.5101,3.5943,3.6865,3.7686,3.7604,3.7246,3.707,3.5781,3.4101,3.2305,3.1289,0.0,0.0,2.8301,2.8301,2.8301,2.8848,2.9492,0.0,3.1152,3.2519,3.4316,3.4961,3.584,0.0,3.7656,0.0,3.7773,3.7715,0.0,3.6719,3.6582,3.6387,3.6035,3.5527,3.5078,3.4707,3.4199,3.3359,3.2187,3.2229,3.1738,3.0898,3.0898,3.0898,3.0898,3.0898,3.0898,3.0859,3.0293,2.9883,2.9587,2.9004,2.8594,2.8301,2.8301,2.8301,2.834,2.8652,2.8574,2.834,0.0,0.0,0.0,0.0,0.0,0.0,0.0,1.9519,1.976,1.9495,1.9688,1.9802,1.9589,2.0362,2.1587,0.0,0.0,0.0,0.0,0.0,0.0,0.0,0.0,0.0,0.0,0.0,0.0,2.903,2.8993,0.0,0.0,0.0,0.0,0.0,0.0,2.8902,0.0,0.0,0.0,0.0,0.0,0.0,0.0,0.0,0.0,0.0,0.0,0.0,0.0,0.0,0.0,3.0809,3.0919,3.1781,3.2985,3.419,0.0,0.0,3.7225,3.7371,3.7109,3.6328,3.5137,3.3574,3.1484,0.0,0.0,2.8555,2.8301,2.8301,2.8301,2.8359,2.8809,3.0,0.0,3.1738,3.3828,3.4492,3.5273,3.6621,0.0,0.0,3.7324,3.7012,3.6758,3.668,3.6309,3.6055,3.6016,3.5215,3.4746,3.4707,3.3906,3.3066,3.2187,3.2229,3.1738,3.0898,3.0898,3.0898,3.0898,3.0898,3.0898,3.084,3.0,2.9609,0.0,2.8691,2.832,2.8301,2.8301,2.8301,2.8301,2.834,2.832,2.8301,0.0,0.0,0.0,0.0,0.0,0.0,1.9072,1.9531,1.9845,1.9736,1.982,1.9845,1.9736,1.9714,2.0526,2.2543,0.0,0.0,0.0,0.0,0.0,0.0,0.0,0.0,0.0,0.0,2.8975,2.8975,2.8975,0.0,0.0,0.0,0.0,0.0,0.0,2.8975,2.8975,0.0,0.0,0.0,0.0,0.0,0.0,0.0,0.0,0.0,0.0,0.0,0.0,0.0,0.0,0.0,2.9048,2.947,0.0,0.0,3.4153,3.5629,3.6137,3.6804,3.7148,3.6562,3.5039,3.332,3.1973,0.0,2.9531,2.8496,2.8301,2.8301,2.8301,2.8301,2.8457,2.8965,0.0,0.0,3.1504,0.0,0.0,3.4863,3.5332,0.0,0.0,0.0,3.6465,3.5937,3.5742,3.5527,3.5234,3.4883,3.459,3.4336,3.373,3.3008,3.2229,3.2229,3.1738,3.0898,3.0898,3.0898,3.0898,3.0898,3.0898,3.084,2.9961,2.9626,0.0,2.8652,2.8301,2.8301,2.8301,2.8301,2.8301,2.8301,2.8301,2.8301,0.0,0.0,0.0,0.0,0.0,1.9072,1.9072,1.947,1.976,1.976,1.976,1.976,1.976,1.935,1.9903,2.1915,2.2731,0.0,0.0,0.0,0.0,0.0,0.0,0.0,0.0,0.0,2.8975,2.8975,2.8975,2.8975,0.0,0.0,2.8975,2.8975,0.0,0.0,0.0,0.0,0.0,0.0,0.0,0.0,0.0,0.0,0.0,0.0,0.0,0.0,0.0,0.0,0.0,0.0,0.0,0.0,0.0,0.0,3.2683,3.4399,3.5016,3.6054,3.6833,3.6426,3.4844,3.3144,0.0,0.0,2.9316,2.8476,2.8301,2.8301,2.8301,2.8301,2.8301,0.0,0.0,2.8887,3.0039,3.0312,0.0,0.0,0.0,3.4512,0.0,3.6211,3.6035,3.5449,3.5273,3.5,3.4531,3.4394,3.4238,3.4082,3.3535,3.2891,3.2229,3.2031,3.1601,3.0898,3.0898,3.0898,3.0898,3.0898,3.0898,3.084,2.9961,2.9626,0.0,2.8652,2.8301,2.8301,2.8301,2.8301,2.8301,2.8301,2.8301,2.8301,0.0,0.0,0.0,0.0,0.0,0.0,1.9072,1.9301,1.947,1.947,1.947,1.947,1.947,1.9229,1.9903,2.1915,2.2104,0.0,0.0,0.0,0.0,0.0,0.0,0.0,0.0,0.0,2.8975,2.8975,2.8975,2.8975,2.8975,2.8975,2.8975,2.8975,0.0,0.0,0.0,0.0,0.0,0.0,0.0,0.0,0.0,0.0,0.0,0.0,0.0,0.0,0.0,0.0,0.0,0.0,0.0,2.7822,2.8061,0.0,3.1069,3.2861,3.4002,3.5177,3.5981,3.5558,3.4414,3.2969,0.0,0.0,2.9316,2.8476,2.8301,2.8301,2.8301,2.8301,2.8301,2.8301,2.8633,0.0,3.006,3.0605,0.0,0.0,0.0,3.2851,3.4551,3.5137,3.541,3.5391,3.4961,0.0,3.4101,3.3672,3.3633,3.4062,3.3242,3.2598,3.2168,3.1738,3.1309,3.0898,3.0898,3.0898,3.0898,3.0898,3.0898,3.084,2.9961,2.9626,0.0,2.8652,2.8301,2.8301,2.8301,2.8301,2.8301,2.8301,2.8301,2.8301,0.0,0.0,0.0,0.0,0.0,0.0,0.0,1.9366,1.9536,1.9536,1.9536,1.9536,1.9536,1.9229,1.9903,2.1915,2.2104,0.0,0.0,0.0,0.0,0.0,0.0,0.0,0.0,0.0,2.8975,2.8975,2.8975,2.8975,2.8975,2.8975,2.8975,2.8975,2.8975,2.8975,0.0,0.0,0.0,0.0,0.0,0.0,0.0,0.0,0.0,0.0,0.0,0.0,0.0,0.0,0.0,0.0,0.0,0.0,0.0,2.8208,2.9791,3.1514,3.2358,3.3249,3.4004,3.4057,3.2617,3.1152,3.0937,0.0,2.8613,2.8359,2.8301,2.8301,2.8301,2.8301,2.8301,2.8301,2.8398,0.0,0.0,0.0,0.0,3.2168,3.3809,3.5019,0.0,0.0,3.5254,3.4941,3.4512,3.4082,3.3652,3.3223,3.3066,3.3203,3.2656,3.2148,3.1738,3.1582,3.1309,3.0898,3.0898,3.0898,3.0898,3.0898,3.0898,3.084,2.9961,2.9626,2.9512,2.8652,2.8301,2.8301,2.8301,2.8301,2.8301,2.8301,2.8301,2.8262,0.0,0.0,0.0,0.0,0.0,0.0,0.0,1.9217,1.9326,1.9326,1.9326,1.9326,1.9326,1.9554,2.0144,2.1411,2.1853,0.0,0.0,0.0,0.0,0.0,0.0,0.0,2.8379,2.8797,2.9048,2.9214,2.9214,2.9214,2.9214,2.9214,2.9122,2.8975,2.8975,2.8975,0.0,0.0,0.0,0.0,0.0,0.0,2.8975,0.0,0.0,0.0,0.0,0.0,0.0,0.0,0.0,0.0,0.0,0.0,0.0,0.0,2.8679,2.9849,3.1016,3.1989,3.2686,3.2669,3.1562,0.0,0.0,0.0,2.8476,2.832,2.8301,2.8301,2.8301,2.8301,2.8301,2.8301,2.8301,2.834,0.0,0.0,0.0,3.1738,0.0,0.0,0.0,3.5098,3.4941,3.4492,3.4062,3.3711,3.3437,3.2871,3.2559,3.2559,3.2148,3.1797,3.1523,3.1367,3.1152,3.0898,3.0898,3.0898,3.0898,3.0898,3.0898,3.084,2.9961,2.9626,0.0,2.8652,2.8301,2.8301,2.8301,2.8301,2.8301,2.8301,2.8301,2.8262,0.0,0.0,0.0,0.0,0.0,0.0,0.0,1.9072,1.9072,1.9072,1.9072,1.9072,1.9072,1.9954,2.0513,2.0576,0.0,0.0,0.0,0.0,0.0,0.0,0.0,0.0,2.8993,2.8975,2.9159,2.9586,2.9586,2.9586,2.9586,2.9586,2.9342,2.8975,2.8975,2.8975,0.0,0.0,0.0,0.0,2.8975,2.8975,0.0,0.0,0.0,0.0,0.0,0.0,0.0,0.0,0.0,0.0,0.0,0.0,0.0,0.0,0.0,0.0,0.0,3.1169,3.1834,3.1443,3.1035,3.0508,2.9707,0.0,0.0,2.834,2.8262,2.8281,2.8262,2.8262,2.8301,2.8301,2.8301,2.8437,0.0,2.9394,0.0,0.0,3.3086,0.0,3.3476,3.418,3.4492,3.4101,3.3633,3.3379,3.3379,3.2578,3.2129,3.2129,3.1699,3.1465,3.1465,3.1094,3.0898,3.0898,3.0898,3.0898,3.0898,3.0859,3.084,0.0,2.9902,2.9531,2.9509,2.8633,2.8301,2.8301,2.8301,2.8301,2.8301,2.8301,2.8301,2.8281,0.0,0.0,0.0,0.0,0.0,0.0,0.0,0.0,0.0,0.0,1.9072,1.9072,1.9072,1.9328,1.9763,0.0,0.0,0.0,0.0,0.0,0.0,0.0,0.0,0.0,2.8993,2.8975,2.903,2.9122,2.9122,2.9122,2.9122,2.9122,2.9067,2.8975,2.8975,2.8975,0.0,0.0,0.0,0.0,2.8975,2.8975,0.0,0.0,0.0,0.0,2.8975,2.8975,0.0,0.0,0.0,0.0,0.0,0.0,0.0,0.0,2.7809,2.8142,2.882,0.0,2.9487,2.9943,2.9453,2.8926,0.0,2.875,2.832,0.0,0.0,2.8203,2.7924,2.8066,2.8301,2.8301,2.8301,2.8437,2.8867,3.0449,0.0,3.2422,3.3711,3.4258,3.3496,3.3906,3.418,3.4082,3.3359,3.2949,3.2949,3.2129,3.168,3.168,3.125,3.1035,3.1035,3.0937,3.0898,3.0898,3.0898,3.0898,3.0879,3.0527,3.0351,3.0312,2.9453,2.9062,2.9023,2.8516,2.8301,2.8301,2.8301,2.8301,2.8301,2.8301,2.8301,2.8242,0.0,0.0,0.0,0.0,0.0,0.0,0.0,0.0,0.0,0.0,0.0,1.9072,1.9072,1.952,0.0,0.0,0.0,0.0,0.0,0.0,0.0,0.0,0.0,2.8618,2.8975,2.8975,2.9067,2.925,2.9452,2.9544,2.9544,2.9727,2.9617,2.925,2.9067,2.8975,0.0,0.0,0.0,2.8975,2.8975,0.0,0.0,0.0,0.0,0.0,2.8975,2.8975,0.0,2.8975,2.8975,2.8883,0.0,0.0,0.0,0.0,2.7976,2.8102,2.8397,2.8616,2.8726,2.8984,2.8633,2.8359,2.8574,0.0,0.0,0.0,0.0,0.0,2.7767,2.7851,2.8066,2.8262,2.8301,0.0,0.0,0.0,3.1894,3.2695,3.3574,3.4004,0.0,3.3945,3.3984,3.3789,3.3164,3.2793,3.2793,3.1973,3.1523,3.1523,3.1113,3.0898,3.0898,3.0898,3.0898,3.0898,3.0898,3.0781,3.0566,3.0312,3.0098,2.9863,2.9199,2.8926,2.8887,2.8457,2.8301,2.8301,2.8301,2.8301,2.8301,2.8301,2.8301,2.8262,0.0,0.0,0.0,0.0,0.0,0.0,0.0,0.0,0.0,0.0,0.0,0.0,0.0,0.0,0.0,0.0,0.0,0.0,0.0,0.0,0.0,0.0,2.8241,2.8975,2.8975,2.8975,2.9177,2.9562,2.9929,3.013,3.0204,3.0552,3.0296,2.9623,2.9214,2.9048,0.0,2.8975,2.8975,2.8975,2.8975,0.0,0.0,0.0,0.0,0.0,0.0,0.0,0.0,2.8975,2.8975,2.8902,2.8443,0.0,0.0,0.0,0.0,0.0,2.841,2.861,2.873,2.8379,2.8301,2.8301,2.8301,0.0,0.0,0.0,0.0,0.0,0.0,2.7676,0.0,0.0,0.0,0.0,2.9704,3.0527,3.1465,3.248,3.3086,0.0,3.375,3.3906,3.3789,3.3359,3.293,3.2676,3.2598,3.1855,3.1426,3.1426,3.1074,3.0898,3.0898,3.0898,3.0898,3.0898,3.0898,3.0644,3.0195,3.0137,2.9863,2.9453,0.0,0.0,2.8789,2.8437,2.8301,2.8301,2.8301,2.8301,2.8301,2.8301,2.8301,2.8301,0.0,0.0,0.0,0.0,0.0,0.0,0.0,0.0,0.0,0.0,0.0,0.0,0.0,0.0,0.0,0.0,0.0,0.0,0.0,0.0,0.0,2.8558,2.8856,2.8975,2.8975,2.8975,2.9177,2.9562,2.9635,2.9855,3.0204,3.0259,3.0039,2.9562,2.9567,2.9287,2.8975,2.8975,2.8975,2.8975,2.8975,0.0,0.0,0.0,0.0,0.0,0.0,0.0,0.0,2.8975,2.8975,2.8847,2.8152,0.0,0.0,0.0,0.0,0.0,2.8291,2.8345,2.8379,2.832,2.8301,2.8301,2.8301,0.0,0.0,0.0,0.0,0.0,0.0,2.7715,2.8223,0.0,0.0,2.9687,0.0,0.0,3.1914,3.1738,0.0,3.3164,3.2519,3.3105,3.334,3.293,3.25,3.2109,3.1738,3.125,3.0996,3.0996,3.0918,3.0898,3.0898,3.0898,3.0898,3.0898,3.0898,3.0644,3.0176,2.9824,2.9434,2.9004,0.0,2.8398,2.8379,2.832,2.8301,2.8301,2.8301,2.8301,2.8301,2.8301,2.8301,2.8301,0.0,0.0,0.0,0.0,0.0,0.0,0.0,0.0,0.0,0.0,0.0,0.0,0.0,0.0,0.0,0.0,0.0,0.0,0.0,0.0,2.8469,2.9287,2.9305,2.9195,2.8993,2.9195,2.9397,2.9562,3.0222,3.0534,3.0516,3.0296,3.0094,2.9892,2.9452,2.9159,2.8975,2.8975,2.8975,2.8975,0.0,0.0,0.0,0.0,0.0,0.0,0.0,0.0,0.0,0.0,2.8975,2.8847,2.8022,0.0,0.0,0.0,0.0,0.0,2.8524,2.8457,2.8301,2.8301,2.8301,2.8301,2.8301,2.8144,0.0,0.0,0.0,0.0,0.0,0.0,2.8437,2.8906,0.0,2.9785,3.043,3.0859,3.1289,0.0,0.0,3.2773,3.2832,3.2988,3.3008,3.2812,3.2187,3.1738,3.1523,3.1113,3.0898,3.0898,3.0898,3.0898,3.0898,3.0898,3.0898,3.0898,3.0898,3.0527,2.9844,2.9648,2.9219,2.8574,0.0,2.8301,2.8301,2.8301,2.8301,2.8301,2.8301,2.8301,2.8301,2.8301,2.8301,2.8262,0.0,0.0,0.0,0.0,0.0,0.0,0.0,0.0,0.0,0.0,0.0,0.0,0.0,0.0,0.0,0.0,0.0,0.0,0.0,2.8199,2.9039,2.9562,2.9562,2.947,2.9269,2.9654,2.9892,3.0002,3.1029,3.1377,3.1066,3.0571,3.0296,3.0167,2.9452,2.9067,2.8975,2.8975,2.8975,2.8975,0.0,0.0,0.0,0.0,0.0,0.0,0.0,0.0,0.0,0.0,0.0,0.0,0.0,0.0,0.0,2.8178,2.8189,2.8407,2.8661,2.8481,2.8228,2.8301,2.8301,2.8301,2.8301,2.8301,2.8184,2.7806,0.0,0.0,0.0,2.8086,0.0,2.9453,2.9704,2.9863,3.0293,3.0449,3.0918,3.2031,3.2246,3.2559,3.3203,3.2988,3.2715,3.2519,3.1894,3.1465,3.1367,3.1074,3.0898,3.0898,3.0898,3.0898,3.0898,3.0898,3.0898,3.0898,3.0898,3.043,2.9626,2.9626,2.9101,2.8301,2.8301,2.8301,2.8301,2.8301,2.8301,2.8301,2.8301,2.8301,2.8301,2.8301,2.8301,2.8242,0.0,0.0,0.0,0.0,0.0,0.0,0.0,0.0,0.0,0.0,0.0,0.0,0.0,0.0,0.0,0.0,0.0,0.0,0.0,2.802,2.8559,2.9562,2.9562,2.9745,3.0112,3.0497,3.0882,3.1249,3.1726,3.1946,3.1909,3.1121,3.0552,3.0185,2.9727,2.9324,2.8975,2.8975,2.8975,2.8975,2.8975,0.0,0.0,0.0,0.0,0.0,0.0,0.0,0.0,0.0,0.0,0.0,0.0,0.0,2.8047,2.7918,2.7945,2.8018,2.8286,2.814,2.796,2.8228,2.8301,2.8301,2.8301,2.8301,2.8184,2.7806,0.0,0.0,0.0,2.832,2.9023,2.9492,2.9902,3.0312,3.0781,0.0,3.1601,3.2109,3.2519,3.2773,3.2832,3.2812,3.2461,3.166,3.1562,3.1348,3.0957,3.0918,3.0898,3.0898,3.0898,3.0898,3.0898,3.0898,3.0898,3.0898,3.0898,3.043,2.9626,2.9626,2.9101,2.8301,2.8301,2.8301,2.8301,2.8301,2.8301,2.8301,2.8301,2.8301,2.8301,2.8301,2.8301,2.8281,0.0,0.0,0.0,0.0,0.0,0.0,0.0,0.0,0.0,0.0,0.0,0.0,0.0,0.0,0.0,0.0,0.0,0.0,0.0,2.8379,2.8919,2.9544,2.9562,2.9892,3.0552,3.0974,3.1249,3.1396,3.1818,3.2129,3.2349,3.1029,3.0351,3.0167,2.9507,2.8993,2.8627,2.8627,2.8627,2.8627,2.8627,2.8773,0.0,0.0,0.0,0.0,0.0,0.0,0.0,0.0,2.8517,2.8336,2.7957,2.779,2.7751,2.7609,2.7584,2.7638,2.796,2.796,2.796,2.8228,2.8301,2.8359,2.8633,2.8672,2.8633,2.8476,2.8789,0.0,0.0,0.0,2.9473,2.9883,3.0332,3.0781,3.1211,3.1406,3.168,3.2109,3.2305,3.2402,3.2402,3.2168,3.1855,3.1543,3.1269,3.1055,3.0898,3.0898,3.0898,3.0898,3.0898,3.0898,3.0898,3.0898,3.0742,3.0449,3.0449,3.0156,2.9607,2.9297,2.8848,2.8301,2.8301,2.8301,2.8301,2.8301,2.8301,2.8301,2.8301,2.8301,2.8301,2.8301,2.8301,2.8262,0.0,0.0,0.0,0.0,0.0,0.0,0.0,0.0,0.0,0.0,0.0,0.0,0.0,0.0,0.0,0.0,0.0,0.0,2.8319,2.8737,2.9159,2.9562,2.9562,2.9892,3.0589,3.1139,3.1524,3.1781,3.2056,3.2203,3.2184,3.0827,3.0204,3.0167,2.9342,2.8828,2.8572,2.8443,2.8315,2.8187,2.8187,2.8443,0.0,0.0,0.0,0.0,0.0,0.0,0.0,0.0,2.8281,2.7969,2.7791,2.764,2.7546,2.7571,2.7435,2.7393,2.7767,2.7767,2.7767,2.8033,2.8203,2.8437,2.9004,2.9121,2.9121,2.9121,2.9258,2.9394,2.9551,0.0,0.0,0.0,3.0586,3.0996,3.1269,3.1328,3.1484,3.1914,3.1953,3.1953,3.1953,3.1816,3.1601,3.1348,3.1172,3.1035,3.0898,3.0898,3.0898,3.0898,3.0898,3.0898,3.0898,3.0898,3.0664,3.0195,3.0059,2.9785,2.9355,2.9062,2.8691,2.8301,2.8301,2.8301,2.8301,2.8301,2.8301,2.8301,2.8301,2.8301,2.8301,2.8301,2.8301,2.8262,0.0,0.0,0.0,0.0,0.0,0.0,0.0,0.0,1.9072,1.9072,0.0,0.0,0.0,0.0,0.0,0.0,0.0,0.0,2.8975,2.8975,2.9159,2.9544,2.9562,2.9764,3.0185,3.0974,3.1763,3.2588,3.2588,3.2166,3.1359,3.0571,3.0204,3.0167,2.936,2.8993,2.8938,2.8553,2.815,2.7822,2.7822,2.8022,2.8388,0.0,0.0,0.0,0.0,0.0,0.0,0.0,2.8048,2.7289,2.7826,2.7708,2.7476,2.7799,2.7545,2.727,2.7604,2.7447,2.727,2.7604,2.7988,2.8516,2.9375,2.9626,2.9626,2.957,2.9219,2.9062,2.9492,2.9626,0.0,3.0137,3.0586,3.0898,3.0898,3.0898,3.1055,3.1465,3.1504,3.1504,3.1504,3.1894,3.1797,3.0957,3.1269,3.1328,3.0918,3.0898,3.0898,3.0879,3.0898,3.0879,3.0879,3.0879,3.0644,3.0176,2.9766,2.9355,2.8926,2.8926,2.8691,2.8301,2.8301,2.8301,2.8301,2.8301,2.8301,2.8301,2.8301,2.8301,2.8301,2.8301,2.8301,2.8301,0.0,0.0,0.0,0.0,0.0,0.0,0.0,0.0,1.92,1.9456,1.9507,0.0,0.0,0.0,0.0,0.0,0.0,0.0,2.8993,2.8975,2.903,2.9159,2.9159,2.9342,2.9745,3.0552,3.1359,3.2184,3.1891,3.1469,3.0956,3.0442,3.0039,2.9764,2.9819,2.9195,2.8189,2.8315,2.7985,2.7361,2.7361,2.76,2.7985,0.0,0.0,0.0,0.0,0.0,0.0,0.0,0.0,0.0,2.7488,2.7354,2.7206,2.7745,2.7596,2.7393,2.7767,2.7554,2.7347,2.7974,2.8203,2.8516,0.0,2.9336,0.0,0.0,2.9668,2.9512,2.9941,3.0,0.0,3.0176,3.0586,3.0898,3.0898,3.0898,3.0937,3.1055,3.1074,3.1074,3.1074,3.1191,3.1172,3.0918,3.0996,3.1016,3.0898,3.0898,3.0742,3.041,3.0723,3.0586,2.9961,3.0254,3.0039,2.9297,2.9492,2.9512,2.9355,2.875,2.8574,2.8711,2.8418,2.8457,2.873,2.873,2.873,2.8711,2.8398,2.8301,2.8301,2.8301,2.8301,2.8301,0.0,0.0,0.0,0.0,0.0,0.0,0.0,0.0,1.9392,1.9775,2.0399,2.1384,0.0,0.0,0.0,0.0,0.0,0.0,0.0,2.8975,2.8975,2.8975,2.8975,2.9177,2.9562,3.0057,3.0552,3.1047,3.1102,3.0937,3.0552,3.0314,3.0149,3.0057,3.0149,2.947,2.826,2.8352,2.793,2.7196,2.7343,2.7601,2.7877,0.0,0.0,0.0,0.0,0.0,0.0,0.0,0.0,0.0,2.7498,2.7476,2.7422,2.7799,2.7569,2.7338,2.7723,2.7453,2.7272,2.7877,2.8301,2.873,2.9414,0.0,0.0,0.0,3.0117,2.9961,3.0391,3.0332,0.0,3.0449,3.0703,3.0898,3.0898,3.0898,3.0898,3.0898,3.0898,3.0898,3.0898,3.1035,3.1074,3.0898,3.1055,3.1074,3.0898,3.0898,3.0684,3.0215,3.0469,3.0273,2.9626,2.998,2.9863,2.918,2.9609,2.9824,2.9805,2.9101,2.8848,2.8906,2.8652,2.8691,2.8926,2.9101,2.918,2.9141,2.8906,2.8691,2.8535,2.8535,2.8535,2.8535,0.0,0.0,1.9136,1.9136,0.0,0.0,0.0,0.0,0.0,0.0,2.165,2.3124,0.0,0.0,0.0,0.0,0.0,0.0,0.0,2.8975,2.8975,2.8975,2.8975,2.9177,2.9562,2.9525,2.9586,2.9586,3.0296,3.0479,3.0094,3.0167,3.0369,3.0662,3.0424,2.98,2.8961,2.859,2.793,2.7215,2.7601,2.7748,2.7767,2.8226,0.0,0.0,0.0,0.0,0.0,0.0,0.0,0.0,2.7799,2.7906,2.7906,2.7906,2.7505,2.7168,2.7598,2.7383,2.7129,2.7598,2.8359,2.9101,2.957,3.0312,3.0879,3.084,0.0,3.0391,3.082,3.0547,3.0391,3.082,3.0898,3.0898,3.0898,3.0898,3.0898,3.0898,3.0898,3.0898,3.0898,3.123,3.1309,3.0918,3.125,3.1269,3.0859,3.082,3.0605,3.0156,3.0176,3.0,2.957,2.998,2.998,2.957,3.0,3.0195,3.0176,2.9766,2.9355,2.8984,2.9023,2.9043,2.9062,2.9453,2.9629,2.9685,2.959,2.9336,2.8984,2.8984,2.8984,2.8984,0.0,0.0,1.92,1.9456,0.0,0.0,0.0,0.0,0.0,0.0,0.0,0.0,0.0,2.6762,0.0,0.0,0.0,0.0,0.0,2.8975,2.8975,2.8975,2.8975,2.9177,2.9562,2.9269,2.9104,2.9104,2.9599,2.9635,2.925,2.9892,3.0075,2.9874,3.0736,3.0272,2.8867,2.8873,2.8194,2.7048,2.7253,2.7271,2.7233,2.7957,2.8164,0.0,0.0,0.0,0.0,0.0,0.0,0.0,2.7799,2.7906,2.796,2.8121,2.7877,2.7617,2.8047,2.7598,0.0,2.7969,2.8809,2.9629,3.043,3.0762,3.0781,3.043,3.0547,3.0762,3.0879,3.082,3.0781,3.0879,3.0898,3.0898,3.0898,3.0898,3.0898,3.0898,3.0898,3.0898,3.0898,3.0976,3.0996,3.0898,3.0976,3.082,3.0371,3.0351,3.0156,2.9726,3.0019,3.0,2.957,2.998,2.998,2.957,3.0,3.0195,3.0176,2.9766,2.9512,2.9453,2.9785,2.9922,2.9922,3.0019,3.0059,3.0039,2.9707,2.9567,2.9434,2.9434,2.9434,2.9434,0.0,0.0,0.0,0.0,0.0,0.0,0.0,0.0,0.0,0.0,0.0,0.0,0.0,2.7564,0.0,0.0,2.8975,0.0,0.0,0.0,2.8975,2.8975,2.8975,2.9085,2.9287,2.9085,2.8975,2.8975,2.9195,2.9287,2.9269,2.991,3.0185,3.0185,3.122,3.0618,2.8917,2.9521,2.8909,2.7642,2.8257,2.8351,2.8145,2.8803,2.871,2.825,2.8441,0.0,0.0,0.0,0.0,0.0,0.0,0.0,2.8121,2.8247,2.7988,2.7806,2.8184,0.0,0.0,2.8633,0.0,2.9861,3.0684,3.0898,3.082,3.0586,3.0723,3.0898,3.0898,3.0898,3.0898,3.0898,3.0898,3.0898,3.0898,3.0898,3.0898,3.0898,3.0898,3.0898,3.0898,3.0898,3.0898,3.0898,3.0684,3.0547,3.0527,3.0312,3.0098,2.9883,3.0078,3.0,2.957,2.998,3.0078,2.9883,3.0312,3.0527,3.0508,3.0078,2.9863,2.9883,3.0098,3.0195,3.0215,3.043,3.0391,3.0176,2.9961,2.9746,2.9626,2.9626,2.9687,2.9844,0.0,0.0,0.0,0.0,0.0,0.0,0.0,0.0,0.0,0.0,0.0,0.0,0.0,0.0,2.8975,0.0,0.0,0.0,0.0,0.0,0.0,2.9085,2.9012,2.9012,2.9085,2.9012,2.8975,2.8975,2.8975,2.9255,2.9702,3.0125,3.0431,3.0699,3.1503,3.0916,2.9282,3.014,2.9653,2.8464,2.9389,2.9562,2.9317,2.9639,2.926,2.86,2.887,2.8687,2.834,2.8691,0.0,0.0,0.0,0.0,2.8301,2.8301,2.7949,2.7637,2.8066,0.0,2.8022,2.9313,2.9626,0.0,3.0684,3.0898,3.0898,3.0898,3.0898,3.0898,3.0898,3.0898,3.0898,3.0898,3.0898,3.0898,3.0898,3.0898,3.0898,3.0898,3.0898,3.0898,3.0898,3.0898,3.0859,3.0781,3.0488,3.041,3.0644,3.0371,3.0195,3.0195,3.0195,3.0059,2.9861,3.0137,3.0312,3.0332,3.0703,3.0898,3.0879,3.0488,3.0273,3.0195,3.0195,3.0156,3.0117,3.0508,3.0488,3.0195,3.0195,2.998,2.9687,2.9766,2.9922,3.0039,0.0,0.0,0.0,0.0,0.0,0.0,0.0,0.0,0.0,0.0,2.6762,2.7444,0.0,0.0,0.0,2.8975,2.8975,2.8975,2.8975,0.0,0.0,2.947,2.9159,2.914,2.9489,2.9159,2.8975,2.8975,2.8975,2.9375,3.0023,3.0432,3.0532,3.0296,3.1327,3.1238,3.0313,3.0071,2.9602,2.8992,2.9298,2.9298,2.9106,2.922,2.908,2.8832,2.852,2.8345,2.8301,2.8359,2.834,0.0,0.0,0.0,2.8301,2.8301,2.7734,2.7187,2.7637,0.0,2.8022,0.0,2.9626,2.9861,0.0,0.0,3.0898,0.0,3.0898,3.0898,3.0898,3.0898,3.0898,3.0898,3.0898,3.0898,3.0898,3.0898,3.0898,3.0898,3.0898,3.0898,3.0898,3.0898,3.0723,3.0312,3.0605,3.0488,2.9785,3.0039,3.0195,3.0195,3.0195,3.0371,3.0703,3.0762,3.0801,3.0801,3.0859,3.0898,3.0898,3.082,3.0586,3.0195,3.0195,3.0,2.9668,2.9783,2.9922,3.0195,3.0195,3.0156,3.0156,3.0566,3.0273,2.9648,0.0,0.0,0.0,0.0,0.0,0.0,0.0,0.0,0.0,0.0,0.0,2.8361,0.0,0.0,0.0,2.8975,2.8975,2.8975,2.8975,2.8975,2.9067,2.9232,2.9067,2.9067,2.9232,2.9067,2.8975,2.8975,2.8975,2.9315,2.9841,3.0597,3.1039,3.1159,3.1596,3.1342,3.0588,3.0715,3.0257,2.9507,2.9718,2.9736,2.9676,2.95,2.9186,2.8906,2.8711,2.8496,2.8301,2.8301,2.8301,2.8301,2.8301,0.0,0.0,0.0,2.7851,2.7422,2.7669,2.7832,2.8203,0.0,2.9199,2.9375,3.0,3.0332,3.043,3.0195,3.0332,3.0586,3.084,3.0898,3.0801,3.0547,3.0508,3.041,3.0176,3.0156,3.0234,3.0469,3.0508,3.0605,3.0859,3.0898,3.0801,3.0605,3.0527,3.0449,3.0312,3.0234,3.0312,3.0586,3.0586,3.0684,3.0898,3.0898,3.0898,3.0898,3.0898,3.0898,3.0898,3.0898,3.0781,3.0566,3.0312,3.0098,2.9902,2.9668,2.9531,2.9473,2.9473,2.9629,2.9844,2.9805,2.9687,2.9548,0.0,0.0,0.0,0.0,0.0,0.0,0.0,0.0,0.0,0.0,0.0,0.0,0.0,0.0,0.0,0.0,2.8975,2.8975,2.8975,2.8975,2.8975,2.8975,2.8975,2.8975,2.8975,2.8975,2.8975,2.8975,2.8975,2.9297,2.9883,3.0625,3.1347,3.2028,3.2047,3.1584,3.0879,3.1324,3.1034,3.0238,3.0236,3.0195,3.0137,2.9609,2.9199,2.8906,2.8789,2.8555,2.8301,2.8301,2.8301,2.8301,2.8301,2.8301,0.0,0.0,0.0,0.0,0.0,0.0,2.8086,2.8633,2.8848,2.9023,0.0,0.0,2.9941,0.0,2.9824,3.0137,3.0488,3.0566,3.0449,3.0098,3.0039,2.9961,2.9766,2.9726,2.9883,3.0332,3.0371,3.0508,3.0859,3.0898,3.084,3.0723,3.0508,3.0469,3.0703,3.0488,3.0527,3.0879,3.0898,3.0898,3.0898,3.0898,3.084,3.0723,3.0723,3.0723,3.0703,3.0605,3.0625,3.0684,3.0234,2.998,2.9844,2.9414,2.9062,2.8769,2.8887,2.9043,2.9238,2.9121,2.9082,2.9059,0.0,0.0,0.0,0.0,0.0,0.0,0.0,0.0,0.0,0.0,0.0,0.0,2.8975,2.8975,2.8975,2.8975,2.8975,2.8975,2.8975,2.8975,2.8975,2.8975,2.8975,0.0,2.8975,2.8975,2.8975,2.8975,2.8975,2.9554,3.0547,3.0283,3.1081,3.2731,3.2731,3.2293,3.1543,3.15,3.1484,3.1327,3.0527,3.0195,3.0098,2.9277,2.8945,2.8867,2.8476,2.832,2.8301,2.8301,2.8301,2.8301,2.8301,2.8301,2.8301,0.0,0.0,0.0,0.0,2.6758,0.0,2.8125,2.8633,0.0,0.0,0.0,2.9646,2.957,2.9646,2.9665,2.9629,2.9704,2.9629,2.9665,2.9609,2.9726,3.0117,3.0156,3.0332,3.0801,3.0859,3.0859,3.0898,3.0898,3.0703,3.0273,3.0625,3.0664,3.0254,3.0625,3.0859,3.0898,3.0898,3.0898,3.0898,3.0898,3.0664,3.0234,3.0234,3.0234,3.0215,2.9824,2.9863,3.0215,2.9785,2.9375,2.8945,2.8535,2.834,2.8359,2.8769,2.8691,2.8457,2.9238,2.8789,2.7865,0.0,0.0,0.0,0.0,0.0,0.0,0.0,0.0,0.0,0.0,0.0,0.0,0.0,2.8975,2.8975,2.8975,2.8975,2.8975,2.8975,2.8975,2.8975,2.8975,2.8975,2.8975,2.8975,2.8975,2.8975,2.8975,2.8975,2.9434,3.0264,3.0385,3.0971,3.1996,3.1725,3.1747,3.1927,3.1347,3.1113,3.1035,3.0156,2.9785,2.9707,2.8848,2.8516,2.8457,2.8047,2.8242,2.8613,2.8066,2.8242,2.8652,2.8379,2.8105,2.7793,2.7226,2.7246,0.0,0.0,0.0,0.0,2.7871,2.8203,2.8555,2.8711,2.8965,2.9082,2.8809,2.8965,2.9062,2.8809,2.9199,2.9473,2.9199,2.9141,2.9199,2.9355,2.9375,2.9648,3.0351,3.0449,3.0566,3.0859,3.0898,3.082,3.0644,3.0801,3.082,3.0644,3.0801,3.0898,3.0898,3.0898,3.0898,3.0898,3.0898,3.0664,3.0195,3.0195,3.0059,2.9785,2.9704,2.9704,2.9766,2.9336,2.9062,2.8848,2.7871,2.7637,2.7871,2.7754,2.7949,2.8301,2.834,2.8276,2.8008,0.0,0.0,0.0,2.4621,0.0,2.6779,2.8122,2.8301,2.8498,2.8916,0.0,0.0,0.0,0.0,2.8975,2.8975,2.8975,2.8975,2.8975,2.8975,2.8975,2.8975,2.8975,2.8975,2.8975,2.9104,2.9122,2.8975,2.9241,2.9628,3.0058,3.0265,3.0792,3.1552,3.0837,3.117,3.2129,3.1562,3.123,3.1016,2.998,2.9648,2.9707,2.8984,2.873,2.8691,2.8452,2.8574,2.8789,2.7949,2.8047,2.8457,2.8164,2.7943,2.7552,2.6641,2.6894,0.0,2.6406,0.0,0.0,0.0,0.0,2.791,2.8047,0.0,2.8418,2.8144,2.8418,2.8633,2.834,2.875,2.9043,2.875,2.8711,2.8809,2.9101,2.9141,2.9453,3.0332,3.043,3.0547,3.0859,3.0898,3.0898,3.0898,3.0898,0.0,3.0898,3.0898,3.0898,3.0898,3.0742,3.0664,3.0664,3.0508,3.0215,2.9766,2.9766,2.9609,2.9355,2.9199,2.9297,2.9531,2.8652,2.8437,2.8633,2.7637,2.7246,2.7226,2.707,2.7363,2.7851,2.7715,2.7754,2.7812,2.1145,2.2959,2.4455,2.4455,2.4817,2.5546,2.684,2.7082,2.7504,2.8797,0.0,0.0,0.0,0.0,0.0,2.8975,2.8975,2.8975,2.8975,2.8975,2.8975,2.8975,2.8975,2.8975,2.8975,2.9402,2.942,2.8957,2.974,3.0039,2.9922,2.9853,3.0393,3.1445,3.0176,3.0605,3.219,3.217,3.1875,3.1406,3.0117,2.9824,3.0156,2.9726,2.9607,2.9587,2.9567,2.9258,2.8789,2.7949,2.7748,2.7767,2.7748,2.7728,2.7532,2.6641,2.668,0.0,0.0,0.0,0.0,0.0,0.0,0.0,2.7611,0.0,2.7708,2.7728,2.7988,2.8281,2.8301,2.8301,2.8301,2.8301,2.8301,2.8594,2.9489,2.957,2.9902,3.0762,3.0879,3.0898,3.0898,3.0898,3.0879,3.0879,3.0879,3.0879,3.0879,3.0879,3.0879,3.0879,3.043,3.0176,3.0156,2.9746,2.9316,2.8887,2.8906,2.8906,2.8867,2.8476,2.875,2.947,2.7754,2.75,2.8203,2.7793,2.7129,2.6426,2.6816,2.6992,2.707,2.748,2.7383,2.7148,2.279,2.445,2.583,2.583,2.7004,2.8002,2.8361,2.8439,2.8558,0.0,0.0,0.0,2.8975,2.8975,2.8975,2.8975,2.8975,2.8975,2.8975,2.8975,2.8975,2.8975,2.9213,2.9142,2.8572,2.9412,2.9471,2.8886,2.9589,3.0035,3.0255,2.9969,3.0238,3.1055,3.0684,3.0801,3.123,3.0879,3.1035,3.1426,3.043,3.0098,3.0117,2.9375,2.8906,2.8613,2.8354,2.8516,2.8789,2.7949,2.8335,2.8926,2.832,2.7695,2.709,2.6543,2.6465,0.0,2.6269,0.0,0.0,0.0,0.0,0.0,2.7168,2.7187,2.7285,2.765,2.7806,2.793,2.8242,2.8301,2.8301,2.8301,2.8301,2.8476,2.9023,2.9375,2.9785,3.0332,3.0684,3.0898,3.0898,3.0898,3.0762,0.0,3.0703,3.0742,3.041,3.0703,3.0742,3.0391,2.998,2.959,2.9277,2.8848,2.8437,2.8027,2.832,2.8301,2.8027,2.8203,2.8262,2.8217,2.7748,2.7266,2.6875,2.6445,2.6328,2.6367,2.6172,2.6415,2.7031,2.7148,2.7324,2.7519,2.3958,2.5571,2.6976,2.6976,2.8102,2.8975,2.8975,2.8847,2.8792,0.0,0.0,0.0,2.8975,2.8975,2.8975,2.8975,2.8975,2.8961,2.8913,2.8895,2.888,2.883,2.9004,2.895,2.8496,2.9385,2.9596,2.9008,2.9903,3.0388,3.0372,2.9948,3.0024,3.0586,3.0039,3.0,3.0312,2.9863,3.0273,3.1172,3.0293,3.0039,3.0117,2.9453,2.9043,2.8789,2.8609,2.8887,2.9277,2.8066,2.8281,2.8867,2.7832,2.7519,2.7402,2.6621,2.6641,0.0,0.0,0.0,0.0,0.0,0.0,0.0,2.6719,2.6758,2.6816,0.0,2.7266,2.7461,2.7715,2.791,2.8027,2.8027,2.8184,2.8437,2.8867,2.9141,2.9453,2.9883,3.0176,3.0332,3.0332,3.0332,3.0234,2.9961,3.0195,3.0215,2.9941,3.0195,3.0137,2.9687,2.9258,2.8828,2.8398,2.7969,2.7637,2.7402,2.7637,2.7637,2.7402,2.7656,2.7734,2.7708,2.7337,2.6953,2.6602,2.5947,2.583,2.6094,2.5791,2.6152,2.6758,2.6758,2.6914,2.7187,0.0,2.6489,2.7767,2.7822,2.8407,2.8938,2.8975,2.8682,2.859,0.0,2.8682,2.859,2.8938,2.8975,2.8957,2.8979,2.8979,2.8913,2.8797,2.876,2.8707,2.8597,2.8634,2.8615,2.8559,2.9392,2.9639,2.9241,3.0332,3.0682,3.0296,2.977,2.9707,3.0,2.8867,2.8789,2.9473,2.918,2.9707,3.0684,2.9883,2.9824,3.0137,2.9668,2.9473,2.9489,2.9489,2.9668,2.9746,2.8242,2.7949,2.8027,2.6934,2.7285,2.7871,2.6836,2.7012,0.0,0.0,0.0,0.0,2.707,2.6484,0.0,2.6309,2.6387,2.6406,2.6445,2.6758,2.7031,2.709,2.7441,2.7695,2.7669,2.7988,2.8418,2.8789,2.8887,2.9062,2.9453,2.9607,2.9626,2.9626,2.9626,2.9551,2.9548,2.9492,2.9492,2.9492,2.9492,2.9277,2.8789,2.8379,2.7949,2.7571,2.709,2.6875,2.6875,2.6914,2.6953,2.6953,2.6992,2.7207,2.7532,2.6719,2.6582,2.6816,2.6005,2.5693,2.5693,2.5693,2.5996,2.6387,2.6387,2.6426,2.6562,2.6245,2.6847,2.7454,2.7767,2.8168,2.8608,2.8938,2.892,2.8902,2.8975,2.892,2.8902,2.8975,2.8975,2.8965,2.8867,2.883,2.8779,2.8653,2.8634,2.8653,2.8578,2.8841,2.8745,2.8105,2.9103,2.9329,2.8646,2.9482,2.9846,2.9748,2.9241,2.9082,2.916,2.8906,2.8887,2.9082,2.9687,2.9902,2.9805,2.9704,2.9824,3.0117,2.9336,2.8848,2.8535,2.8535,2.8594,2.8613,2.8281,2.8008,2.7865,2.7891,2.7383,2.6855,2.7285,0.0,0.0,0.0,0.0,0.0,2.7461,2.7148,0.0,2.6445,2.6387,2.6484,0.0,2.6953,2.7129,2.748,2.7891,2.7949,2.7246,2.7793,2.832,2.8398,2.8711,2.8945,2.9043,2.9355,2.9626,2.9626,2.9626,2.9414,2.9062,2.9043,2.9043,2.9043,2.9043,2.8691,2.793,2.748,2.707,2.6641,2.6211,2.5927,2.5947,2.6348,2.6504,2.6523,2.6855,2.6875,2.6621,2.6465,2.623,2.5927,2.5752,2.5693,2.5693,2.5693,2.5996,2.6387,2.6387,2.6602,2.6973,2.6591,2.6903,2.7362,2.7748,2.8113,2.8535,2.892,2.881,2.8755,2.8957,2.8975,2.8961,2.8935,2.8898,2.8867,2.8746,2.8708,0.0,0.0,2.8536,2.8496,2.8452,2.8616,2.8501,2.818,2.8859,2.9085,2.8707,2.93,2.9626,2.9607,2.9121,2.8926,2.8906,2.8711,2.8613,2.8633,2.9644,2.9908,2.9626,2.9626,2.957,2.9492,2.8848,2.8476,2.8301,2.8301,2.8301,2.8301,2.8301,2.8437,0.0,2.7851,2.7793,2.793,0.0,2.7519,2.7383,0.0,0.0,0.0,2.7669,2.7344,0.0,0.0,2.6387,2.6445,2.666,2.6523,2.6504,2.6953,2.7207,2.7266,2.7051,2.7383,2.7812,2.8242,2.8476,2.8613,2.8613,2.8809,2.8926,2.8926,2.8926,2.8848,2.8633,2.8613,2.8516,2.8301,2.8301,2.791,2.7051,2.6816,2.6504,2.6074,2.5791,2.5693,2.5693,2.5957,2.6055,2.6074,2.6289,2.6269,2.6055,2.6055,2.5937,2.5693,2.5693,2.5693,2.5693,2.5693,2.583,2.6055,2.6055,2.6328,2.6758,2.6591,2.6848,2.7215,2.7748,2.804,2.8443,2.8902,2.8645,2.848,2.8836,2.8814,2.8803,2.8741,2.8704,2.867,2.8596,2.8558,0.0,2.8465,2.8446,2.8401,2.8301,2.8301,2.8301,2.8301,2.8633,2.8789,2.8789,2.9141,2.9316,2.9316,2.8965,2.8789,2.8789,2.8437,2.834,2.8525,2.9583,2.9796,2.9509,2.9711,2.9538,2.9121,2.8613,2.8418,2.8398,2.832,2.8301,2.8301,2.8301,2.875,2.9101,2.7793,2.8223,0.0,0.0,0.0,0.0,0.0,0.0,0.0,0.0,0.0,2.7129,0.0,0.0,0.0,0.0,0.0,0.0,0.0,0.0,0.0,0.0,0.0,0.0,0.0,2.8125,0.0,2.8281,2.8144,2.8105,2.8281,2.8301,2.8301,2.8301,2.8301,2.8066,2.7578,2.7591,2.7148,2.6289,2.6269,2.6094,2.5693,2.5693,2.5693,2.5693,2.5693,2.5693,2.5693,2.5693,2.5693,2.5693,2.5693,2.5693,2.5693,2.5693,2.5693,2.5693,2.5693,2.5693,2.5693,2.5693,2.6016,2.6445,2.6591,2.6628,2.6885,2.7693,2.7858,2.8095,2.8865,2.8645,2.8394,2.8292,2.8083,2.8122,2.8597,2.8408,2.8352,2.8512,2.8528,2.8446,2.8345,2.8306,2.834,2.8301,2.8301,2.8301,2.8301,2.834,2.8359,2.8359,2.8418,2.8437,2.8437,2.8379,2.8359,2.8359,2.832,2.8496,2.8902,3.0072,2.9917,2.9039,3.0052,3.0333,2.9961,2.916,2.8848,2.8809,2.8418,2.8301,2.8301,0.0,2.8359,2.8476,0.0,2.832,2.8061,2.8594,0.0,0.0,0.0,0.0,0.0,0.0,2.8457,2.793,0.0,0.0,2.6953,2.6953,0.0,0.0,0.0,0.0,0.0,0.0,0.0,0.0,2.7148,2.75,2.7871,2.8242,2.7617,2.7461,2.8223,2.8301,2.8301,2.8301,2.8301,2.793,2.7129,2.709,2.6699,2.5791,2.5752,2.5732,2.5693,2.5693,2.5693,2.5693,2.5693,2.5693,2.5693,2.5693,2.5693,2.5693,2.5693,2.5693,2.5693,2.5693,2.5693,2.5693,2.5693,2.5693,2.5693,2.5693,2.6016,2.6445,2.6536,2.6591,2.6756,2.7325,2.7416,2.7618,2.8244,2.8305,2.831,2.8427,2.8333,2.8371,2.8517,2.8442,2.8382,2.8377,2.8412,2.8388,2.8301,2.8301,2.8301,2.8301,2.8301,2.8301,2.8301,2.8301,2.8301,2.8301,2.8301,2.8301,2.8281,0.0,2.9391,2.9688,3.0056,3.0496,3.0967,3.2128,3.1918,3.0882,3.1689,3.1921,3.1519,2.9357,2.8555,2.8535,2.8359,2.8301,2.8262,0.0,2.8418,0.0,0.0,0.0,0.0,2.8965,0.0,0.0,0.0,0.0,0.0,0.0,0.0,0.0,2.7539,0.0,2.7324,0.0,0.0,0.0,0.0,0.0,0.0,0.0,2.6582,0.0,0.0,0.0,2.6992,0.0,0.0,0.0,2.791,0.0,0.0,2.7578,2.8008,2.793,2.707,2.7012,2.6738,2.6133,2.581,2.5693,2.5693,2.5693,2.5693,2.5693,2.5693,2.5693,2.5693,2.5693,2.5693,2.5693,2.5693,2.5693,2.5693,2.5693,2.5693,2.5693,2.5693,2.5693,2.5693,2.5693,2.6016,2.6445,2.6353,2.6518,2.6719,2.7105,2.7178,2.7326,2.7676,2.7995,2.8183,2.8406,2.835,2.8347,2.8427,2.8388,2.8308,2.832,2.8301,2.8301,2.8301,2.8301,2.8301,2.8301,2.8301,2.8301,2.8301,2.8301,2.8301,2.8301,2.8601,2.8761,2.8741,0.0,0.0,0.0,3.156,3.2009,3.2441,3.3526,3.3321,3.2232,3.2818,3.2875,3.2283,3.0166,2.9318,2.9217,2.9217,2.9006,2.8721,2.8542,2.8883,0.0,2.8813,2.9218,2.9783,0.0,0.0,0.0,2.8887,0.0,0.0,0.0,0.0,0.0,0.0,0.0,0.0,0.0,0.0,0.0,0.0,0.0,0.0,0.0,0.0,2.6816,0.0,0.0,0.0,0.0,0.0,0.0,0.0,0.0,2.7656,2.7226,2.7773,2.7754,2.6894,2.6836,2.6641,2.623,2.5898,2.5693,2.5693,2.5693,2.5693,2.5693,2.5693,2.5693,2.5693,2.5693,2.5693,2.5693,2.5693,2.5693,2.5693,2.5693,2.5693,2.5693,2.5693,2.5752,2.5898,2.5732,2.5937,2.6269,2.6021,2.6316,2.6719,2.7105,2.7178,2.7289,2.753,2.7845,2.7969,2.7949,2.7622,2.7676,2.8267,2.8087,2.8033,2.8301,2.8301,2.8301,2.8301,2.8301,2.8301,2.8301,2.8301,2.8301,2.8301,2.8301,2.8301,2.8301,2.9355,2.988,2.988,3.1,0.0,0.0,3.2118,3.2315,3.2285,3.3475,3.3321,3.2241,3.2926,3.2594,3.1673,0.0,3.1823,3.1483,3.1483,0.0,0.0,3.0376,2.9809,0.0,0.0,0.0,0.0,0.0,0.0,0.0,0.0,0.0,0.0,2.8789,0.0,0.0,0.0,0.0,2.7708,0.0,0.0,0.0,0.0,0.0,0.0,0.0,0.0,0.0,0.0,0.0,0.0,0.0,0.0,0.0,0.0,2.8027,2.8105,2.7728,2.7728,2.7356,2.6445,2.6406,2.6211,2.5732,2.5693,2.5693,2.5693,2.5693,2.5693,2.5693,2.5693,2.5693,2.5693,2.5693,2.5693,2.5693,2.5693,2.5693,2.5693,2.5693,2.5693,2.5693,2.5693,2.5996,2.6309,2.5898,2.5693,2.5771,2.5966,2.6298,2.6682,2.7012,2.7085,2.7249,2.7704,2.7848,2.8049,2.8529,2.8474,2.8591,2.9101,2.9085,2.9085,2.9141,2.8867,2.8711,2.8711,2.8437,2.8301,2.8301,2.8301,2.8301,2.8301,2.8301,2.8654,2.9355,2.9723,3.0276,3.1051,3.2145,3.2881,0.0,3.4143,3.4466,3.4489,3.5247,3.496,0.0,0.0,3.3807,3.3073,0.0,3.1717,3.1586,3.1586,3.1359,0.0,3.1193,3.1189,3.1,3.0482,3.0912,3.1419,3.0805,3.0245,2.9842,0.0,0.0,2.832,2.8476,0.0,0.0,0.0,0.0,0.0,0.0,0.0,0.0,0.0,0.0,0.0,0.0,0.0,0.0,0.0,0.0,0.0,0.0,0.0,0.0,0.0,0.0,0.0,2.6836,2.6816,2.6816,2.6797,2.6543,2.6445,2.6582,2.5986,2.5693,2.5693,2.5693,2.5693,2.5693,2.5693,2.5693,2.5693,2.5693,2.5693,2.5693,2.5693,2.5693,2.5693,2.5693,2.5693,2.5693,2.5693,2.5996,2.6367,2.623,2.6172,2.623,2.5841,2.6417,2.6844,2.6803,2.6927,2.7252,2.7833,2.8076,2.8397,2.8832,2.9062,2.9258,2.9607,2.9626,2.9626,2.9626,2.9316,2.9082,2.8926,2.8672,2.8437,2.8301,2.8301,2.8301,2.8301,2.8654,2.9217,2.9932,3.0691,3.1462,3.2174,3.325,3.384,3.4053,3.5127,3.54,3.5112,3.5833,3.5617,0.0,0.0,3.4693,0.0,0.0,3.2954,3.3277,0.0,3.2611,3.2418,3.224,3.209,3.1823,3.0849,3.1115,3.1699,3.1138,3.0684,3.0367,3.0367,2.9632,0.0,2.8388,2.8301,0.0,2.8301,0.0,2.8223,0.0,0.0,0.0,0.0,0.0,0.0,0.0,0.0,0.0,0.0,2.7246,0.0,0.0,0.0,0.0,0.0,0.0,2.666,2.6191,2.6309,2.6445,0.0,0.0,2.6348,2.6777,2.6064,2.5693,2.5693,2.5693,2.5693,2.5693,2.5693,2.5693,2.5693,2.5693,2.5693,2.5693,2.5693,2.5693,2.5693,2.5693,2.5693,2.5693,2.5693,2.6094,2.6602,2.6445,2.6387,2.6465,2.5686,2.6551,2.7163,2.6574,2.685,2.7353,2.7849,2.849,2.8926,2.8945,2.9336,2.9665,2.9629,2.9629,2.9629,2.9629,2.9609,2.9434,2.9004,2.8945,2.875,2.834,2.8301,2.8301,2.8301,0.0,0.0,0.0,0.0,3.325,3.33,3.4311,3.451,3.4078,3.5111,3.4991,3.4054,3.5111,3.5304,3.4775,3.4775,3.5136,3.5569,3.5015,3.5497,3.6266,3.5208,3.4495,3.3968,3.3461,3.26,3.1761,3.1688,3.0949,3.0328,3.1308,3.0845,2.9964,2.9932,2.988,2.9565,2.8548,2.8301,0.0,0.0,0.0,2.8301,0.0,0.0,0.0,0.0,0.0,0.0,0.0,0.0,0.0,0.0,0.0,0.0,0.0,0.0,0.0,0.0,2.7669,2.7051,2.5791,2.6094,2.6152,0.0,0.0,2.5977,2.6406,2.5977,2.5693,2.5693,2.5693,2.5693,2.5693,2.5693,2.5693,2.5693,2.5693,2.5693,2.5693,2.5693,2.5693,2.5693,2.5693,2.5693,2.5693,2.5693,2.62,2.6973,2.6582,2.6445,2.6562,2.6058,2.6669,2.7194,2.7027,2.7323,2.7688,2.8116,2.8598,2.9043,2.9355,2.9766,3.0176,3.0508,3.0547,3.0547,3.0547,3.0234,2.998,2.9883,0.0,0.0,2.8769,2.8457,2.8301,2.8301,2.9355,3.0328,3.1154,0.0,3.3598,3.4433,3.4677,3.4703,0.0,0.0,3.4991,3.4054,3.5111,3.5304,3.4775,3.4775,3.5136,3.5593,0.0,3.5833,3.6266,3.5208,3.4963,3.5123,3.455,3.4473,3.436,3.3165,3.3151,3.33,3.1971,3.1359,3.0949,3.012,2.9303,2.8654,2.8388,2.8301,2.8301,0.0,0.0,0.0,0.0,0.0,0.0,0.0,0.0,0.0,0.0,0.0,0.0,0.0,0.0,0.0,2.8086,0.0,0.0,2.7708,2.6797,2.6094,2.5713,2.5527,2.5644,2.6191,0.0,0.0,2.6836,2.6083,2.5693,2.5693,2.5693,2.5693,2.5693,2.5693,2.5693,2.5693,2.5693,2.5693,2.5693,2.5693,2.5693,2.5693,2.5693,2.5693,2.5693,2.5693,2.62,2.7031,2.7266,2.7395,2.7376,2.6301,2.6557,2.695,2.7369,2.7396,2.7656,2.8437,2.8613,2.8867,2.9548,2.9941,3.0293,3.0566,3.0762,3.0898,3.0898,3.0644,0.0,3.0215,0.0,0.0,2.8926,2.8516,2.8301,2.8301,2.9172,0.0,3.1586,0.0,3.3609,3.4775,3.4775,0.0,0.0,0.0,3.4751,3.403,3.4631,3.4703,3.4438,3.4438,3.4751,0.0,3.528,3.5593,3.5954,3.5087,3.5111,3.5545,3.4967,3.4967,3.5011,3.3641,3.3598,3.3869,3.265,3.2297,3.2072,3.0949,3.0193,2.9533,2.8548,2.8301,2.8301,2.8301,2.8301,2.8301,0.0,2.8105,2.7891,0.0,0.0,0.0,0.0,0.0,0.0,0.0,0.0,0.0,0.0,2.7754,2.7519,2.7402,2.6211,2.5527,2.5674,2.5508,2.5586,0.0,0.0,0.0,2.6738,2.6269,2.6016,2.6016,2.6016,2.5869,2.5693,2.5693,2.5693,2.5693,2.5693,2.5693,2.5693,2.5693,2.5693,2.5693,2.5693,2.5693,2.5732,2.6103,2.6582,2.709,2.7715,2.7832,2.7708,2.6387,2.6387,2.668,2.7434,2.7285,2.7519,2.873,2.8652,2.875,2.9551,3.0019,3.0293,3.0293,3.0644,3.0898,3.0898,3.0898,3.0723,3.0312,2.9844,2.9394,2.9023,2.8555,2.8262,2.8203,2.8909,2.9998,0.0,3.2229,3.3377,3.4775,3.4775,0.0,0.0,0.0,0.0,0.0,3.391,3.3934,3.3982,3.3982,3.4318,3.4799,3.4847,3.5184,3.5449,3.5064,3.5183,3.5545,3.4967,3.4823,3.4724,3.372,3.34,3.34,3.325,3.3247,3.3092,3.1891,3.157,3.1068,2.9046,2.8486,2.8437,2.832,2.834,2.8379,2.8379,2.8281,2.8008,0.0,0.0,0.0,0.0,0.0,0.0,0.0,0.0,0.0,0.0,0.0,0.0,2.7168,2.6016,2.5469,2.5752,2.583,0.0,0.0,0.0,0.0,2.6387,2.6387,2.6387,2.6387,0.0,2.6191,2.5771,2.5713,2.5693,2.5693,2.5693,2.5693,2.5693,2.5693,2.5693,2.5693,2.5752,2.5771,2.5849,2.6699,2.7012,2.7109,2.791,2.8008,2.7793,2.5888,2.6426,2.6836,2.6641,2.7129,2.7871,2.8769,2.916,2.9531,3.0019,3.0488,3.0762,3.0762,3.084,3.0898,3.0898,3.0898,0.0,0.0,0.0,0.0,2.9453,2.8711,2.8125,2.7793,2.8798,2.9851,3.1024,3.2097,3.3377,3.4775,3.4775,0.0,0.0,0.0,0.0,3.3958,3.3597,0.0,3.3982,3.3982,3.4318,3.4823,3.5304,3.5256,3.5016,3.5352,3.5545,3.5545,3.4967,3.5063,3.5351,3.4723,3.4531,3.436,3.3449,3.3499,3.3526,3.198,3.1527,3.1133,2.9908,2.9493,2.916,2.8457,2.8555,2.8809,2.8809,2.8262,2.7949,2.8496,0.0,0.0,0.0,0.0,0.0,0.0,0.0,0.0,0.0,0.0,2.6934,0.0,2.7031,2.6562,2.6289,0.0,0.0,0.0,0.0,0.0,0.0,2.6387,0.0,0.0,0.0,2.6348,2.6269,2.5849,2.5693,2.5693,2.5693,2.5693,2.5693,2.5693,2.5693,2.5713,2.6133,2.6269,2.6328,2.6816,2.7012,2.709,2.7578,2.7949,2.8086,2.5771,2.625,2.6699,2.6719,2.7051,2.7695,2.875,2.9101,2.9473,3.0117,3.0391,3.0527,3.0527,3.0742,3.0801,3.0547,3.0762,3.0703,3.0234,2.9805,2.9473,2.9238,2.8633,2.8203,2.7988,2.8058,2.9145,3.1287,3.1377,3.2425,3.4366,3.4655,0.0,3.4366,0.0,3.4222,0.0,0.0,0.0,3.3645,3.3645,3.3958,3.4414,3.4967,3.4991,3.4799,3.5063,3.5208,3.516,3.4871,3.4943,3.516,3.4847,3.4775,3.4677,3.4164,3.4419,3.452,3.3203,3.2982,3.2896,3.1837,3.1075,3.0429,3.0005,2.9416,2.8926,2.8926,2.8418,2.8125,2.8516,2.8086,0.0,0.0,0.0,0.0,0.0,0.0,2.7168,0.0,0.0,0.0,0.0,0.0,0.0,0.0,0.0,0.0,0.0,0.0,0.0,0.0,0.0,0.0,0.0,0.0,0.0,2.6387,2.5937,2.5693,2.5693,2.5693,2.5693,2.5693,2.5693,2.581,2.6113,2.6543,2.6582,2.6445,2.709,2.7344,2.7402,2.7832,2.8125,2.8242,2.5869,2.6152,2.6543,2.707,2.7226,2.7695,2.8867,2.9062,2.9336,3.0098,3.0195,3.0195,3.0195,3.0605,3.0703,3.0234,3.0527,3.0449,2.9746,2.9531,2.9277,2.8945,2.8516,2.8262,2.8164,2.7402,2.8381,3.1258,3.0614,3.1576,3.4006,0.0,0.0,0.0,0.0,0.0,0.0,0.0,3.2899,3.3308,3.3404,3.3741,3.4198,3.4631,3.4775,3.4775,3.4775,3.4775,3.4775,3.4775,3.4775,3.4775,3.4775,3.4847,3.4943,3.4943,3.5449,3.5729,3.4778,3.4786,3.4863,3.3793,3.2782,3.202,3.181,3.0656,2.9545,2.9446,2.8873,2.8398,2.832,2.7949,0.0,0.0,0.0,0.0,0.0,0.0,0.0,0.0,0.0,0.0,2.6269,0.0,0.0,0.0,0.0,0.0,2.5458,0.0,0.0,0.0,0.0,2.7109,2.7285,0.0,2.6934,2.6797,2.6172,2.5869,2.5947,2.5869,2.5869,2.5966,2.5966,2.625,2.668,2.7012,2.6953,2.6719,2.7454,2.7728,2.7767,2.8047,2.8223,2.8301,2.625,2.6367,2.6641,2.7513,2.793,2.8476,2.9375,2.9512,2.9668,3.0137,3.0195,3.0195,3.0195,3.0605,3.0703,3.0234,3.0234,3.0234,3.0137,2.9414,2.8965,2.8926,2.8516,2.8125,2.7787,2.7266,2.8076,0.0,3.0285,3.1576,0.0,0.0,0.0,0.0,0.0,0.0,0.0,3.3044,3.3236,3.3332,3.3742,3.4246,3.4703,3.4751,3.4775,3.4775,3.4775,3.4775,3.4775,3.4775,3.4775,3.4775,3.4775,3.5111,3.5545,3.5545,3.6266,3.694,3.6357,3.6098,3.581,3.4893,3.4365,3.391,3.3202,3.2335,3.1601,3.1264,2.9908,2.875,2.8359,2.7949,2.7728,0.0,0.0,0.0,0.0,0.0,2.7148,2.583,0.0,0.0,0.0,2.6523,0.0,0.0,2.6512,0.0,0.0,0.0,0.0,2.5713,0.0,2.7383,2.8164,2.7402,2.7383,2.8105,2.6894,2.6523,2.6875,2.6504,2.6543,2.6894,2.6894,2.7148,2.7611,2.765,2.763,2.7611,2.7689,2.7728,2.7728,2.7767,2.7969,2.8301,2.6719,2.6973,2.7266,2.7669,2.8008,2.8496,2.9082,2.918,2.9336,2.9766,2.9824,2.9922,3.0176,3.0137,2.9922,2.9473,2.9668,2.9609,2.9082,2.8965,2.8809,2.8555,2.8379,2.8086,2.7728,2.7246,2.8036,0.0,0.0,0.0,0.0,0.0,0.0,0.0,0.0,3.2899,3.2515,3.2731,3.2996,3.3332,3.379,3.4318,3.4775,3.4775,3.4775,3.4775,3.4775,3.4775,3.4775,3.4775,3.4775,3.4847,3.5208,3.5449,3.5689,3.6002,3.6603,3.7156,3.694,3.7106,3.7002,3.5887,3.5042,3.4137,3.3138,3.1875,3.0794,3.0409,2.9387,2.8496,2.832,2.8164,2.8047,2.8047,0.0,0.0,0.0,0.0,0.0,2.5098,0.0,2.5312,0.0,0.0,0.0,0.0,0.0,0.0,0.0,0.0,0.0,2.6504,0.0,2.7422,2.8281,2.7695,2.7715,2.8281,2.7246,2.6855,2.7012,2.6836,2.6855,2.7031,2.7285,2.7363,2.7324,2.7832,2.7891,2.7748,2.7949,2.8047,2.8047,2.8047,2.8144,2.8301,2.7187,2.7559,2.7891,2.8008,2.8281,2.8672,2.9219,2.8965,2.8984,2.9668,2.9434,2.9355,2.9766,2.9668,2.9394,2.8945,2.9199,2.9121,2.8516,2.8633,2.8594,2.8301,2.8301,0.0,2.7728,2.7246,2.7925,2.9877,2.9996,0.0,0.0,0.0,0.0,0.0,3.2659,3.2491,3.2515,3.2659,3.3044,3.3549,3.4006,3.4438,3.4775,3.4775,3.4775,3.4775,3.4775,3.4775,3.4775,3.4775,3.4775,3.4895,3.528,3.5593,3.593,3.629,3.6892,3.7421,3.7421,3.7685,3.7814,3.6935,3.61,3.5168,3.4022,3.2529,3.1107,3.0013,2.918,2.8633,2.8496,2.8476,2.8437,2.832,0.0,0.0,0.0,2.6875,0.0,0.0,2.5019,2.498,2.4473,2.4922,0.0,0.0,0.0,0.0,0.0,0.0,0.0,0.0,0.0,0.0,0.0,2.793,2.8008,2.8652,2.7676,2.7266,2.7383,2.7383,2.7383,2.7402,2.7715,2.7676,2.7441,2.8047,2.8125,2.7871,2.8184,2.8301,2.8301,2.8301,2.8301,2.8301,2.763,2.7988,2.8418,2.8828,2.8906,2.9199,3.0059,2.9121,2.875,3.0019,2.9082,2.8476,2.8887,2.9316,2.9394,2.8945,2.8926,2.8926,2.8906,2.8535,2.8301,0.0,0.0,2.8086,2.7728,2.7246,2.7783,2.9328,0.0,0.0,3.2515,0.0,3.302,3.2515,3.2491,3.2491,3.2539,3.3068,3.3573,3.403,3.4558,3.4775,3.4775,3.4775,3.4775,3.4775,3.4775,3.4775,3.4775,3.4775,3.4775,3.4775,3.4799,3.5545,3.6386,3.6411,3.7156,3.7974,3.7974,3.7974,3.7974,3.7974,3.7974,3.7655,3.6449,3.5223,3.357,3.0767,2.9844,2.9414,2.8984,2.8906,2.8769,2.8359,0.0,0.0,0.0,0.0,0.0,2.583,2.6415,2.6309,2.459,2.5167,0.0,0.0,0.0,0.0,0.0,0.0,0.0,2.5165,2.6348,0.0,2.8906,2.8086,2.8354,2.9607,2.8315,2.7871,2.8281,2.8281,2.8281,2.8281,2.8281,2.8281,2.8281,2.8281,2.8281,2.8281,2.8301,2.8301,2.8301,2.8301,2.8301,2.8301,2.8066,2.8437,2.8672,2.8516,2.873,2.9004,2.9277,2.8984,2.8867,2.9277,2.8965,2.8652,2.8516,2.8613,2.8652,0.0,2.8496,2.8496,0.0,2.8359,2.8301,2.8301,2.8301,2.8086,2.7728,2.7923,2.8458,2.928,0.0,0.0,0.0,3.2683,3.2466,3.1937,3.1937,3.2154,3.2539,3.3068,3.3573,3.403,3.4558,3.4775,3.4775,3.4775,3.4775,3.4775,3.4775,3.4775,3.4775,3.4775,3.5015,3.5376,3.5376,3.5833,3.6483,3.6843,3.7445,3.7974,3.7974,3.7974,3.7814,3.6989,3.6773,3.648,3.5223,3.3853,3.2294,3.0557,2.9863,2.9531,2.9394,2.9121,2.8867,2.875,2.8476,0.0,2.7129,0.0,2.6738,2.543,2.5527,2.5352,2.4492,2.4941,0.0,0.0,0.0,0.0,0.0,0.0,0.0,0.0,2.6797,0.0,2.8906,2.8379,2.8437,2.9121,2.8418,2.8164,2.8301,2.8301,2.8301,2.8301,2.8301,2.8301,2.8301,2.8301,2.8301,2.8301,2.8301,2.8301,2.8301,2.8301,2.8301,2.8301,2.8301,2.8769,2.8984,2.8398,2.8769,2.9101,2.8945,2.8789,2.875,2.8906,2.8789,2.8574,2.832,2.8301,0.0,2.8301,2.8301,2.8301,2.8301,2.8301,2.8301,2.8301,2.8301,2.8086,2.7728,2.8228,0.0,2.928,3.0811,3.1779,3.2202,3.2611,3.2515,3.203,3.2223,3.2563,3.3092,3.3428,3.3861,3.4318,3.4655,3.4775,3.4775,3.4775,3.4775,3.4775,3.4775,3.4775,3.4871,3.5162,3.55,3.579,3.6157,3.6519,3.6925,3.7136,3.7565,3.7974,3.7974,3.7974,3.7814,3.7042,3.6881,3.6534,3.5333,3.3596,3.2061,3.1288,3.0576,3.0019,2.9844,2.9767,2.9575,2.9,2.8878,2.8443,2.718,0.0,0.0,0.0,0.0,0.0,0.0,2.5312,2.5712,0.0,0.0,0.0,0.0,0.0,0.0,2.6543,2.7012,0.0,2.8672,2.8418,2.8496,2.8906,2.8496,2.8301,2.8301,2.8301,2.8301,2.8301,2.8301,2.8301,2.8301,2.8301,2.8301,2.8301,2.8301,2.8301,2.8301,2.8301,2.8301,2.8301,2.8301,2.8945,2.9219,2.8437,2.8945,2.9355,2.8945,2.8535,2.8437,2.8828,2.8535,2.8301,2.8301,2.8301,2.8301,2.8301,0.0,0.0,2.8301,2.8301,2.8301,2.8301,2.8301,2.8105,2.7767,2.8269,2.8845,2.9467,3.1506,3.225,3.1837,3.2803,3.302,3.2587,3.3068,3.3573,3.3982,3.3982,3.4294,3.4775,3.4775,3.4775,3.4775,3.4775,3.4775,3.4775,3.4775,3.4775,3.4919,3.5745,3.6038,3.6209,3.7045,3.7484,3.7615,3.7308,3.7565,3.7974,3.7974,3.7974,3.7974,3.7974,3.7974,3.7655,3.6449,3.4525,3.2913,3.2856,3.1845,3.0878,3.0427,3.0761,3.0648,2.9188,2.9413,2.9155,2.7282,0.0,0.0,0.0,0.0,0.0,2.5771,2.6152,2.6074,0.0,0.0,0.0,0.0,0.0,2.7129,2.581,2.7031,2.7871,2.8281,2.8301,2.8496,2.8867,2.8476,2.8301,2.8301,2.8301,2.8301,2.8301,2.8301,2.8301,2.8301,2.8301,2.8301,2.8301,2.8301,2.8301,2.8301,2.8301,2.8301,2.8301,0.0,0.0,2.8535,2.832,2.8457,2.8555,2.8457,2.8359,2.832,2.8437,2.8359,2.8301,2.8301,2.8301,2.8301,2.8301,2.8301,2.8301,2.8301,2.8301,2.8301,2.8301,2.8301,2.8242,2.8144,2.8663,2.9657,3.1049,3.2017,3.2635,3.2899,3.3164,3.3212,3.3116,3.3236,3.3573,3.3982,3.3982,3.4294,3.4775,3.4775,3.4775,3.4775,3.4775,3.4775,3.4775,3.4775,3.4775,3.4919,3.5818,3.6305,3.6719,3.7305,3.784,3.8153,3.7636,3.7722,3.7974,3.7974,3.7974,3.7974,3.7974,3.7974,3.7655,3.6449,3.5795,3.5113,3.4168,3.3063,3.2264,3.2142,3.1187,3.0241,2.9528,2.8987,2.8305,2.718,2.6738,0.0,0.0,2.6191,2.6348,2.625,2.6328,2.6582,0.0,0.0,0.0,0.0,2.7812,2.7695,2.6738,2.7324,2.7871,2.8281,2.8301,2.834,2.8437,2.834,2.8301,2.8301,2.8301,2.8301,2.8301,2.8301,2.8301,2.8301,2.8301,2.8301,2.8301,2.8301,2.8301,2.8301,2.8301,2.8301,2.8301,2.8301,2.8437,2.8516,2.832,2.8457,2.8516,2.832,2.8301,2.8301,2.8301,2.8301,2.8301,2.8301,2.8301,2.8301,2.8301,2.8301,2.8301,2.8301,2.8301,2.8301,2.8301,2.8301,2.8301,2.8301,2.8825,2.9928,3.1613,3.2676,3.3236,3.3308,3.3765,3.3861,3.3645,3.3885,3.415,3.4366,3.4366,3.451,3.4775,3.4775,3.4775,3.4775,3.4775,3.4775,3.4775,3.4775,3.4775,3.4944,3.6036,3.6597,3.6962,3.7843,3.8282,3.8348,3.8212,3.8178,3.8133,3.8027,3.808,3.8133,3.8027,3.7974,3.7814,3.7173,3.6611,3.6013,3.5333,3.428,3.3459,3.3459,3.2385,3.1175,3.0253,2.934,2.8249,2.6906,2.6523,2.6309,2.6055,2.625,2.6465,2.666,2.6855,2.709,2.7344,2.7519,0.0,2.7728,2.8242,2.8281,2.7617,2.7832,2.8242,2.8867,2.8887,2.8887,2.8867,2.8672,2.8574,2.8574,2.8379,2.8301,2.8301,2.8301,2.8301,2.8301,2.8301,2.8301,2.8301,2.8301,2.8301,2.8301,2.8301,2.8301,2.8301,2.8301,2.8574,2.8711,2.8359,2.8594,2.8711,2.834,2.8301,2.8301,2.8301,2.8301,2.8301,2.8301,2.8301,2.8301,2.8301,2.8301,2.8301,2.8301,2.8301,2.8301,2.8301,2.8301,2.8301,2.8301,2.8981,3.0192,3.1819,3.3267,3.3861,3.3549,3.4414,3.4534,3.4126,3.4583,3.4775,3.4775,3.4775,3.4775,3.4775,3.4775,3.4775,3.4775,3.4775,3.4775,3.4775,3.4775,3.4775,3.4992,3.6351,3.6816,3.7061,3.8341,3.8631,3.8526,3.8684,3.8631,3.8421,3.8133,3.8185,3.8315,3.8027,3.7974,3.7974,3.7974,3.7227,3.6449,3.6449,3.5498,3.467,3.467,3.3813,3.2566,3.1049,2.9943,2.8625,2.6732,0.0,2.6387,2.6387,2.6562,2.6816,2.7168,2.7539,2.7637,2.7324,2.793,2.8164,2.7924,2.8594,2.8887,2.8594,2.8516,2.8828,2.957,2.9626,2.9626,2.9626,2.9199,2.9023,2.9004,2.8574,2.8398,2.8379,2.832,2.8301,2.8301,2.8301,2.8301,2.8301,2.8301,2.8301,2.8301,2.8301,2.8301,2.8301,2.8301,2.834,2.8359,2.8301,2.834,2.8359,2.8301,2.8301,2.8301,2.8301,2.8301,2.8301,2.8301,2.8301,2.8301,2.8301,2.8301,2.8301,2.8301,2.8301,2.8301,2.8301,2.8301,2.8301,2.8301,2.9785,3.1318,3.2971,3.367,3.4174,3.4583,3.4751,3.4775,3.4655,3.4751,3.4775,3.4775,3.4775,3.4775,3.4775,3.4775,3.4775,3.4775,3.4775,3.4775,3.4775,3.4775,3.4775,3.4992,3.6351,3.6816,3.701,3.8132,3.8579,3.8684,3.8526,3.8579,3.8684,3.8421,3.8185,3.8027,3.8027,3.7974,3.7974,3.7974,3.7868,3.7708,3.7708,3.6773,3.5904,3.5904,3.4591,3.2987,3.1529,3.015,2.8727,2.7145,0.0,2.6387,2.6387,2.7344,2.8027,2.8086,2.8144,2.832,2.8594,2.8418,2.8418,2.8711,2.9199,2.9609,2.9883,2.9551,2.9434,2.9626,2.9626,2.9626,2.9626,2.9548,2.9473,2.9453,2.9023,2.8828,2.8809,2.8437,2.8301,2.8301,2.8301,2.8301,2.8301,2.8301,2.8301,2.8301,2.8301,2.8301,2.8301,2.8301,2.8301,2.8301,2.8301,2.8301,2.8301,2.8301,2.8476,2.8633,2.8633,2.8633,2.8633,2.8633,2.8437,2.8301,2.8301,2.8301,2.8301,2.8301,2.8301,2.8301,2.8301,2.8301,2.8301,2.8301,3.0242,3.1598,3.2348,3.3733,3.4534,3.4775,3.4775,3.4775,3.4775,3.4775,3.4775,3.4775,3.4775,3.4775,3.4775,3.4775,3.4775,3.4775,3.4775,3.4775,3.4775,3.4775,3.5016,3.5376,3.6297,3.6858,3.7324,3.7996,3.8473,3.8788,3.8631,3.8579,3.8579,3.8421,3.8185,3.7974,3.7974,3.7974,3.7974,3.7974,3.7974,3.7974,3.7974,3.7548,3.7173,3.7173,3.5795,3.4361,3.3444,3.1059,0.0,0.0,2.7379,2.6894,2.7363,2.8125,2.873,2.8965,2.8984,2.9062,2.9258,2.9101,2.9062,2.9258,2.9668,3.0,3.0195,3.0254,3.0156,2.9922,3.0156,3.0273,3.0273,3.0019,2.9902,2.9883,2.9219,2.8926,2.8906,2.8476,2.8301,2.8301,2.8301,2.8301,2.8301,2.8301,2.8301,2.8301,2.8301,2.8301,2.8301,2.8301,2.8301,2.8301,2.8301,2.8301,2.8301,2.8301,2.8574,2.8769,2.8769,2.8769,2.8769,2.8769,2.8476,2.8301,2.8301,2.8301,2.8301,2.8301,2.8301,2.8301,2.8301,2.8301,2.8388,2.8654,3.0608,3.1739,3.1971,3.3869,3.4775,3.4775,3.4775,3.4775,3.4775,3.4775,3.4775,3.4775,3.4775,3.4775,3.4775,3.4775,3.4847,3.4943,3.4823,3.4919,3.5184,3.5015,3.5352,3.5881,3.6461,3.7073,3.7664,3.8093,3.8526,3.8893,3.8893,3.8736,3.8473,3.8421,3.8185,3.7974,3.7974,3.7974,3.7974,3.7974,3.7974,3.7974,3.7974,3.7974,3.7974,3.7974,3.6885,3.5713,3.4993,0.0,0.0,0.0,2.8747,2.8113,2.8767,2.905,2.9336,2.9687,2.9726,2.9726,2.9726,2.9726,2.9726,2.9726,3.0117,3.0351,3.0351,3.0703,3.0723,3.0351,3.0703,3.0898,3.0879,3.0527,3.0351,3.0332,2.9473,2.9062,2.9043,2.8516,2.8301,2.8301,2.8301,2.8301,2.8301,2.8301,2.8301,2.8301,2.8301,2.8301,2.8301,2.8301,2.8301,2.8301,2.8301,2.8301,2.8301,2.8301,2.832,2.834,2.834,2.834,2.834,2.834,2.832,2.8301,2.8301,2.8301,2.8301,2.8301,2.8301,2.8301,2.8301,2.8301,2.8761,2.9775,3.097,3.2095,3.3101,3.4213,3.4775,3.4775,3.4775,3.4775,3.4775,3.4775,3.4775,3.4775,3.4775,3.4775,3.4775,3.4775,3.5112,3.5497,3.4967,3.5449,3.6218,3.5737,3.5905,3.6485,3.7273,3.7518,3.7716,3.8512,3.8998,3.9258,3.9258,3.905,3.8736,3.8473,3.8185,3.7974,3.7974,3.7974,3.7974,3.7974,3.7974,3.7974,3.7974,3.7974,3.7974,3.7974,3.7488,3.6573,3.5045,0.0,0.0,3.1717,3.0884,3.0417,3.0532,3.0294,3.0117,3.0137,3.0156,3.0156,3.0156,3.0156,3.0156,3.0156,3.0586,3.084,3.084,3.0879,3.0879,3.084,3.0879,3.0898,3.0898,3.0859,3.084,3.082,2.9922,2.9531,2.9473,2.8652,2.8301,2.8301,2.8301,2.8301,2.8301,2.8301,2.8301,2.8301,2.8301,2.8301,2.8301,2.8301,2.8301,2.8301,2.8301,2.8301,2.8301,2.8301,2.8516,2.8672,2.8672,2.8672,2.8672,2.8672,2.8437,2.8301,2.8301,2.8301,2.8301,2.8301,2.8301,2.8301,2.8301,2.8301,2.8495,2.89,2.9984,3.0742,3.1154,3.2275,3.3151,3.3819,3.3819,3.4164,3.4775,3.4775,3.4775,3.4775,3.4775,3.4775,3.4775,3.4775,3.5136,3.5593,3.54,3.5761,3.6386,3.617,3.6435,3.6916,3.7236,3.7785,3.8362,3.8505,3.8998,3.9465,3.9102,3.8788,3.8473,3.8185,3.808,3.7974,3.7974,3.7974,3.7974,3.7974,3.7974,3.7974,3.7974,3.7974,3.7974,3.7974,3.7805,3.7508,3.6872,0.0,3.4492,3.4139,3.3052,3.2351,3.2599,3.2135,3.1734,3.1734,3.1067,3.0625,3.0625,3.0625,3.0625,3.0625,3.0801,3.0898,3.0898,3.0898,3.0898,3.0898,3.0898,3.0898,3.0898,3.0898,3.0898,3.0859,2.998,2.9626,2.9531,2.8672,2.8301,2.8301,2.8301,2.8301,2.8301,2.8301,2.8301,2.8301,2.8301,2.8301,2.8301,2.8301,2.8301,2.8301,2.8301,2.8301,2.8301,2.8301,2.8535,2.8711,2.8711,2.8711,2.8711,2.8711,2.8457,2.8301,2.8301,2.8301,2.8301,2.8301,2.8301,2.8301,2.8301,2.8301,2.8301,2.8301,2.9355,2.9932,2.9932,3.1051,3.2145,3.3201,3.3201,3.377,3.4775,3.4775,3.4775,3.4775,3.4775,3.4775,3.4799,3.4967,3.54,3.5857,3.5857,3.629,3.6867,3.6723,3.6988,3.7497,3.7653,3.8209,3.8788,3.8788,3.9154,3.9465,3.8945,3.8631,3.8344,3.808,3.7974,3.8022,3.819,3.8118,3.8022,3.819,3.8118,3.7974,3.7974,3.7974,3.7974,3.7974,3.7974,3.7926,3.7757,3.6706,3.5928,3.6086,3.4971,3.4114,3.4011,3.3247,3.2571,3.219,3.1402,3.0898,3.0898,3.0898,3.0898,3.0898,3.0898,3.0898,3.0898,3.0898,3.0898,3.0898,3.0898,3.0898,3.0898,3.0898,3.082,3.0644,2.9902,2.9492,2.9336,2.8613,2.8301,2.8301,2.8301,2.8301,2.8301,2.8301,2.8301,2.8301,2.8301,2.8301,2.8301,2.8301,2.8301,2.8301,2.8301,2.8301,2.8301,2.8301,2.8301,2.8301,2.8301,2.8301,2.8301,2.8301,2.8301,2.8301,2.8301,2.8301,2.8301,2.8301,2.8301,2.8301,2.8301,2.8301,2.8301,2.8301,2.9355,2.988,2.988,3.1,3.2145,3.3151,3.3151,3.377,3.4775,3.4775,3.4775,3.4775,3.4775,3.4775,3.4823,3.54,3.593,3.6411,3.6411,3.706,3.7902,3.7397,3.7541,3.808,3.8631,3.8788,3.8893,3.9542,3.9517,3.9206,3.8893,3.8631,3.8368,3.808,3.7974,3.8118,3.8671,3.8407,3.8142,3.8695,3.8383,3.7998,3.7974,3.7974,3.7974,3.7974,3.7974,3.7805,3.7276,3.7637,3.7805,3.7276,3.6631,3.5795,3.4558,3.3402,3.2248,3.0995,3.0898,3.0898,3.0898,3.0898,3.0898,3.0898,3.0898,3.0898,3.0898,3.0898,3.0898,3.0898,3.0898,3.0898,3.0879,3.0879,3.0644,3.0176,2.9766,2.9336,2.8906,2.8476,2.8301,2.8301,2.8301,2.8301,2.8301,2.8301,2.8301,2.8301,2.8301,2.8301,2.8301,2.8301,2.8301,2.8301,2.8301,2.8301,2.8301,2.8301,2.8301,2.8301,2.8301,2.8301,2.8301,2.8301,2.8301,2.8301,2.8301,2.8301,2.8301,2.8301,2.8301,2.8301,2.8301,2.8301,2.8301,2.8301,2.8601,2.8794,2.8794,2.9112,2.9828,3.0897,3.0897,3.1462,3.26,3.335,3.3671,3.372,3.4482,3.4775,3.4823,3.54,3.593,3.6435,3.6819,3.7372,3.795,3.7805,3.7853,3.8027,3.8421,3.8631,3.8893,3.9542,3.9362,3.8945,3.8841,3.8473,3.808,3.8027,3.7974,3.8022,3.819,3.8407,3.8503,3.8286,3.8407,3.8455,3.807,3.7974,3.7974,3.7974,3.7974,3.7926,3.7781,3.7878,3.7926,3.7757,3.7613,3.6989,3.5795,3.4614,3.3459,3.2285,3.1402,3.0898,3.0898,3.0898,3.0898,3.0898,3.0898,3.0898,3.0898,3.0898,3.0898,3.0898,3.0898,3.0723,3.041,3.041,3.0176,2.9746,2.9316,2.9043,2.8906,2.8476,2.8301,2.8301,2.8301,2.8301,2.8301,2.8301,2.8301,2.8301,2.8301,2.8301,2.8301,2.8066,2.8184,2.8301,2.8301,2.8301,2.8301,2.8301,2.8301,2.8301,2.8301,2.8301,2.8301,2.8301,2.8301,2.8301,2.8301,2.8437,2.8476,2.8301,2.8437,2.8457,2.8301,2.8301,2.8301,2.8301,2.8301,2.8301,2.8301,2.8301,2.8847,2.9932,2.9932,3.0484,3.1637,3.275,3.3201,3.325,3.4311,3.4895,3.5184,3.5713,3.6242,3.6771,3.73,3.7709,3.7974,3.7974,3.7974,3.8027,3.8421,3.8841,3.9206,3.9594,3.9387,3.8945,3.8841,3.8579,3.8291,3.821,3.8262,3.8315,3.8315,3.8398,3.8508,3.8602,3.8567,3.8436,3.8205,3.808,3.7974,3.7974,3.7974,3.7974,3.7974,3.7974,3.7974,3.7974,3.7974,3.7388,3.5663,3.4836,3.3776,3.2133,3.1344,3.0898,3.0898,3.0898,3.0898,3.0898,3.0898,3.0898,3.0898,3.0898,3.0898,3.0898,3.0898,3.0762,3.0469,3.0293,2.998,2.9551,2.9121,2.8828,2.8652,2.8398,2.8301,2.8301,2.8301,2.8301,2.8301,2.8301,2.8301,2.8301,2.8301,2.8301,2.8301,2.7845,2.8027,2.8301,2.8301,2.8301,2.8301,2.8301,2.8301,2.8301,2.8301,2.8301,2.8301,2.8301,2.8301,2.8301,2.834,2.873,2.8809,2.8379,2.8711,2.873,2.832,2.8301,2.8301,2.8301,2.8301,2.8301,2.8301,2.8301,2.8814,2.9775,2.9775,3.0318,3.1424,3.2572,3.3097,3.3288,3.4406,3.5159,3.5737,3.6266,3.6771,3.7252,3.7781,3.7974,3.7974,3.7974,3.7974,3.808,3.8631,3.9206,3.9697,3.9697,3.9542,3.9258,3.8945,3.8841,3.8736,3.8526,3.8656,3.8862,3.8915,3.8546,3.8379,3.932,3.881,3.8205,3.8368,3.821,3.8027,3.7974,3.7974,3.7974,3.7974,3.7974,3.7974,3.7974,3.7974,3.7096,3.467,3.4391,3.3494,3.1112,3.0898,3.0898,3.0898,3.0898,3.0898,3.0898,3.0898,3.0898,3.0898,3.0898,3.0898,3.0898,3.0898,3.0859,3.082,3.0351,2.9922,2.9492,2.9062,2.8652,2.8301,2.8301,2.8301,2.8301,2.8301,2.8301,2.8301,2.8301,2.8301,2.8301,2.8301,2.8301,2.8301,2.8184,2.8223,2.8301,2.8301,2.8301,2.8301,2.8301,2.8301,2.8301,2.8301,2.8301,2.8301,2.8301,2.8301,2.8418,2.875,2.918,2.9238,2.8809,2.8867,2.873,2.832,2.8301,2.8301,2.8301,2.8301,2.8301,2.8301,2.8301,2.8388,2.8654,2.8654,2.8939,2.9561,3.1223,3.234,3.313,3.4742,3.5761,3.6266,3.6819,3.7084,3.7252,3.7781,3.7974,3.7974,3.7974,3.7974,3.808,3.8631,3.905,3.9413,3.9645,3.9542,3.9258,3.9206,3.8998,3.8788,3.8736,3.9108,3.9558,3.9745,3.9586,3.9247,3.9034,3.91,3.9091,3.8494,3.8344,3.8238,3.8027,3.7974,3.7974,3.7974,3.7974,3.7974,3.7974,3.7974,3.7096,3.467,3.4391,3.3494,3.1112,3.0898,3.0898,3.0898,3.0898,3.0898,3.0898,3.0898,3.0898,3.0898,3.0898,3.0898,3.0898,3.0898,3.0703,3.0351,2.9922,2.9473,2.9043,2.8613,2.8379,2.8301,2.8301,2.8301,2.8301,2.8301,2.8301,2.8301,2.8301,2.8301,2.8301,2.8301,2.8301,2.8301,2.8027,2.8164,2.8301,2.8301,2.8301,2.8301,2.8301,2.8301,2.8301,2.8301,2.8301,2.8301,2.8301,2.8301,2.8457,2.8887,2.9492,2.959,2.8965,2.9121,2.8945,2.832,2.8301,2.8301,2.8301,2.8301,2.8301,2.8301,2.8301,2.8301,2.8301,2.8301,2.8418,2.8667,3.0369,3.1727,3.2814,3.4429,3.5758,3.6819,3.7084,3.7348,3.7589,3.7878,3.7974,3.7974,3.7974,3.808,3.8238,3.8684,3.8998,3.9362,3.9645,3.9542,3.931,3.931,3.9154,3.9099,3.9371,3.9773,4.0103,4.0237,4.0209,4.0028,3.9677,3.9287,3.8973,3.8627,3.8421,3.8157,3.8027,3.7974,3.7974,3.7974,3.7974,3.7974,3.7974,3.7974,3.7311,3.5498,3.5278,3.4336,3.2018,3.1228,3.0898,3.0898,3.0898,3.0898,3.0898,3.0898,3.0898,3.0898,3.0898,3.0898,3.0898,3.0898,3.0762,3.0527,3.0078,2.9648,2.9219,2.8789,2.8476,2.8301,2.8301,2.8301,2.8301,2.8301,2.8301,2.8301,2.8301,2.8301,2.8301,2.8301,2.8301,2.8301,2.7904,2.8047,2.8301,2.8301,2.8301,2.8301,2.8301,2.8301,2.8301,2.8301,2.8301,2.8301,2.8301,2.8359,2.8574,2.8984,2.9687,2.9785,2.9082,2.9297,2.9101,2.832,2.8301,2.8301,2.8301,2.8301,2.8301,2.8301,2.8301,2.832,2.8398,2.832,2.8359,2.8569,2.9957,3.1392,3.2704,3.4155,3.5759,3.7324,3.7324,3.7589,3.7974,3.7974,3.7974,3.7974,3.7974,3.8133,3.8368,3.8631,3.8945,3.9258,3.949,3.9413,3.931,3.931,3.931,3.9409,3.9935,4.0267,4.0526,4.0526,4.0526,4.0551,4.0626,3.9646,3.8753,3.8883,3.8615,3.8316,3.8262,3.8262,3.8238,3.8142,3.8118,3.8094,3.7998,3.7974,3.7548,3.634,3.585,3.4858,3.2913,3.1614,3.0898,3.0898,3.0898,3.0898,3.0898,3.0898,3.0898,3.0898,3.0898,3.0898,3.0898,3.0898,3.0898,3.0879,3.0508,3.0059,2.9551,2.9121,2.8691,2.8301,2.8301,2.8301,2.8301,2.8301,2.8301,2.8301,2.8301,2.8301,2.8301,2.8301,2.8301,2.8301,2.8223,2.8262,2.8301,2.8301,2.8301,2.8301,2.8301,2.8301,2.8301,2.8301,2.8301,2.8301,2.8301,2.8613,2.9004,2.9453,2.959,2.9609,2.9492,2.918,2.8789,2.832,2.8301,2.8301,2.8301,2.8301,2.8301,2.8301,2.8301,2.8476,2.8828,2.8457,2.8691,2.943,3.0242,3.173,3.367,3.4811,3.6297,3.7878,3.7878,3.7926,3.7974,3.7974,3.7974,3.7974,3.7974,3.8027,3.808,3.8368,3.8631,3.8893,3.8893,3.9102,3.931,3.931,3.931,3.9387,3.9669,4.0097,4.0526,4.0526,4.0526,4.0651,4.1075,4.0536,3.9819,3.9529,3.9629,3.9643,3.9448,3.9393,3.9248,3.8791,3.8695,3.8527,3.8046,3.7974,3.7548,3.634,3.4413,3.3084,3.2742,3.1614,3.0898,3.0898,3.0898,3.0898,3.0898,3.0898,3.0898,3.0898,3.0898,3.0898,3.0898,3.0898,3.0898,3.0898,3.082,3.0371,2.9551,2.9121,2.8691,2.8301,2.8301,2.8301,2.8301,2.8301,2.8301,2.8301,2.8301,2.8301,2.8301,2.8301,2.8301,2.8301,2.8301,2.8301,2.8301,2.8301,2.8301,2.8301,2.8301,2.8301,2.8301,2.8301,2.8301,2.8301,2.8301,2.8672,2.9004,2.9199,2.9648,2.9707,2.9238,2.9258,2.8984,2.832,2.8301,2.8301,2.8301,2.8301,2.8301,2.8301,2.8301,2.8398,2.8574,2.8379,2.8613,2.9219,2.9789,3.1086,3.2904,3.4263,3.5677,3.7042,3.7708,3.7974,3.7974,3.7974,3.7974,3.7974,3.7974,3.7974,3.8027,3.8315,3.8774,3.9259,3.8887,3.9115,3.947,3.9149,3.8998,3.9176,3.9735,4.0445,4.0924,4.0924,4.1204,4.1404,4.13,4.1164,4.0789,4.0247,4.0074,3.9916,3.9664,3.9369,3.908,3.8864,3.8551,3.8262,3.8022,3.7974,3.7814,3.7281,3.5685,3.4692,3.4692,3.3572,3.2571,3.196,3.1903,3.1614,3.0957,3.0898,3.0898,3.0898,3.0898,3.0898,3.0898,3.0898,3.0898,3.0898,3.0898,3.043,2.957,2.9375,2.8926,2.8301,2.8301,2.8301,2.8301,2.8301,2.8301,2.8301,2.8301,2.8301,2.8301,2.8301,2.8301,2.8301]}]]